Darstellungsparameter: Aktuell verwendete Einstellungen:
Skalierung der Graphiken ... ?
xyx+y,   Skalierungsfaktor:      Skalierung: Modus: x, Faktor: 1
Darstellungszeitraum ... ?
Vom - - bis: - -   Zeitraum: 27.06.2019 - 17.07.2019
Min/Max/Avg-Anzeige ... ?
Zeige MMA aktuell
Zeige MMA Monat
Zeige MMA alles
Zeige --A aktuell
Zeige --A Monat
Zeige --A alles
Keine MMA-Anzeige
MMA:
Keine MMA-Graphiken
MMA-Basis: 27.06.2019 - 17.07.2019
Quicknavigation für Darstellung... ?
Tage:      1T, 2T, 3T, 5T -1T -2T -3T -5T +1T +2T +3T +5T
Wochen: 1W, 2W, 3W -1W -2W -3W +1W +2W +3W
Monate: 1M, 3M, 6M -1M -3M -6M +1M +3M +6M
Jahre:    1J, 3J, 5J, 10J -1J -3J -5J -10J +1J +3J +5J +10J
Nutze für die Darstellung ... ?
Originaldaten oder Mittelwerte auf ...
Stundenbasis Tagesbasis Wochenbasis
Monatsbasis Jahresbasis      Datenbasis: Original-Daten
Darstellen als:
Statistik (Auto) Statistik J:M      Darstellung:
Zur Graphik,    zurück zur Übersicht aller Sensoren.
 
Tabellarische Datenbersicht: ?
 
Sensor: Nr:Datum:Temp:Feuchte:Taupunkt:
Aussen-T/F 1 27-06-2019 00:00:00 25.8 C 71 % 20.14 C
2 27-06-2019 00:05:00 25.8 C 71 % 20.14 C
3 27-06-2019 00:10:00 25.7 C 72 % 20.27 C
4 27-06-2019 00:15:00 25.5 C 72 % 20.08 C
5 27-06-2019 00:20:00 25.4 C 72 % 19.98 C
6 27-06-2019 00:25:00 25.3 C 73 % 20.11 C
7 27-06-2019 00:30:00 25.2 C 73 % 20.01 C
8 27-06-2019 00:35:00 25.1 C 74 % 20.14 C
9 27-06-2019 00:40:00 24.9 C 74 % 19.94 C
10 27-06-2019 00:45:00 24.8 C 74 % 19.85 C
11 27-06-2019 00:50:00 24.7 C 75 % 19.97 C
12 27-06-2019 00:55:00 24.7 C 75 % 19.97 C
13 27-06-2019 01:00:00 24.7 C 75 % 19.97 C
14 27-06-2019 01:05:00 24.6 C 75 % 19.87 C
15 27-06-2019 01:10:00 24.5 C 76 % 19.99 C
16 27-06-2019 01:15:00 24.3 C 76 % 19.8 C
17 27-06-2019 01:20:00 24.1 C 77 % 19.81 C
18 27-06-2019 01:25:00 23.9 C 77 % 19.62 C
19 27-06-2019 01:30:00 23.9 C 77 % 19.62 C
20 27-06-2019 01:35:00 23.9 C 77 % 19.62 C
21 27-06-2019 01:40:00 23.9 C 77 % 19.62 C
22 27-06-2019 01:45:00 23.9 C 77 % 19.62 C
23 27-06-2019 01:50:00 23.9 C 77 % 19.62 C
24 27-06-2019 01:55:00 23.8 C 77 % 19.52 C
25 27-06-2019 02:00:00 23.7 C 77 % 19.43 C
Sensor: Nr:Datum:Temp:Feuchte:Taupunkt:
Aussen-T/F 26 27-06-2019 02:05:00 23.6 C 78 % 19.54 C
27 27-06-2019 02:10:00 23.6 C 78 % 19.54 C
28 27-06-2019 02:15:00 23.4 C 79 % 19.55 C
29 27-06-2019 02:20:00 23.3 C 79 % 19.45 C
30 27-06-2019 02:25:00 23.2 C 79 % 19.35 C
31 27-06-2019 02:30:00 23.1 C 79 % 19.26 C
32 27-06-2019 02:35:00 23 C 79 % 19.16 C
33 27-06-2019 02:40:00 23.1 C 79 % 19.26 C
34 27-06-2019 02:45:00 23.1 C 79 % 19.26 C
35 27-06-2019 02:50:00 23 C 78 % 18.96 C
36 27-06-2019 02:55:00 23 C 78 % 18.96 C
37 27-06-2019 03:00:00 22.9 C 78 % 18.86 C
38 27-06-2019 03:05:00 22.9 C 78 % 18.86 C
39 27-06-2019 03:10:00 22.8 C 78 % 18.76 C
40 27-06-2019 03:15:00 22.6 C 78 % 18.57 C
41 27-06-2019 03:20:00 22.5 C 79 % 18.67 C
42 27-06-2019 03:25:00 22.3 C 78 % 18.28 C
43 27-06-2019 03:30:00 22.3 C 79 % 18.48 C
44 27-06-2019 03:35:00 22.2 C 78 % 18.18 C
45 27-06-2019 03:40:00 22.2 C 78 % 18.18 C
46 27-06-2019 03:45:00 22.2 C 78 % 18.18 C
47 27-06-2019 03:50:00 22.1 C 77 % 17.88 C
48 27-06-2019 03:55:00 22 C 77 % 17.78 C
49 27-06-2019 04:00:00 21.9 C 77 % 17.68 C
50 27-06-2019 04:05:00 21.9 C 77 % 17.68 C
Sensor: Nr:Datum:Temp:Feuchte:Taupunkt:
Aussen-T/F 51 27-06-2019 04:10:00 21.9 C 77 % 17.68 C
52 27-06-2019 04:15:00 21.8 C 76 % 17.38 C
53 27-06-2019 04:20:00 21.8 C 77 % 17.59 C
54 27-06-2019 04:25:00 21.7 C 77 % 17.49 C
55 27-06-2019 04:30:00 21.7 C 77 % 17.49 C
56 27-06-2019 04:35:00 21.6 C 77 % 17.39 C
57 27-06-2019 04:40:00 21.6 C 77 % 17.39 C
58 27-06-2019 04:45:00 21.4 C 77 % 17.2 C
59 27-06-2019 04:50:00 21.4 C 77 % 17.2 C
60 27-06-2019 04:55:00 21.3 C 78 % 17.31 C
61 27-06-2019 05:00:00 21.2 C 78 % 17.21 C
62 27-06-2019 05:05:00 20.9 C 79 % 17.12 C
63 27-06-2019 05:10:00 20.7 C 80 % 17.13 C
64 27-06-2019 05:15:00 20.6 C 80 % 17.03 C
65 27-06-2019 05:20:00 20.3 C 81 % 16.93 C
66 27-06-2019 05:25:00 20.2 C 80 % 16.64 C
67 27-06-2019 05:30:00 20.3 C 80 % 16.74 C
68 27-06-2019 05:35:00 20.4 C 79 % 16.64 C
69 27-06-2019 05:40:00 20.5 C 79 % 16.73 C
70 27-06-2019 05:45:00 20.5 C 79 % 16.73 C
71 27-06-2019 05:50:00 20.5 C 79 % 16.73 C
72 27-06-2019 05:55:00 20.4 C 79 % 16.64 C
73 27-06-2019 06:00:00 20.3 C 79 % 16.54 C
74 27-06-2019 06:05:00 20.3 C 79 % 16.54 C
75 27-06-2019 06:10:00 20.2 C 79 % 16.44 C
Sensor: Nr:Datum:Temp:Feuchte:Taupunkt:
Aussen-T/F 76 27-06-2019 06:15:00 20.2 C 80 % 16.64 C
77 27-06-2019 06:20:00 20.2 C 80 % 16.64 C
78 27-06-2019 06:25:00 20.1 C 81 % 16.74 C
79 27-06-2019 06:30:00 20 C 81 % 16.64 C
80 27-06-2019 06:35:00 19.9 C 81 % 16.54 C
81 27-06-2019 06:40:00 19.8 C 82 % 16.64 C
82 27-06-2019 06:45:00 19.8 C 82 % 16.64 C
83 27-06-2019 06:50:00 19.7 C 82 % 16.54 C
84 27-06-2019 06:55:00 19.7 C 83 % 16.73 C
85 27-06-2019 07:00:00 19.7 C 81 % 16.35 C
86 27-06-2019 07:05:00 19.7 C 81 % 16.35 C
87 27-06-2019 07:10:00 19.8 C 80 % 16.25 C
88 27-06-2019 07:15:00 19.9 C 80 % 16.35 C
89 27-06-2019 07:20:00 19.9 C 80 % 16.35 C
90 27-06-2019 07:25:00 20 C 80 % 16.44 C
91 27-06-2019 07:30:00 20.1 C 80 % 16.54 C
92 27-06-2019 07:35:00 20.2 C 79 % 16.44 C
93 27-06-2019 07:40:00 20.2 C 79 % 16.44 C
94 27-06-2019 07:45:00 20.3 C 79 % 16.54 C
95 27-06-2019 07:50:00 20.3 C 79 % 16.54 C
96 27-06-2019 07:55:00 20.3 C 79 % 16.54 C
97 27-06-2019 08:00:00 20.4 C 78 % 16.44 C
98 27-06-2019 08:05:00 20.4 C 78 % 16.44 C
99 27-06-2019 08:10:00 20.4 C 78 % 16.44 C
100 27-06-2019 08:15:00 20.6 C 78 % 16.63 C
Sensor: Nr:Datum:Temp:Feuchte:Taupunkt:
Aussen-T/F 101 27-06-2019 08:20:00 20.6 C 78 % 16.63 C
102 27-06-2019 08:25:00 20.6 C 77 % 16.43 C
103 27-06-2019 08:30:00 20.6 C 77 % 16.43 C
104 27-06-2019 08:35:00 20.6 C 77 % 16.43 C
105 27-06-2019 08:40:00 20.6 C 78 % 16.63 C
106 27-06-2019 08:45:00 20.7 C 78 % 16.73 C
107 27-06-2019 08:50:00 20.8 C 77 % 16.62 C
108 27-06-2019 08:55:00 20.9 C 76 % 16.51 C
109 27-06-2019 09:00:00 21 C 77 % 16.81 C
110 27-06-2019 09:05:00 21.2 C 76 % 16.8 C
111 27-06-2019 09:10:00 21.3 C 75 % 16.69 C
112 27-06-2019 09:15:00 21.3 C 74 % 16.48 C
113 27-06-2019 09:20:00 21.4 C 73 % 16.36 C
114 27-06-2019 09:25:00 21.4 C 74 % 16.57 C
115 27-06-2019 09:30:00 21.4 C 74 % 16.57 C
116 27-06-2019 09:35:00 21.5 C 74 % 16.67 C
117 27-06-2019 09:40:00 21.6 C 74 % 16.77 C
118 27-06-2019 09:45:00 21.7 C 73 % 16.65 C
119 27-06-2019 09:50:00 21.8 C 72 % 16.53 C
120 27-06-2019 09:55:00 21.9 C 72 % 16.62 C
121 27-06-2019 10:00:00 22 C 72 % 16.72 C
122 27-06-2019 10:05:00 22.1 C 71 % 16.6 C
123 27-06-2019 10:10:00 22.3 C 70 % 16.56 C
124 27-06-2019 10:15:00 22.4 C 69 % 16.43 C
125 27-06-2019 10:20:00 22.7 C 69 % 16.72 C
Sensor: Nr:Datum:Temp:Feuchte:Taupunkt:
Aussen-T/F 126 27-06-2019 10:25:00 22.8 C 68 % 16.59 C
127 27-06-2019 10:30:00 23.1 C 67 % 16.64 C
128 27-06-2019 10:35:00 23.2 C 67 % 16.73 C
129 27-06-2019 10:40:00 23.2 C 67 % 16.73 C
130 27-06-2019 10:45:00 23.4 C 66 % 16.69 C
131 27-06-2019 10:50:00 23.4 C 65 % 16.45 C
132 27-06-2019 10:55:00 23.4 C 65 % 16.45 C
133 27-06-2019 11:00:00 23.6 C 64 % 16.39 C
134 27-06-2019 11:05:00 23.6 C 64 % 16.39 C
135 27-06-2019 11:10:00 23.7 C 63 % 16.24 C
136 27-06-2019 11:15:00 23.7 C 64 % 16.49 C
137 27-06-2019 11:20:00 23.8 C 63 % 16.33 C
138 27-06-2019 11:25:00 24.1 C 62 % 16.37 C
139 27-06-2019 11:30:00 24.2 C 62 % 16.46 C
140 27-06-2019 11:35:00 24.3 C 60 % 16.04 C
141 27-06-2019 11:40:00 24.3 C 62 % 16.55 C
142 27-06-2019 11:45:00 24.3 C 60 % 16.04 C
143 27-06-2019 11:50:00 24.4 C 61 % 16.39 C
144 27-06-2019 11:55:00 24.4 C 60 % 16.13 C
145 27-06-2019 12:00:00 24.5 C 60 % 16.23 C
146 27-06-2019 12:05:00 24.7 C 61 % 16.67 C
147 27-06-2019 12:10:00 24.7 C 60 % 16.41 C
148 27-06-2019 12:15:00 24.7 C 59 % 16.15 C
149 27-06-2019 12:20:00 24.8 C 60 % 16.51 C
150 27-06-2019 12:25:00 24.8 C 59 % 16.24 C
Sensor: Nr:Datum:Temp:Feuchte:Taupunkt:
Aussen-T/F 151 27-06-2019 12:30:00 24.8 C 59 % 16.24 C
152 27-06-2019 12:35:00 24.8 C 58 % 15.98 C
153 27-06-2019 12:40:00 24.9 C 58 % 16.07 C
154 27-06-2019 12:45:00 25 C 58 % 16.16 C
155 27-06-2019 12:50:00 25.2 C 57 % 16.08 C
156 27-06-2019 12:55:00 25.2 C 58 % 16.35 C
157 27-06-2019 13:00:00 25.2 C 57 % 16.08 C
158 27-06-2019 13:05:00 25.5 C 55 % 15.8 C
159 27-06-2019 13:10:00 25.6 C 55 % 15.89 C
160 27-06-2019 13:15:00 25.6 C 54 % 15.6 C
161 27-06-2019 13:20:00 25.8 C 54 % 15.79 C
162 27-06-2019 13:25:00 25.9 C 53 % 15.59 C
163 27-06-2019 13:30:00 25.9 C 52 % 15.29 C
164 27-06-2019 13:35:00 26.1 C 52 % 15.48 C
165 27-06-2019 13:40:00 26.1 C 53 % 15.77 C
166 27-06-2019 13:45:00 26.2 C 52 % 15.57 C
167 27-06-2019 13:50:00 26.2 C 51 % 15.27 C
168 27-06-2019 13:55:00 26.4 C 51 % 15.45 C
169 27-06-2019 14:00:00 26.5 C 51 % 15.54 C
170 27-06-2019 14:05:00 26.6 C 50 % 15.32 C
171 27-06-2019 14:10:00 26.5 C 49 % 14.92 C
172 27-06-2019 14:15:00 26.6 C 51 % 15.63 C
173 27-06-2019 14:20:00 26.7 C 49 % 15.1 C
174 27-06-2019 14:25:00 26.8 C 48 % 14.87 C
175 27-06-2019 14:30:00 26.9 C 48 % 14.96 C
Sensor: Nr:Datum:Temp:Feuchte:Taupunkt:
Aussen-T/F 176 27-06-2019 14:35:00 27.1 C 49 % 15.47 C
177 27-06-2019 14:40:00 27.3 C 48 % 15.33 C
178 27-06-2019 14:45:00 27.6 C 46 % 14.94 C
179 27-06-2019 14:50:00 27.6 C 46 % 14.94 C
180 27-06-2019 14:55:00 27.6 C 45 % 14.6 C
181 27-06-2019 15:00:00 27.7 C 45 % 14.69 C
182 27-06-2019 15:05:00 27.8 C 44 % 14.43 C
183 27-06-2019 15:10:00 27.9 C 44 % 14.52 C
184 27-06-2019 15:15:00 28.1 C 45 % 15.05 C
185 27-06-2019 15:20:00 28.3 C 43 % 14.53 C
186 27-06-2019 15:25:00 28.6 C 42 % 14.43 C
187 27-06-2019 15:30:00 28.7 C 41 % 14.15 C
188 27-06-2019 15:35:00 28.9 C 38 % 13.16 C
189 27-06-2019 15:40:00 29 C 38 % 13.25 C
190 27-06-2019 15:45:00 29.2 C 38 % 13.42 C
191 27-06-2019 15:50:00 29.4 C 38 % 13.6 C
192 27-06-2019 15:55:00 29.6 C 37 % 13.37 C
193 27-06-2019 16:00:00 29.8 C 36 % 13.12 C
194 27-06-2019 16:05:00 29.9 C 35 % 12.78 C
195 27-06-2019 16:10:00 29.8 C 36 % 13.12 C
196 27-06-2019 16:15:00 29.9 C 33 % 11.89 C
197 27-06-2019 16:20:00 30 C 35 % 12.87 C
198 27-06-2019 16:25:00 30.3 C 33 % 12.23 C
199 27-06-2019 16:30:00 30.4 C 32 % 11.85 C
200 27-06-2019 16:35:00 30.6 C 32 % 12.03 C
Sensor: Nr:Datum:Temp:Feuchte:Taupunkt:
Aussen-T/F 201 27-06-2019 16:40:00 30.6 C 30 % 11.05 C
202 27-06-2019 16:45:00 30.5 C 29 % 10.46 C
203 27-06-2019 16:50:00 30.2 C 29 % 10.2 C
204 27-06-2019 16:55:00 30.2 C 29 % 10.2 C
205 27-06-2019 17:00:00 30.3 C 29 % 10.29 C
206 27-06-2019 17:05:00 30.6 C 28 % 10.02 C
207 27-06-2019 17:10:00 30.5 C 28 % 9.93 C
208 27-06-2019 17:15:00 30.4 C 28 % 9.85 C
209 27-06-2019 17:20:00 30.7 C 28 % 10.1 C
210 27-06-2019 17:25:00 30.7 C 28 % 10.1 C
211 27-06-2019 17:30:00 30.6 C 29 % 10.54 C
212 27-06-2019 17:35:00 30.5 C 27 % 9.39 C
213 27-06-2019 17:40:00 30.4 C 28 % 9.85 C
214 27-06-2019 17:45:00 30.5 C 27 % 9.39 C
215 27-06-2019 17:50:00 30.6 C 28 % 10.02 C
216 27-06-2019 17:55:00 30.7 C 28 % 10.1 C
217 27-06-2019 18:00:00 30.4 C 27 % 9.31 C
218 27-06-2019 18:05:00 30.3 C 26 % 8.66 C
219 27-06-2019 18:10:00 30.5 C 27 % 9.39 C
220 27-06-2019 18:15:00 30.3 C 26 % 8.66 C
221 27-06-2019 18:20:00 30.3 C 26 % 8.66 C
222 27-06-2019 18:25:00 30.2 C 26 % 8.58 C
223 27-06-2019 18:30:00 30.3 C 27 % 9.22 C
224 27-06-2019 18:35:00 30.2 C 27 % 9.14 C
225 27-06-2019 18:40:00 30 C 26 % 8.41 C
Sensor: Nr:Datum:Temp:Feuchte:Taupunkt:
Aussen-T/F 226 27-06-2019 18:45:00 30 C 26 % 8.41 C
227 27-06-2019 18:50:00 30.1 C 26 % 8.5 C
228 27-06-2019 18:55:00 30.1 C 26 % 8.5 C
229 27-06-2019 19:00:00 30.2 C 26 % 8.58 C
230 27-06-2019 19:05:00 30.3 C 27 % 9.22 C
231 27-06-2019 19:10:00 30.4 C 25 % 8.17 C
232 27-06-2019 19:15:00 30.3 C 24 % 7.49 C
233 27-06-2019 19:20:00 30.1 C 24 % 7.32 C
234 27-06-2019 19:25:00 29.8 C 25 % 7.67 C
235 27-06-2019 19:30:00 29.6 C 25 % 7.5 C
236 27-06-2019 19:35:00 29.2 C 25 % 7.16 C
237 27-06-2019 19:40:00 29 C 26 % 7.57 C
238 27-06-2019 19:45:00 28.8 C 26 % 7.4 C
239 27-06-2019 19:50:00 28.7 C 28 % 8.4 C
240 27-06-2019 19:55:00 28.7 C 28 % 8.4 C
241 27-06-2019 20:00:00 28.5 C 28 % 8.23 C
242 27-06-2019 20:05:00 28.3 C 29 % 8.57 C
243 27-06-2019 20:10:00 28.2 C 31 % 9.48 C
244 27-06-2019 20:15:00 28.1 C 32 % 9.86 C
245 27-06-2019 20:20:00 27.9 C 32 % 9.69 C
246 27-06-2019 20:25:00 27.6 C 32 % 9.43 C
247 27-06-2019 20:30:00 27.2 C 35 % 10.42 C
248 27-06-2019 20:35:00 27 C 33 % 9.36 C
249 27-06-2019 20:40:00 26.8 C 34 % 9.63 C
250 27-06-2019 20:45:00 26.7 C 35 % 9.98 C
Sensor: Nr:Datum:Temp:Feuchte:Taupunkt:
Aussen-T/F 251 27-06-2019 20:50:00 26.6 C 33 % 9.01 C
252 27-06-2019 20:55:00 26.3 C 36 % 10.05 C
253 27-06-2019 21:00:00 26.1 C 35 % 9.45 C
254 27-06-2019 21:05:00 25.8 C 36 % 9.61 C
255 27-06-2019 21:10:00 25.6 C 37 % 9.84 C
256 27-06-2019 21:15:00 25.3 C 37 % 9.57 C
257 27-06-2019 21:20:00 25.2 C 38 % 9.88 C
258 27-06-2019 21:25:00 24.9 C 42 % 11.11 C
259 27-06-2019 21:30:00 24.6 C 42 % 10.84 C
260 27-06-2019 21:35:00 24.1 C 44 % 11.09 C
261 27-06-2019 21:40:00 23.7 C 45 % 11.07 C
262 27-06-2019 21:45:00 23.2 C 47 % 11.27 C
263 27-06-2019 21:50:00 22.8 C 47 % 10.91 C
264 27-06-2019 21:55:00 22.5 C 50 % 11.56 C
265 27-06-2019 22:00:00 22.2 C 52 % 11.88 C
266 27-06-2019 22:05:00 22 C 51 % 11.4 C
267 27-06-2019 22:10:00 21.9 C 53 % 11.89 C
268 27-06-2019 22:15:00 21.7 C 53 % 11.71 C
269 27-06-2019 22:20:00 21.4 C 54 % 11.71 C
270 27-06-2019 22:25:00 21.3 C 55 % 11.9 C
271 27-06-2019 22:30:00 21.2 C 55 % 11.81 C
272 27-06-2019 22:35:00 21.1 C 57 % 12.25 C
273 27-06-2019 22:40:00 20.9 C 56 % 11.8 C
274 27-06-2019 22:45:00 20.7 C 57 % 11.88 C
275 27-06-2019 22:50:00 20.6 C 58 % 12.05 C
Sensor: Nr:Datum:Temp:Feuchte:Taupunkt:
Aussen-T/F 276 27-06-2019 22:55:00 20.4 C 59 % 12.12 C
277 27-06-2019 23:00:00 20.3 C 58 % 11.77 C
278 27-06-2019 23:05:00 20.4 C 58 % 11.86 C
279 27-06-2019 23:10:00 20.4 C 59 % 12.12 C
280 27-06-2019 23:15:00 20.3 C 59 % 12.03 C
281 27-06-2019 23:20:00 20.2 C 60 % 12.19 C
282 27-06-2019 23:25:00 20 C 61 % 12.26 C
283 27-06-2019 23:30:00 19.8 C 61 % 12.07 C
284 27-06-2019 23:35:00 19.8 C 62 % 12.31 C
285 27-06-2019 23:40:00 19.6 C 62 % 12.13 C
286 27-06-2019 23:45:00 19.5 C 63 % 12.27 C
287 27-06-2019 23:50:00 19.3 C 63 % 12.09 C
288 27-06-2019 23:55:00 19.2 C 64 % 12.23 C
289 28-06-2019 00:00:00 19.1 C 64 % 12.14 C
290 28-06-2019 00:05:00 19 C 64 % 12.04 C
291 28-06-2019 00:10:00 18.9 C 64 % 11.95 C
292 28-06-2019 00:15:00 18.8 C 66 % 12.32 C
293 28-06-2019 00:20:00 18.7 C 66 % 12.22 C
294 28-06-2019 00:25:00 18.6 C 66 % 12.13 C
295 28-06-2019 00:30:00 18.5 C 66 % 12.03 C
296 28-06-2019 00:35:00 18.4 C 66 % 11.94 C
297 28-06-2019 00:40:00 18.3 C 67 % 12.07 C
298 28-06-2019 00:45:00 18.2 C 67 % 11.98 C
299 28-06-2019 00:50:00 18 C 68 % 12.01 C
300 28-06-2019 00:55:00 17.9 C 69 % 12.14 C
Sensor: Nr:Datum:Temp:Feuchte:Taupunkt:
Aussen-T/F 301 28-06-2019 01:00:00 17.8 C 69 % 12.04 C
302 28-06-2019 01:05:00 17.7 C 69 % 11.95 C
303 28-06-2019 01:10:00 17.6 C 70 % 12.07 C
304 28-06-2019 01:15:00 17.4 C 70 % 11.88 C
305 28-06-2019 01:20:00 17.3 C 71 % 12 C
306 28-06-2019 01:25:00 17.2 C 72 % 12.11 C
307 28-06-2019 01:30:00 17.1 C 72 % 12.02 C
308 28-06-2019 01:35:00 17 C 73 % 12.13 C
309 28-06-2019 01:40:00 16.9 C 73 % 12.03 C
310 28-06-2019 01:45:00 16.8 C 73 % 11.94 C
311 28-06-2019 01:50:00 16.7 C 74 % 12.05 C
312 28-06-2019 01:55:00 16.7 C 74 % 12.05 C
313 28-06-2019 02:00:00 16.6 C 74 % 11.95 C
314 28-06-2019 02:05:00 16.6 C 75 % 12.15 C
315 28-06-2019 02:10:00 16.5 C 75 % 12.06 C
316 28-06-2019 02:15:00 16.4 C 75 % 11.96 C
317 28-06-2019 02:20:00 16.4 C 76 % 12.16 C
318 28-06-2019 02:25:00 16.3 C 77 % 12.26 C
319 28-06-2019 02:30:00 16.2 C 77 % 12.17 C
320 28-06-2019 02:35:00 16.2 C 77 % 12.17 C
321 28-06-2019 02:40:00 16.1 C 78 % 12.27 C
322 28-06-2019 02:45:00 16.1 C 78 % 12.27 C
323 28-06-2019 02:50:00 15.9 C 78 % 12.07 C
324 28-06-2019 02:55:00 15.9 C 78 % 12.07 C
325 28-06-2019 03:00:00 15.8 C 79 % 12.17 C
Sensor: Nr:Datum:Temp:Feuchte:Taupunkt:
Aussen-T/F 326 28-06-2019 03:05:00 15.8 C 79 % 12.17 C
327 28-06-2019 03:10:00 15.7 C 79 % 12.07 C
328 28-06-2019 03:15:00 15.7 C 79 % 12.07 C
329 28-06-2019 03:20:00 15.6 C 80 % 12.16 C
330 28-06-2019 03:25:00 15.6 C 80 % 12.16 C
331 28-06-2019 03:30:00 15.4 C 80 % 11.97 C
332 28-06-2019 03:35:00 15.4 C 81 % 12.16 C
333 28-06-2019 03:40:00 15.3 C 81 % 12.06 C
334 28-06-2019 03:45:00 15.3 C 81 % 12.06 C
335 28-06-2019 03:50:00 15.2 C 82 % 12.15 C
336 28-06-2019 03:55:00 15 C 82 % 11.95 C
337 28-06-2019 04:00:00 14.9 C 82 % 11.86 C
338 28-06-2019 04:05:00 14.8 C 83 % 11.94 C
339 28-06-2019 04:10:00 14.7 C 83 % 11.85 C
340 28-06-2019 04:15:00 14.6 C 83 % 11.75 C
341 28-06-2019 04:20:00 14.5 C 84 % 11.83 C
342 28-06-2019 04:25:00 14.4 C 84 % 11.73 C
343 28-06-2019 04:30:00 14.3 C 84 % 11.64 C
344 28-06-2019 04:35:00 14.2 C 85 % 11.72 C
345 28-06-2019 04:40:00 14.1 C 85 % 11.62 C
346 28-06-2019 04:45:00 14 C 86 % 11.7 C
347 28-06-2019 04:50:00 13.9 C 86 % 11.6 C
348 28-06-2019 04:55:00 13.8 C 86 % 11.5 C
349 28-06-2019 05:00:00 13.8 C 87 % 11.68 C
350 28-06-2019 05:05:00 13.7 C 86 % 11.4 C
Sensor: Nr:Datum:Temp:Feuchte:Taupunkt:
Aussen-T/F 351 28-06-2019 05:10:00 13.7 C 87 % 11.58 C
352 28-06-2019 05:15:00 13.7 C 87 % 11.58 C
353 28-06-2019 05:20:00 13.6 C 87 % 11.48 C
354 28-06-2019 05:25:00 13.5 C 87 % 11.38 C
355 28-06-2019 05:30:00 13.5 C 87 % 11.38 C
356 28-06-2019 05:35:00 13.4 C 88 % 11.45 C
357 28-06-2019 05:40:00 13.4 C 88 % 11.45 C
358 28-06-2019 05:45:00 13.3 C 88 % 11.36 C
359 28-06-2019 05:50:00 13.3 C 88 % 11.36 C
360 28-06-2019 05:55:00 13.3 C 89 % 11.53 C
361 28-06-2019 06:00:00 13.3 C 89 % 11.53 C
362 28-06-2019 06:05:00 13.3 C 89 % 11.53 C
363 28-06-2019 06:10:00 13.3 C 89 % 11.53 C
364 28-06-2019 06:15:00 13.3 C 89 % 11.53 C
365 28-06-2019 06:20:00 13.3 C 90 % 11.7 C
366 28-06-2019 06:25:00 13.3 C 90 % 11.7 C
367 28-06-2019 06:30:00 13.3 C 90 % 11.7 C
368 28-06-2019 06:35:00 13.4 C 90 % 11.79 C
369 28-06-2019 06:40:00 13.4 C 90 % 11.79 C
370 28-06-2019 06:45:00 13.4 C 90 % 11.79 C
371 28-06-2019 06:50:00 13.5 C 90 % 11.89 C
372 28-06-2019 06:55:00 13.5 C 91 % 12.06 C
373 28-06-2019 07:00:00 13.6 C 91 % 12.16 C
374 28-06-2019 07:05:00 13.6 C 91 % 12.16 C
375 28-06-2019 07:10:00 13.7 C 91 % 12.26 C
Sensor: Nr:Datum:Temp:Feuchte:Taupunkt:
Aussen-T/F 376 28-06-2019 07:15:00 13.7 C 91 % 12.26 C
377 28-06-2019 07:20:00 13.8 C 91 % 12.36 C
378 28-06-2019 07:25:00 13.8 C 90 % 12.19 C
379 28-06-2019 07:30:00 13.8 C 90 % 12.19 C
380 28-06-2019 07:35:00 13.9 C 91 % 12.46 C
381 28-06-2019 07:40:00 14 C 91 % 12.56 C
382 28-06-2019 07:45:00 14.1 C 91 % 12.65 C
383 28-06-2019 07:50:00 14.2 C 91 % 12.75 C
384 28-06-2019 07:55:00 14.2 C 91 % 12.75 C
385 28-06-2019 08:00:00 14.3 C 91 % 12.85 C
386 28-06-2019 08:05:00 14.4 C 90 % 12.78 C
387 28-06-2019 08:10:00 14.6 C 90 % 12.98 C
388 28-06-2019 08:15:00 14.7 C 89 % 12.91 C
389 28-06-2019 08:20:00 14.9 C 88 % 12.93 C
390 28-06-2019 08:25:00 15.2 C 86 % 12.88 C
391 28-06-2019 08:30:00 15.5 C 85 % 12.99 C
392 28-06-2019 08:35:00 15.9 C 82 % 12.83 C
393 28-06-2019 08:40:00 16.2 C 81 % 12.94 C
394 28-06-2019 08:45:00 16.3 C 82 % 13.22 C
395 28-06-2019 08:50:00 16.3 C 81 % 13.04 C
396 28-06-2019 08:55:00 16.4 C 81 % 13.13 C
397 28-06-2019 09:00:00 16.6 C 80 % 13.14 C
398 28-06-2019 09:05:00 16.9 C 78 % 13.04 C
399 28-06-2019 09:10:00 17.2 C 77 % 13.14 C
400 28-06-2019 09:15:00 17.4 C 76 % 13.13 C
Sensor: Nr:Datum:Temp:Feuchte:Taupunkt:
Aussen-T/F 401 28-06-2019 09:20:00 17.6 C 75 % 13.12 C
402 28-06-2019 09:25:00 17.7 C 74 % 13.01 C
403 28-06-2019 09:30:00 17.8 C 75 % 13.31 C
404 28-06-2019 09:35:00 17.9 C 74 % 13.2 C
405 28-06-2019 09:40:00 18.1 C 73 % 13.19 C
406 28-06-2019 09:45:00 18.2 C 74 % 13.49 C
407 28-06-2019 09:50:00 18.4 C 72 % 13.26 C
408 28-06-2019 09:55:00 18.6 C 71 % 13.24 C
409 28-06-2019 10:00:00 18.8 C 71 % 13.43 C
410 28-06-2019 10:05:00 18.8 C 70 % 13.22 C
411 28-06-2019 10:10:00 18.9 C 70 % 13.31 C
412 28-06-2019 10:15:00 19.1 C 70 % 13.5 C
413 28-06-2019 10:20:00 19.4 C 70 % 13.79 C
414 28-06-2019 10:25:00 19.7 C 67 % 13.4 C
415 28-06-2019 10:30:00 20.1 C 68 % 14.01 C
416 28-06-2019 10:35:00 20.4 C 65 % 13.6 C
417 28-06-2019 10:40:00 20.6 C 65 % 13.79 C
418 28-06-2019 10:45:00 20.6 C 65 % 13.79 C
419 28-06-2019 10:50:00 20.6 C 65 % 13.79 C
420 28-06-2019 10:55:00 20.8 C 63 % 13.5 C
421 28-06-2019 11:00:00 20.9 C 63 % 13.6 C
422 28-06-2019 11:05:00 20.9 C 62 % 13.35 C
423 28-06-2019 11:10:00 21.1 C 62 % 13.54 C
424 28-06-2019 11:15:00 21.2 C 60 % 13.13 C
425 28-06-2019 11:20:00 21.3 C 60 % 13.22 C
Sensor: Nr:Datum:Temp:Feuchte:Taupunkt:
Aussen-T/F 426 28-06-2019 11:25:00 21.5 C 59 % 13.15 C
427 28-06-2019 11:30:00 21.7 C 59 % 13.34 C
428 28-06-2019 11:35:00 21.8 C 60 % 13.69 C
429 28-06-2019 11:40:00 21.8 C 60 % 13.69 C
430 28-06-2019 11:45:00 21.8 C 60 % 13.69 C
431 28-06-2019 11:50:00 21.8 C 59 % 13.44 C
432 28-06-2019 11:55:00 21.9 C 60 % 13.79 C
433 28-06-2019 12:00:00 22.2 C 59 % 13.81 C
434 28-06-2019 12:05:00 22.3 C 58 % 13.64 C
435 28-06-2019 12:10:00 22.5 C 58 % 13.83 C
436 28-06-2019 12:15:00 22.6 C 58 % 13.92 C
437 28-06-2019 12:20:00 22.6 C 57 % 13.65 C
438 28-06-2019 12:25:00 22.7 C 56 % 13.47 C
439 28-06-2019 12:30:00 22.8 C 55 % 13.29 C
440 28-06-2019 12:35:00 23.1 C 54 % 13.29 C
441 28-06-2019 12:40:00 23.2 C 55 % 13.66 C
442 28-06-2019 12:45:00 23.2 C 54 % 13.38 C
443 28-06-2019 12:50:00 23.3 C 53 % 13.19 C
444 28-06-2019 12:55:00 23.6 C 51 % 12.88 C
445 28-06-2019 13:00:00 23.7 C 51 % 12.97 C
446 28-06-2019 13:05:00 23.8 C 51 % 13.06 C
447 28-06-2019 13:10:00 24.1 C 49 % 12.72 C
448 28-06-2019 13:15:00 24.2 C 49 % 12.81 C
449 28-06-2019 13:20:00 24.3 C 49 % 12.91 C
450 28-06-2019 13:25:00 24.6 C 48 % 12.87 C
Sensor: Nr:Datum:Temp:Feuchte:Taupunkt:
Aussen-T/F 451 28-06-2019 13:30:00 24.9 C 46 % 12.49 C
452 28-06-2019 13:35:00 25 C 45 % 12.25 C
453 28-06-2019 13:40:00 25.1 C 45 % 12.34 C
454 28-06-2019 13:45:00 25.2 C 46 % 12.76 C
455 28-06-2019 13:50:00 25.4 C 44 % 12.27 C
456 28-06-2019 13:55:00 25.7 C 44 % 12.54 C
457 28-06-2019 14:00:00 25.8 C 43 % 12.28 C
458 28-06-2019 14:05:00 25.7 C 43 % 12.19 C
459 28-06-2019 14:10:00 25.7 C 45 % 12.88 C
460 28-06-2019 14:15:00 25.9 C 44 % 12.72 C
461 28-06-2019 14:20:00 26.1 C 42 % 12.19 C
462 28-06-2019 14:25:00 26.2 C 44 % 12.99 C
463 28-06-2019 14:30:00 26.4 C 41 % 12.09 C
464 28-06-2019 14:35:00 26.6 C 43 % 13 C
465 28-06-2019 14:40:00 26.7 C 42 % 12.73 C
466 28-06-2019 14:45:00 26.9 C 40 % 12.16 C
467 28-06-2019 14:50:00 26.9 C 40 % 12.16 C
468 28-06-2019 14:55:00 26.9 C 41 % 12.54 C
469 28-06-2019 15:00:00 27.1 C 41 % 12.72 C
470 28-06-2019 15:05:00 27.3 C 44 % 13.98 C
471 28-06-2019 15:10:00 27.7 C 41 % 13.25 C
472 28-06-2019 15:15:00 27.8 C 37 % 11.78 C
473 28-06-2019 15:20:00 27.9 C 38 % 12.27 C
474 28-06-2019 15:25:00 28 C 39 % 12.76 C
475 28-06-2019 15:30:00 28.2 C 39 % 12.93 C
Sensor: Nr:Datum:Temp:Feuchte:Taupunkt:
Aussen-T/F 476 28-06-2019 15:35:00 28.4 C 37 % 12.31 C
477 28-06-2019 15:40:00 28.7 C 38 % 12.98 C
478 28-06-2019 15:45:00 28.9 C 37 % 12.75 C
479 28-06-2019 15:50:00 29.2 C 37 % 13.02 C
480 28-06-2019 15:55:00 29.5 C 35 % 12.43 C
481 28-06-2019 16:00:00 29.7 C 35 % 12.61 C
482 28-06-2019 16:05:00 29.9 C 34 % 12.34 C
483 28-06-2019 16:10:00 30.1 C 34 % 12.51 C
484 28-06-2019 16:15:00 30.1 C 33 % 12.06 C
485 28-06-2019 16:20:00 30.2 C 33 % 12.15 C
486 28-06-2019 16:25:00 30.3 C 34 % 12.69 C
487 28-06-2019 16:30:00 30.4 C 34 % 12.78 C
488 28-06-2019 16:35:00 30.4 C 34 % 12.78 C
489 28-06-2019 16:40:00 30.4 C 32 % 11.85 C
490 28-06-2019 16:45:00 30.3 C 34 % 12.69 C
491 28-06-2019 16:50:00 30.4 C 34 % 12.78 C
492 28-06-2019 16:55:00 30.8 C 32 % 12.2 C
493 28-06-2019 17:00:00 30.8 C 31 % 11.72 C
494 28-06-2019 17:05:00 30.6 C 33 % 12.5 C
495 28-06-2019 17:10:00 30.8 C 31 % 11.72 C
496 28-06-2019 17:15:00 31.1 C 32 % 12.46 C
497 28-06-2019 17:20:00 31.2 C 29 % 11.06 C
498 28-06-2019 17:25:00 31.1 C 30 % 11.48 C
499 28-06-2019 17:30:00 31.2 C 28 % 10.53 C
500 28-06-2019 17:35:00 31.2 C 29 % 11.06 C
Sensor: Nr:Datum:Temp:Feuchte:Taupunkt:
Aussen-T/F 501 28-06-2019 17:40:00 31.1 C 27 % 9.9 C
502 28-06-2019 17:45:00 31.3 C 29 % 11.14 C
503 28-06-2019 17:50:00 31.5 C 29 % 11.31 C
504 28-06-2019 17:55:00 31.7 C 29 % 11.48 C
505 28-06-2019 18:00:00 31.7 C 27 % 10.41 C
506 28-06-2019 18:05:00 31.6 C 28 % 10.87 C
507 28-06-2019 18:10:00 31.6 C 27 % 10.33 C
508 28-06-2019 18:15:00 31.7 C 27 % 10.41 C
509 28-06-2019 18:20:00 31.7 C 27 % 10.41 C
510 28-06-2019 18:25:00 31.7 C 28 % 10.96 C
511 28-06-2019 18:30:00 31.6 C 28 % 10.87 C
512 28-06-2019 18:35:00 31.6 C 29 % 11.4 C
513 28-06-2019 18:40:00 31.7 C 28 % 10.96 C
514 28-06-2019 18:45:00 31.7 C 29 % 11.48 C
515 28-06-2019 18:50:00 31.7 C 29 % 11.48 C
516 28-06-2019 18:55:00 31.7 C 29 % 11.48 C
517 28-06-2019 19:00:00 31.5 C 28 % 10.79 C
518 28-06-2019 19:05:00 31.3 C 29 % 11.14 C
519 28-06-2019 19:10:00 31.4 C 29 % 11.23 C
520 28-06-2019 19:15:00 31.6 C 30 % 11.91 C
521 28-06-2019 19:20:00 31.6 C 30 % 11.91 C
522 28-06-2019 19:25:00 31.6 C 30 % 11.91 C
523 28-06-2019 19:30:00 31.4 C 30 % 11.74 C
524 28-06-2019 19:35:00 31.2 C 30 % 11.57 C
525 28-06-2019 19:40:00 31 C 30 % 11.4 C
Sensor: Nr:Datum:Temp:Feuchte:Taupunkt:
Aussen-T/F 526 28-06-2019 19:45:00 30.9 C 31 % 11.81 C
527 28-06-2019 19:50:00 30.6 C 32 % 12.03 C
528 28-06-2019 19:55:00 30.3 C 32 % 11.77 C
529 28-06-2019 20:00:00 30.1 C 33 % 12.06 C
530 28-06-2019 20:05:00 29.8 C 33 % 11.8 C
531 28-06-2019 20:10:00 29.7 C 34 % 12.17 C
532 28-06-2019 20:15:00 29.6 C 34 % 12.08 C
533 28-06-2019 20:20:00 29.6 C 37 % 13.37 C
534 28-06-2019 20:25:00 29.6 C 40 % 14.57 C
535 28-06-2019 20:30:00 29.5 C 36 % 12.86 C
536 28-06-2019 20:35:00 29.4 C 38 % 13.6 C
537 28-06-2019 20:40:00 29.3 C 38 % 13.51 C
538 28-06-2019 20:45:00 29.3 C 41 % 14.68 C
539 28-06-2019 20:50:00 29.1 C 36 % 12.51 C
540 28-06-2019 20:55:00 28.9 C 42 % 14.7 C
541 28-06-2019 21:00:00 28.6 C 43 % 14.8 C
542 28-06-2019 21:05:00 28.1 C 45 % 15.05 C
543 28-06-2019 21:10:00 27.6 C 44 % 14.25 C
544 28-06-2019 21:15:00 26.9 C 45 % 13.96 C
545 28-06-2019 21:20:00 26.3 C 47 % 14.09 C
546 28-06-2019 21:25:00 25.7 C 49 % 14.19 C
547 28-06-2019 21:30:00 25.1 C 49 % 13.64 C
548 28-06-2019 21:35:00 24.6 C 50 % 13.49 C
549 28-06-2019 21:40:00 24.2 C 51 % 13.43 C
550 28-06-2019 21:45:00 23.8 C 51 % 13.06 C
Sensor: Nr:Datum:Temp:Feuchte:Taupunkt:
Aussen-T/F 551 28-06-2019 21:50:00 23.4 C 52 % 12.99 C
552 28-06-2019 21:55:00 23.1 C 52 % 12.71 C
553 28-06-2019 22:00:00 22.8 C 52 % 12.43 C
554 28-06-2019 22:05:00 22.6 C 51 % 11.96 C
555 28-06-2019 22:10:00 22.4 C 51 % 11.77 C
556 28-06-2019 22:15:00 22.2 C 52 % 11.88 C
557 28-06-2019 22:20:00 21.9 C 52 % 11.61 C
558 28-06-2019 22:25:00 21.8 C 54 % 12.08 C
559 28-06-2019 22:30:00 21.5 C 55 % 12.08 C
560 28-06-2019 22:35:00 21.3 C 55 % 11.9 C
561 28-06-2019 22:40:00 21 C 57 % 12.16 C
562 28-06-2019 22:45:00 20.7 C 58 % 12.15 C
563 28-06-2019 22:50:00 20.5 C 59 % 12.22 C
564 28-06-2019 22:55:00 20.3 C 60 % 12.29 C
565 28-06-2019 23:00:00 20.2 C 61 % 12.44 C
566 28-06-2019 23:05:00 19.9 C 61 % 12.16 C
567 28-06-2019 23:10:00 19.7 C 62 % 12.22 C
568 28-06-2019 23:15:00 19.6 C 62 % 12.13 C
569 28-06-2019 23:20:00 19.4 C 63 % 12.18 C
570 28-06-2019 23:25:00 19.3 C 64 % 12.32 C
571 28-06-2019 23:30:00 19.1 C 64 % 12.14 C
572 28-06-2019 23:35:00 19 C 65 % 12.28 C
573 28-06-2019 23:40:00 18.9 C 65 % 12.18 C
574 28-06-2019 23:45:00 18.8 C 65 % 12.09 C
575 28-06-2019 23:50:00 18.7 C 66 % 12.22 C
Sensor: Nr:Datum:Temp:Feuchte:Taupunkt:
Aussen-T/F 576 28-06-2019 23:55:00 18.7 C 66 % 12.22 C
577 29-06-2019 00:00:00 18.7 C 66 % 12.22 C
578 29-06-2019 00:05:00 18.6 C 65 % 11.9 C
579 29-06-2019 00:10:00 18.6 C 65 % 11.9 C
580 29-06-2019 00:15:00 18.6 C 65 % 11.9 C
581 29-06-2019 00:20:00 18.5 C 66 % 12.03 C
582 29-06-2019 00:25:00 18.4 C 66 % 11.94 C
583 29-06-2019 00:30:00 18.4 C 66 % 11.94 C
584 29-06-2019 00:35:00 18.3 C 66 % 11.84 C
585 29-06-2019 00:40:00 18.3 C 66 % 11.84 C
586 29-06-2019 00:45:00 18.2 C 66 % 11.75 C
587 29-06-2019 00:50:00 18.2 C 67 % 11.98 C
588 29-06-2019 00:55:00 18.1 C 67 % 11.88 C
589 29-06-2019 01:00:00 18.1 C 67 % 11.88 C
590 29-06-2019 01:05:00 18 C 67 % 11.79 C
591 29-06-2019 01:10:00 17.9 C 68 % 11.91 C
592 29-06-2019 01:15:00 17.9 C 68 % 11.91 C
593 29-06-2019 01:20:00 17.9 C 68 % 11.91 C
594 29-06-2019 01:25:00 17.8 C 69 % 12.04 C
595 29-06-2019 01:30:00 17.8 C 69 % 12.04 C
596 29-06-2019 01:35:00 17.8 C 68 % 11.82 C
597 29-06-2019 01:40:00 17.8 C 68 % 11.82 C
598 29-06-2019 01:45:00 17.7 C 68 % 11.72 C
599 29-06-2019 01:50:00 17.7 C 68 % 11.72 C
600 29-06-2019 01:55:00 17.6 C 69 % 11.85 C
Sensor: Nr:Datum:Temp:Feuchte:Taupunkt:
Aussen-T/F 601 29-06-2019 02:00:00 17.6 C 69 % 11.85 C
602 29-06-2019 02:05:00 17.4 C 69 % 11.66 C
603 29-06-2019 02:10:00 17.3 C 69 % 11.56 C
604 29-06-2019 02:15:00 17.3 C 70 % 11.78 C
605 29-06-2019 02:20:00 17.2 C 71 % 11.9 C
606 29-06-2019 02:25:00 17.1 C 71 % 11.8 C
607 29-06-2019 02:30:00 17 C 71 % 11.71 C
608 29-06-2019 02:35:00 16.9 C 71 % 11.61 C
609 29-06-2019 02:40:00 16.9 C 72 % 11.82 C
610 29-06-2019 02:45:00 16.8 C 72 % 11.73 C
611 29-06-2019 02:50:00 16.8 C 73 % 11.94 C
612 29-06-2019 02:55:00 16.8 C 73 % 11.94 C
613 29-06-2019 03:00:00 16.7 C 73 % 11.84 C
614 29-06-2019 03:05:00 16.7 C 73 % 11.84 C
615 29-06-2019 03:10:00 16.6 C 74 % 11.95 C
616 29-06-2019 03:15:00 16.6 C 74 % 11.95 C
617 29-06-2019 03:20:00 16.5 C 74 % 11.85 C
618 29-06-2019 03:25:00 16.4 C 74 % 11.76 C
619 29-06-2019 03:30:00 16.4 C 74 % 11.76 C
620 29-06-2019 03:35:00 16.3 C 75 % 11.86 C
621 29-06-2019 03:40:00 16.3 C 75 % 11.86 C
622 29-06-2019 03:45:00 16.2 C 75 % 11.77 C
623 29-06-2019 03:50:00 16.1 C 75 % 11.67 C
624 29-06-2019 03:55:00 15.9 C 76 % 11.68 C
625 29-06-2019 04:00:00 15.8 C 76 % 11.58 C
Sensor: Nr:Datum:Temp:Feuchte:Taupunkt:
Aussen-T/F 626 29-06-2019 04:05:00 15.7 C 77 % 11.68 C
627 29-06-2019 04:10:00 15.6 C 77 % 11.59 C
628 29-06-2019 04:15:00 15.4 C 78 % 11.59 C
629 29-06-2019 04:20:00 15.3 C 78 % 11.49 C
630 29-06-2019 04:25:00 15.2 C 78 % 11.39 C
631 29-06-2019 04:30:00 15.1 C 79 % 11.49 C
632 29-06-2019 04:35:00 15 C 79 % 11.39 C
633 29-06-2019 04:40:00 14.9 C 80 % 11.48 C
634 29-06-2019 04:45:00 14.8 C 80 % 11.39 C
635 29-06-2019 04:50:00 14.7 C 80 % 11.29 C
636 29-06-2019 04:55:00 14.6 C 81 % 11.38 C
637 29-06-2019 05:00:00 14.5 C 81 % 11.28 C
638 29-06-2019 05:05:00 14.4 C 81 % 11.18 C
639 29-06-2019 05:10:00 14.3 C 82 % 11.27 C
640 29-06-2019 05:15:00 14.3 C 82 % 11.27 C
641 29-06-2019 05:20:00 14.2 C 82 % 11.17 C
642 29-06-2019 05:25:00 14.1 C 83 % 11.26 C
643 29-06-2019 05:30:00 14 C 83 % 11.16 C
644 29-06-2019 05:35:00 13.9 C 83 % 11.06 C
645 29-06-2019 05:40:00 13.9 C 84 % 11.24 C
646 29-06-2019 05:45:00 13.9 C 84 % 11.24 C
647 29-06-2019 05:50:00 13.8 C 84 % 11.15 C
648 29-06-2019 05:55:00 13.8 C 84 % 11.15 C
649 29-06-2019 06:00:00 13.8 C 84 % 11.15 C
650 29-06-2019 06:05:00 13.7 C 84 % 11.05 C
Sensor: Nr:Datum:Temp:Feuchte:Taupunkt:
Aussen-T/F 651 29-06-2019 06:10:00 13.7 C 84 % 11.05 C
652 29-06-2019 06:15:00 13.7 C 85 % 11.23 C
653 29-06-2019 06:20:00 13.7 C 86 % 11.4 C
654 29-06-2019 06:25:00 13.7 C 86 % 11.4 C
655 29-06-2019 06:30:00 13.7 C 86 % 11.4 C
656 29-06-2019 06:35:00 13.7 C 86 % 11.4 C
657 29-06-2019 06:40:00 13.7 C 86 % 11.4 C
658 29-06-2019 06:45:00 13.7 C 86 % 11.4 C
659 29-06-2019 06:50:00 13.7 C 86 % 11.4 C
660 29-06-2019 06:55:00 13.7 C 87 % 11.58 C
661 29-06-2019 07:00:00 13.8 C 87 % 11.68 C
662 29-06-2019 07:05:00 13.8 C 87 % 11.68 C
663 29-06-2019 07:10:00 13.8 C 87 % 11.68 C
664 29-06-2019 07:15:00 13.9 C 87 % 11.77 C
665 29-06-2019 07:20:00 13.9 C 88 % 11.95 C
666 29-06-2019 07:25:00 14.1 C 88 % 12.14 C
667 29-06-2019 07:30:00 14.1 C 88 % 12.14 C
668 29-06-2019 07:35:00 14.2 C 88 % 12.24 C
669 29-06-2019 07:40:00 14.3 C 88 % 12.34 C
670 29-06-2019 07:45:00 14.3 C 88 % 12.34 C
671 29-06-2019 07:50:00 14.3 C 88 % 12.34 C
672 29-06-2019 07:55:00 14.4 C 88 % 12.44 C
673 29-06-2019 08:00:00 14.5 C 88 % 12.54 C
674 29-06-2019 08:05:00 14.6 C 87 % 12.46 C
675 29-06-2019 08:10:00 14.7 C 88 % 12.73 C
Sensor: Nr:Datum:Temp:Feuchte:Taupunkt:
Aussen-T/F 676 29-06-2019 08:15:00 14.8 C 88 % 12.83 C
677 29-06-2019 08:20:00 14.9 C 88 % 12.93 C
678 29-06-2019 08:25:00 15.1 C 87 % 12.95 C
679 29-06-2019 08:30:00 15.3 C 87 % 13.15 C
680 29-06-2019 08:35:00 15.5 C 87 % 13.35 C
681 29-06-2019 08:40:00 15.7 C 87 % 13.54 C
682 29-06-2019 08:45:00 15.8 C 86 % 13.46 C
683 29-06-2019 08:50:00 16 C 85 % 13.48 C
684 29-06-2019 08:55:00 16.3 C 85 % 13.77 C
685 29-06-2019 09:00:00 16.5 C 84 % 13.79 C
686 29-06-2019 09:05:00 16.7 C 83 % 13.8 C
687 29-06-2019 09:10:00 17.2 C 80 % 13.72 C
688 29-06-2019 09:15:00 17.7 C 77 % 13.62 C
689 29-06-2019 09:20:00 18.7 C 73 % 13.76 C
690 29-06-2019 09:25:00 19.3 C 72 % 14.13 C
691 29-06-2019 09:30:00 19.6 C 69 % 13.76 C
692 29-06-2019 09:35:00 20.1 C 68 % 14.01 C
693 29-06-2019 09:40:00 20.7 C 65 % 13.89 C
694 29-06-2019 09:45:00 21 C 64 % 13.93 C
695 29-06-2019 09:50:00 21.3 C 63 % 13.97 C
696 29-06-2019 09:55:00 21.6 C 60 % 13.51 C
697 29-06-2019 10:00:00 21.9 C 60 % 13.79 C
698 29-06-2019 10:05:00 22.2 C 59 % 13.81 C
699 29-06-2019 10:10:00 22.4 C 58 % 13.73 C
700 29-06-2019 10:15:00 22.8 C 58 % 14.11 C
Sensor: Nr:Datum:Temp:Feuchte:Taupunkt:
Aussen-T/F 701 29-06-2019 10:20:00 23.1 C 55 % 13.57 C
702 29-06-2019 10:25:00 23.4 C 54 % 13.57 C
703 29-06-2019 10:30:00 23.7 C 54 % 13.84 C
704 29-06-2019 10:35:00 23.9 C 54 % 14.03 C
705 29-06-2019 10:40:00 24.2 C 52 % 13.73 C
706 29-06-2019 10:45:00 24.6 C 55 % 14.96 C
707 29-06-2019 10:50:00 24.8 C 52 % 14.28 C
708 29-06-2019 10:55:00 24.9 C 50 % 13.77 C
709 29-06-2019 11:00:00 24.9 C 50 % 13.77 C
710 29-06-2019 11:05:00 25.1 C 49 % 13.64 C
711 29-06-2019 11:10:00 25.3 C 50 % 14.13 C
712 29-06-2019 11:15:00 25.4 C 48 % 13.6 C
713 29-06-2019 11:20:00 25.7 C 49 % 14.19 C
714 29-06-2019 11:25:00 25.8 C 48 % 13.96 C
715 29-06-2019 11:30:00 25.9 C 47 % 13.73 C
716 29-06-2019 11:35:00 26 C 47 % 13.82 C
717 29-06-2019 11:40:00 26.2 C 47 % 14 C
718 29-06-2019 11:45:00 26.3 C 47 % 14.09 C
719 29-06-2019 11:50:00 26.3 C 47 % 14.09 C
720 29-06-2019 11:55:00 26.4 C 47 % 14.18 C
721 29-06-2019 12:00:00 26.5 C 47 % 14.27 C
722 29-06-2019 12:05:00 26.6 C 46 % 14.03 C
723 29-06-2019 12:10:00 26.8 C 46 % 14.21 C
724 29-06-2019 12:15:00 26.9 C 46 % 14.3 C
725 29-06-2019 12:20:00 27.1 C 46 % 14.49 C
Sensor: Nr:Datum:Temp:Feuchte:Taupunkt:
Aussen-T/F 726 29-06-2019 12:25:00 27.4 C 45 % 14.42 C
727 29-06-2019 12:30:00 27.6 C 44 % 14.25 C
728 29-06-2019 12:35:00 27.7 C 44 % 14.34 C
729 29-06-2019 12:40:00 27.9 C 44 % 14.52 C
730 29-06-2019 12:45:00 28.1 C 42 % 13.98 C
731 29-06-2019 12:50:00 28.2 C 43 % 14.44 C
732 29-06-2019 12:55:00 28.2 C 42 % 14.07 C
733 29-06-2019 13:00:00 28.3 C 41 % 13.79 C
734 29-06-2019 13:05:00 28.4 C 41 % 13.88 C
735 29-06-2019 13:10:00 28.6 C 40 % 13.68 C
736 29-06-2019 13:15:00 28.7 C 37 % 12.57 C
737 29-06-2019 13:20:00 28.8 C 38 % 13.07 C
738 29-06-2019 13:25:00 29.2 C 34 % 11.73 C
739 29-06-2019 13:30:00 29.3 C 33 % 11.37 C
740 29-06-2019 13:35:00 29.5 C 33 % 11.54 C
741 29-06-2019 13:40:00 29.6 C 33 % 11.63 C
742 29-06-2019 13:45:00 29.6 C 32 % 11.16 C
743 29-06-2019 13:50:00 29.6 C 32 % 11.16 C
744 29-06-2019 13:55:00 29.8 C 31 % 10.86 C
745 29-06-2019 14:00:00 30.1 C 30 % 10.62 C
746 29-06-2019 14:05:00 30.1 C 32 % 11.59 C
747 29-06-2019 14:10:00 30.1 C 31 % 11.12 C
748 29-06-2019 14:15:00 30.3 C 32 % 11.77 C
749 29-06-2019 14:20:00 30.3 C 31 % 11.29 C
750 29-06-2019 14:25:00 30.4 C 30 % 10.88 C
Sensor: Nr:Datum:Temp:Feuchte:Taupunkt:
Aussen-T/F 751 29-06-2019 14:30:00 30.4 C 32 % 11.85 C
752 29-06-2019 14:35:00 30.6 C 32 % 12.03 C
753 29-06-2019 14:40:00 30.8 C 30 % 11.22 C
754 29-06-2019 14:45:00 31.1 C 29 % 10.97 C
755 29-06-2019 14:50:00 31.3 C 29 % 11.14 C
756 29-06-2019 14:55:00 31.5 C 28 % 10.79 C
757 29-06-2019 15:00:00 31.6 C 28 % 10.87 C
758 29-06-2019 15:05:00 31.7 C 27 % 10.41 C
759 29-06-2019 15:10:00 31.7 C 27 % 10.41 C
760 29-06-2019 15:15:00 31.9 C 27 % 10.58 C
761 29-06-2019 15:20:00 32.2 C 27 % 10.83 C
762 29-06-2019 15:25:00 32.3 C 27 % 10.92 C
763 29-06-2019 15:30:00 32.5 C 27 % 11.09 C
764 29-06-2019 15:35:00 33 C 28 % 12.06 C
765 29-06-2019 15:40:00 33.4 C 26 % 11.28 C
766 29-06-2019 15:45:00 33.7 C 26 % 11.53 C
767 29-06-2019 15:50:00 33.8 C 24 % 10.41 C
768 29-06-2019 15:55:00 33.8 C 24 % 10.41 C
769 29-06-2019 16:00:00 33.9 C 23 % 9.86 C
770 29-06-2019 16:05:00 34.1 C 24 % 10.66 C
771 29-06-2019 16:10:00 33.8 C 25 % 11.03 C
772 29-06-2019 16:15:00 34 C 23 % 9.94 C
773 29-06-2019 16:20:00 34.1 C 23 % 10.03 C
774 29-06-2019 16:25:00 34.3 C 24 % 10.83 C
775 29-06-2019 16:30:00 34.4 C 23 % 10.28 C
Sensor: Nr:Datum:Temp:Feuchte:Taupunkt:
Aussen-T/F 776 29-06-2019 16:35:00 34.5 C 24 % 11 C
777 29-06-2019 16:40:00 34.4 C 23 % 10.28 C
778 29-06-2019 16:45:00 34.4 C 24 % 10.91 C
779 29-06-2019 16:50:00 34.6 C 22 % 9.78 C
780 29-06-2019 16:55:00 34.4 C 24 % 10.91 C
781 29-06-2019 17:00:00 34.7 C 23 % 10.53 C
782 29-06-2019 17:05:00 34.5 C 21 % 9.01 C
783 29-06-2019 17:10:00 34.7 C 23 % 10.53 C
784 29-06-2019 17:15:00 34.9 C 23 % 10.69 C
785 29-06-2019 17:20:00 35.2 C 22 % 10.27 C
786 29-06-2019 17:25:00 35.4 C 23 % 11.11 C
787 29-06-2019 17:30:00 35.7 C 23 % 11.36 C
788 29-06-2019 17:35:00 35.8 C 22 % 10.77 C
789 29-06-2019 17:40:00 35.8 C 21 % 10.07 C
790 29-06-2019 17:45:00 35.7 C 22 % 10.69 C
791 29-06-2019 17:50:00 35.7 C 21 % 9.99 C
792 29-06-2019 17:55:00 35.8 C 23 % 11.44 C
793 29-06-2019 18:00:00 35.8 C 23 % 11.44 C
794 29-06-2019 18:05:00 36 C 21 % 10.24 C
795 29-06-2019 18:10:00 36.3 C 22 % 11.18 C
796 29-06-2019 18:15:00 36 C 21 % 10.24 C
797 29-06-2019 18:20:00 35.6 C 22 % 10.6 C
798 29-06-2019 18:25:00 35.4 C 23 % 11.11 C
799 29-06-2019 18:30:00 35.3 C 22 % 10.36 C
800 29-06-2019 18:35:00 35.2 C 22 % 10.27 C
Sensor: Nr:Datum:Temp:Feuchte:Taupunkt:
Aussen-T/F 801 29-06-2019 18:40:00 35.3 C 24 % 11.67 C
802 29-06-2019 18:45:00 35.4 C 22 % 10.44 C
803 29-06-2019 18:50:00 35.6 C 24 % 11.92 C
804 29-06-2019 18:55:00 35.8 C 25 % 12.7 C
805 29-06-2019 19:00:00 36 C 22 % 10.93 C
806 29-06-2019 19:05:00 36.1 C 22 % 11.02 C
807 29-06-2019 19:10:00 36 C 22 % 10.93 C
808 29-06-2019 19:15:00 35.9 C 22 % 10.85 C
809 29-06-2019 19:20:00 35.8 C 22 % 10.77 C
810 29-06-2019 19:25:00 35.4 C 23 % 11.11 C
811 29-06-2019 19:30:00 35 C 24 % 11.42 C
812 29-06-2019 19:35:00 34.8 C 24 % 11.25 C
813 29-06-2019 19:40:00 34.8 C 25 % 11.87 C
814 29-06-2019 19:45:00 34.7 C 25 % 11.78 C
815 29-06-2019 19:50:00 34.5 C 25 % 11.61 C
816 29-06-2019 19:55:00 34.2 C 25 % 11.36 C
817 29-06-2019 20:00:00 33.8 C 30 % 13.8 C
818 29-06-2019 20:05:00 33.7 C 30 % 13.71 C
819 29-06-2019 20:10:00 33.7 C 31 % 14.22 C
820 29-06-2019 20:15:00 33.6 C 32 % 14.62 C
821 29-06-2019 20:20:00 33.4 C 32 % 14.45 C
822 29-06-2019 20:25:00 33.1 C 39 % 17.28 C
823 29-06-2019 20:30:00 32.6 C 35 % 15.15 C
824 29-06-2019 20:35:00 31.9 C 35 % 14.53 C
825 29-06-2019 20:40:00 31.4 C 36 % 14.53 C
Sensor: Nr:Datum:Temp:Feuchte:Taupunkt:
Aussen-T/F 826 29-06-2019 20:45:00 31 C 35 % 13.75 C
827 29-06-2019 20:50:00 30.6 C 36 % 13.83 C
828 29-06-2019 20:55:00 30.3 C 38 % 14.4 C
829 29-06-2019 21:00:00 29.9 C 38 % 14.04 C
830 29-06-2019 21:05:00 29.5 C 38 % 13.69 C
831 29-06-2019 21:10:00 29.1 C 38 % 13.34 C
832 29-06-2019 21:15:00 28.7 C 39 % 13.38 C
833 29-06-2019 21:20:00 28.2 C 40 % 13.32 C
834 29-06-2019 21:25:00 27.7 C 40 % 12.88 C
835 29-06-2019 21:30:00 27.3 C 41 % 12.9 C
836 29-06-2019 21:35:00 26.8 C 41 % 12.45 C
837 29-06-2019 21:40:00 26.4 C 41 % 12.09 C
838 29-06-2019 21:45:00 26.2 C 41 % 11.91 C
839 29-06-2019 21:50:00 25.9 C 42 % 12.01 C
840 29-06-2019 21:55:00 25.6 C 42 % 11.74 C
841 29-06-2019 22:00:00 25.3 C 43 % 11.83 C
842 29-06-2019 22:05:00 25.1 C 42 % 11.29 C
843 29-06-2019 22:10:00 24.8 C 43 % 11.38 C
844 29-06-2019 22:15:00 24.7 C 44 % 11.63 C
845 29-06-2019 22:20:00 24.4 C 43 % 11.02 C
846 29-06-2019 22:25:00 24.3 C 44 % 11.27 C
847 29-06-2019 22:30:00 24.1 C 44 % 11.09 C
848 29-06-2019 22:35:00 24 C 46 % 11.67 C
849 29-06-2019 22:40:00 23.8 C 47 % 11.82 C
850 29-06-2019 22:45:00 23.7 C 48 % 12.04 C
Sensor: Nr:Datum:Temp:Feuchte:Taupunkt:
Aussen-T/F 851 29-06-2019 22:50:00 23.4 C 50 % 12.39 C
852 29-06-2019 22:55:00 23.1 C 51 % 12.42 C
853 29-06-2019 23:00:00 22.7 C 52 % 12.34 C
854 29-06-2019 23:05:00 22.4 C 54 % 12.64 C
855 29-06-2019 23:10:00 22.1 C 54 % 12.36 C
856 29-06-2019 23:15:00 21.8 C 55 % 12.36 C
857 29-06-2019 23:20:00 21.6 C 57 % 12.72 C
858 29-06-2019 23:25:00 21.3 C 57 % 12.44 C
859 29-06-2019 23:30:00 21.1 C 59 % 12.78 C
860 29-06-2019 23:35:00 20.7 C 59 % 12.41 C
861 29-06-2019 23:40:00 20.5 C 60 % 12.47 C
862 29-06-2019 23:45:00 20.3 C 61 % 12.54 C
863 29-06-2019 23:50:00 20.2 C 60 % 12.19 C
864 29-06-2019 23:55:00 20.1 C 61 % 12.35 C
865 30-06-2019 00:00:00 20 C 62 % 12.5 C
866 30-06-2019 00:05:00 19.8 C 63 % 12.56 C
867 30-06-2019 00:10:00 19.6 C 63 % 12.37 C
868 30-06-2019 00:15:00 19.3 C 64 % 12.32 C
869 30-06-2019 00:20:00 19.2 C 65 % 12.47 C
870 30-06-2019 00:25:00 18.9 C 66 % 12.41 C
871 30-06-2019 00:30:00 18.8 C 67 % 12.55 C
872 30-06-2019 00:35:00 18.6 C 67 % 12.36 C
873 30-06-2019 00:40:00 18.4 C 68 % 12.39 C
874 30-06-2019 00:45:00 18.3 C 68 % 12.3 C
875 30-06-2019 00:50:00 18.2 C 68 % 12.2 C
Sensor: Nr:Datum:Temp:Feuchte:Taupunkt:
Aussen-T/F 876 30-06-2019 00:55:00 18.1 C 69 % 12.33 C
877 30-06-2019 01:00:00 18 C 69 % 12.23 C
878 30-06-2019 01:05:00 18 C 70 % 12.45 C
879 30-06-2019 01:10:00 17.9 C 71 % 12.57 C
880 30-06-2019 01:15:00 17.8 C 72 % 12.69 C
881 30-06-2019 01:20:00 17.7 C 72 % 12.59 C
882 30-06-2019 01:25:00 17.6 C 73 % 12.71 C
883 30-06-2019 01:30:00 17.4 C 73 % 12.51 C
884 30-06-2019 01:35:00 17.3 C 73 % 12.42 C
885 30-06-2019 01:40:00 17.2 C 73 % 12.32 C
886 30-06-2019 01:45:00 17.2 C 73 % 12.32 C
887 30-06-2019 01:50:00 17.1 C 73 % 12.23 C
888 30-06-2019 01:55:00 17.1 C 74 % 12.43 C
889 30-06-2019 02:00:00 17 C 74 % 12.34 C
890 30-06-2019 02:05:00 16.9 C 74 % 12.24 C
891 30-06-2019 02:10:00 16.9 C 74 % 12.24 C
892 30-06-2019 02:15:00 16.9 C 75 % 12.44 C
893 30-06-2019 02:20:00 16.9 C 75 % 12.44 C
894 30-06-2019 02:25:00 16.8 C 75 % 12.35 C
895 30-06-2019 02:30:00 16.7 C 76 % 12.45 C
896 30-06-2019 02:35:00 16.7 C 76 % 12.45 C
897 30-06-2019 02:40:00 16.6 C 77 % 12.55 C
898 30-06-2019 02:45:00 16.6 C 77 % 12.55 C
899 30-06-2019 02:50:00 16.5 C 77 % 12.46 C
900 30-06-2019 02:55:00 16.5 C 77 % 12.46 C
Sensor: Nr:Datum:Temp:Feuchte:Taupunkt:
Aussen-T/F 901 30-06-2019 03:00:00 16.4 C 78 % 12.56 C
902 30-06-2019 03:05:00 16.3 C 78 % 12.46 C
903 30-06-2019 03:10:00 16.3 C 78 % 12.46 C
904 30-06-2019 03:15:00 16.2 C 78 % 12.36 C
905 30-06-2019 03:20:00 16.2 C 78 % 12.36 C
906 30-06-2019 03:25:00 16.2 C 79 % 12.56 C
907 30-06-2019 03:30:00 16.1 C 79 % 12.46 C
908 30-06-2019 03:35:00 16.1 C 79 % 12.46 C
909 30-06-2019 03:40:00 16 C 79 % 12.36 C
910 30-06-2019 03:45:00 15.9 C 79 % 12.27 C
911 30-06-2019 03:50:00 15.8 C 80 % 12.36 C
912 30-06-2019 03:55:00 15.8 C 80 % 12.36 C
913 30-06-2019 04:00:00 15.8 C 80 % 12.36 C
914 30-06-2019 04:05:00 15.8 C 80 % 12.36 C
915 30-06-2019 04:10:00 15.7 C 80 % 12.26 C
916 30-06-2019 04:15:00 15.7 C 81 % 12.45 C
917 30-06-2019 04:20:00 15.7 C 82 % 12.64 C
918 30-06-2019 04:25:00 15.7 C 82 % 12.64 C
919 30-06-2019 04:30:00 15.6 C 81 % 12.35 C
920 30-06-2019 04:35:00 15.5 C 82 % 12.44 C
921 30-06-2019 04:40:00 15.4 C 82 % 12.35 C
922 30-06-2019 04:45:00 15.4 C 82 % 12.35 C
923 30-06-2019 04:50:00 15.4 C 82 % 12.35 C
924 30-06-2019 04:55:00 15.3 C 82 % 12.25 C
925 30-06-2019 05:00:00 15.3 C 82 % 12.25 C
Sensor: Nr:Datum:Temp:Feuchte:Taupunkt:
Aussen-T/F 926 30-06-2019 05:05:00 15.2 C 82 % 12.15 C
927 30-06-2019 05:10:00 15.2 C 83 % 12.33 C
928 30-06-2019 05:15:00 15.1 C 83 % 12.24 C
929 30-06-2019 05:20:00 15.1 C 83 % 12.24 C
930 30-06-2019 05:25:00 15.1 C 84 % 12.42 C
931 30-06-2019 05:30:00 15.1 C 84 % 12.42 C
932 30-06-2019 05:35:00 15 C 84 % 12.32 C
933 30-06-2019 05:40:00 15 C 84 % 12.32 C
934 30-06-2019 05:45:00 14.9 C 84 % 12.22 C
935 30-06-2019 05:50:00 14.8 C 85 % 12.3 C
936 30-06-2019 05:55:00 14.8 C 85 % 12.3 C
937 30-06-2019 06:00:00 14.8 C 86 % 12.48 C
938 30-06-2019 06:05:00 14.8 C 86 % 12.48 C
939 30-06-2019 06:10:00 14.8 C 86 % 12.48 C
940 30-06-2019 06:15:00 14.8 C 86 % 12.48 C
941 30-06-2019 06:20:00 14.8 C 86 % 12.48 C
942 30-06-2019 06:25:00 14.8 C 86 % 12.48 C
943 30-06-2019 06:30:00 14.8 C 87 % 12.66 C
944 30-06-2019 06:35:00 14.9 C 87 % 12.76 C
945 30-06-2019 06:40:00 14.9 C 87 % 12.76 C
946 30-06-2019 06:45:00 14.9 C 87 % 12.76 C
947 30-06-2019 06:50:00 14.9 C 87 % 12.76 C
948 30-06-2019 06:55:00 15 C 87 % 12.86 C
949 30-06-2019 07:00:00 15 C 87 % 12.86 C
950 30-06-2019 07:05:00 15.1 C 87 % 12.95 C
Sensor: Nr:Datum:Temp:Feuchte:Taupunkt:
Aussen-T/F 951 30-06-2019 07:10:00 15.1 C 88 % 13.13 C
952 30-06-2019 07:15:00 15.2 C 88 % 13.23 C
953 30-06-2019 07:20:00 15.3 C 88 % 13.33 C
954 30-06-2019 07:25:00 15.4 C 88 % 13.42 C
955 30-06-2019 07:30:00 15.5 C 88 % 13.52 C
956 30-06-2019 07:35:00 15.6 C 88 % 13.62 C
957 30-06-2019 07:40:00 15.7 C 88 % 13.72 C
958 30-06-2019 07:45:00 15.7 C 88 % 13.72 C
959 30-06-2019 07:50:00 15.8 C 88 % 13.82 C
960 30-06-2019 07:55:00 15.9 C 88 % 13.92 C
961 30-06-2019 08:00:00 16.1 C 88 % 14.11 C
962 30-06-2019 08:05:00 16.3 C 88 % 14.31 C
963 30-06-2019 08:10:00 16.4 C 87 % 14.23 C
964 30-06-2019 08:15:00 16.6 C 87 % 14.43 C
965 30-06-2019 08:20:00 16.7 C 87 % 14.53 C
966 30-06-2019 08:25:00 16.8 C 86 % 14.45 C
967 30-06-2019 08:30:00 17.1 C 87 % 14.92 C
968 30-06-2019 08:35:00 17.2 C 86 % 14.84 C
969 30-06-2019 08:40:00 17.4 C 86 % 15.03 C
970 30-06-2019 08:45:00 17.7 C 85 % 15.15 C
971 30-06-2019 08:50:00 17.9 C 85 % 15.34 C
972 30-06-2019 08:55:00 18.1 C 85 % 15.54 C
973 30-06-2019 09:00:00 18.3 C 85 % 15.74 C
974 30-06-2019 09:05:00 18.4 C 85 % 15.83 C
975 30-06-2019 09:10:00 18.7 C 84 % 15.94 C
Sensor: Nr:Datum:Temp:Feuchte:Taupunkt:
Aussen-T/F 976 30-06-2019 09:15:00 18.9 C 84 % 16.14 C
977 30-06-2019 09:20:00 19.1 C 84 % 16.33 C
978 30-06-2019 09:25:00 19.3 C 83 % 16.34 C
979 30-06-2019 09:30:00 19.6 C 82 % 16.44 C
980 30-06-2019 09:35:00 19.9 C 80 % 16.35 C
981 30-06-2019 09:40:00 20.3 C 79 % 16.54 C
982 30-06-2019 09:45:00 20.7 C 78 % 16.73 C
983 30-06-2019 09:50:00 21.2 C 78 % 17.21 C
984 30-06-2019 09:55:00 21.5 C 77 % 17.3 C
985 30-06-2019 10:00:00 21.9 C 75 % 17.27 C
986 30-06-2019 10:05:00 22.3 C 74 % 17.44 C
987 30-06-2019 10:10:00 22.7 C 73 % 17.61 C
988 30-06-2019 10:15:00 23.1 C 75 % 18.43 C
989 30-06-2019 10:20:00 23.5 C 73 % 18.38 C
990 30-06-2019 10:25:00 24.3 C 68 % 18.01 C
991 30-06-2019 10:30:00 25.3 C 65 % 18.25 C
992 30-06-2019 10:35:00 26.2 C 62 % 18.34 C
993 30-06-2019 10:40:00 27.4 C 58 % 18.4 C
994 30-06-2019 10:45:00 28.1 C 54 % 17.92 C
995 30-06-2019 10:50:00 28.7 C 51 % 17.56 C
996 30-06-2019 10:55:00 29.2 C 49 % 17.39 C
997 30-06-2019 11:00:00 29.5 C 49 % 17.66 C
998 30-06-2019 11:05:00 29.7 C 48 % 17.51 C
999 30-06-2019 11:10:00 29.8 C 49 % 17.93 C
1000 30-06-2019 11:15:00 30.1 C 46 % 17.2 C
Sensor: Nr:Datum:Temp:Feuchte:Taupunkt:
Aussen-T/F 1001 30-06-2019 11:20:00 30.3 C 46 % 17.39 C
1002 30-06-2019 11:25:00 30.6 C 45 % 17.31 C
1003 30-06-2019 11:30:00 30.8 C 44 % 17.13 C
1004 30-06-2019 11:35:00 31 C 44 % 17.31 C
1005 30-06-2019 11:40:00 31.1 C 43 % 17.04 C
1006 30-06-2019 11:45:00 31.2 C 44 % 17.49 C
1007 30-06-2019 11:50:00 31.4 C 43 % 17.31 C
1008 30-06-2019 11:55:00 31.6 C 42 % 17.12 C
1009 30-06-2019 12:00:00 31.7 C 43 % 17.58 C
1010 30-06-2019 12:05:00 31.8 C 42 % 17.3 C
1011 30-06-2019 12:10:00 31.9 C 42 % 17.39 C
1012 30-06-2019 12:15:00 32.1 C 40 % 16.79 C
1013 30-06-2019 12:20:00 32.2 C 41 % 17.27 C
1014 30-06-2019 12:25:00 32.3 C 41 % 17.36 C
1015 30-06-2019 12:30:00 32.4 C 39 % 16.66 C
1016 30-06-2019 12:35:00 32.7 C 39 % 16.93 C
1017 30-06-2019 12:40:00 32.9 C 39 % 17.11 C
1018 30-06-2019 12:45:00 33.1 C 39 % 17.28 C
1019 30-06-2019 12:50:00 33.3 C 38 % 17.05 C
1020 30-06-2019 12:55:00 33.4 C 37 % 16.72 C
1021 30-06-2019 13:00:00 33.8 C 36 % 16.64 C
1022 30-06-2019 13:05:00 33.9 C 38 % 17.58 C
1023 30-06-2019 13:10:00 34 C 37 % 17.25 C
1024 30-06-2019 13:15:00 34.1 C 35 % 16.46 C
1025 30-06-2019 13:20:00 34.3 C 35 % 16.63 C
Sensor: Nr:Datum:Temp:Feuchte:Taupunkt:
Aussen-T/F 1026 30-06-2019 13:25:00 34.6 C 35 % 16.89 C
1027 30-06-2019 13:30:00 34.8 C 35 % 17.07 C
1028 30-06-2019 13:35:00 35 C 33 % 16.32 C
1029 30-06-2019 13:40:00 35.1 C 34 % 16.87 C
1030 30-06-2019 13:45:00 35.1 C 35 % 17.33 C
1031 30-06-2019 13:50:00 35.2 C 34 % 16.96 C
1032 30-06-2019 13:55:00 35.3 C 33 % 16.58 C
1033 30-06-2019 14:00:00 35.4 C 34 % 17.13 C
1034 30-06-2019 14:05:00 35.7 C 32 % 16.44 C
1035 30-06-2019 14:10:00 35.8 C 33 % 17.01 C
1036 30-06-2019 14:15:00 35.8 C 34 % 17.48 C
1037 30-06-2019 14:20:00 35.8 C 34 % 17.48 C
1038 30-06-2019 14:25:00 35.8 C 35 % 17.94 C
1039 30-06-2019 14:30:00 36 C 35 % 18.12 C
1040 30-06-2019 14:35:00 36.3 C 34 % 17.92 C
1041 30-06-2019 14:40:00 36.4 C 34 % 18 C
1042 30-06-2019 14:45:00 36.6 C 34 % 18.18 C
1043 30-06-2019 14:50:00 36.4 C 36 % 18.92 C
1044 30-06-2019 14:55:00 36.1 C 37 % 19.09 C
1045 30-06-2019 15:00:00 35.8 C 36 % 18.39 C
1046 30-06-2019 15:05:00 35.6 C 39 % 19.5 C
1047 30-06-2019 15:10:00 35.4 C 38 % 18.9 C
1048 30-06-2019 15:15:00 35.3 C 41 % 20.04 C
1049 30-06-2019 15:20:00 35.4 C 40 % 19.73 C
1050 30-06-2019 15:25:00 35.4 C 42 % 20.52 C
Sensor: Nr:Datum:Temp:Feuchte:Taupunkt:
Aussen-T/F 1051 30-06-2019 15:30:00 35.3 C 41 % 20.04 C
1052 30-06-2019 15:35:00 35.3 C 43 % 20.81 C
1053 30-06-2019 15:40:00 35.5 C 43 % 20.99 C
1054 30-06-2019 15:45:00 35.6 C 42 % 20.7 C
1055 30-06-2019 15:50:00 35.7 C 41 % 20.39 C
1056 30-06-2019 15:55:00 35.7 C 43 % 21.17 C
1057 30-06-2019 16:00:00 35.7 C 43 % 21.17 C
1058 30-06-2019 16:05:00 35.3 C 43 % 20.81 C
1059 30-06-2019 16:10:00 35.2 C 45 % 21.46 C
1060 30-06-2019 16:15:00 35.3 C 46 % 21.91 C
1061 30-06-2019 16:20:00 35.1 C 46 % 21.73 C
1062 30-06-2019 16:25:00 35 C 46 % 21.64 C
1063 30-06-2019 16:30:00 35.2 C 45 % 21.46 C
1064 30-06-2019 16:35:00 35.6 C 46 % 22.18 C
1065 30-06-2019 16:40:00 35.9 C 45 % 22.09 C
1066 30-06-2019 16:45:00 35.9 C 45 % 22.09 C
1067 30-06-2019 16:50:00 35.8 C 45 % 22 C
1068 30-06-2019 16:55:00 35.9 C 45 % 22.09 C
1069 30-06-2019 17:00:00 35.9 C 46 % 22.45 C
1070 30-06-2019 17:05:00 35.9 C 43 % 21.35 C
1071 30-06-2019 17:10:00 35.9 C 45 % 22.09 C
1072 30-06-2019 17:15:00 35.9 C 45 % 22.09 C
1073 30-06-2019 17:20:00 35.7 C 46 % 22.27 C
1074 30-06-2019 17:25:00 35.7 C 46 % 22.27 C
1075 30-06-2019 17:30:00 35.9 C 46 % 22.45 C
Sensor: Nr:Datum:Temp:Feuchte:Taupunkt:
Aussen-T/F 1076 30-06-2019 17:35:00 35.9 C 46 % 22.45 C
1077 30-06-2019 17:40:00 35.8 C 46 % 22.36 C
1078 30-06-2019 17:45:00 35.9 C 46 % 22.45 C
1079 30-06-2019 17:50:00 35.9 C 46 % 22.45 C
1080 30-06-2019 17:55:00 36.1 C 46 % 22.63 C
1081 30-06-2019 18:00:00 35.9 C 46 % 22.45 C
1082 30-06-2019 18:05:00 35.8 C 45 % 22 C
1083 30-06-2019 18:10:00 35.6 C 45 % 21.82 C
1084 30-06-2019 18:15:00 35.5 C 45 % 21.73 C
1085 30-06-2019 18:20:00 35.3 C 45 % 21.55 C
1086 30-06-2019 18:25:00 35.1 C 47 % 22.08 C
1087 30-06-2019 18:30:00 34.8 C 47 % 21.81 C
1088 30-06-2019 18:35:00 34.7 C 47 % 21.72 C
1089 30-06-2019 18:40:00 34.4 C 48 % 21.79 C
1090 30-06-2019 18:45:00 34.3 C 47 % 21.36 C
1091 30-06-2019 18:50:00 34.2 C 47 % 21.27 C
1092 30-06-2019 18:55:00 34.1 C 47 % 21.18 C
1093 30-06-2019 19:00:00 33.9 C 48 % 21.34 C
1094 30-06-2019 19:05:00 33.9 C 48 % 21.34 C
1095 30-06-2019 19:10:00 33.7 C 48 % 21.16 C
1096 30-06-2019 19:15:00 33.4 C 48 % 20.88 C
1097 30-06-2019 19:20:00 32.9 C 50 % 21.09 C
1098 30-06-2019 19:25:00 32.4 C 51 % 20.96 C
1099 30-06-2019 19:30:00 32.4 C 53 % 21.58 C
1100 30-06-2019 19:35:00 32.4 C 51 % 20.96 C
Sensor: Nr:Datum:Temp:Feuchte:Taupunkt:
Aussen-T/F 1101 30-06-2019 19:40:00 32.3 C 52 % 21.18 C
1102 30-06-2019 19:45:00 31.9 C 52 % 20.81 C
1103 30-06-2019 19:50:00 31.6 C 53 % 20.85 C
1104 30-06-2019 19:55:00 31.1 C 54 % 20.69 C
1105 30-06-2019 20:00:00 30.8 C 55 % 20.71 C
1106 30-06-2019 20:05:00 30.5 C 56 % 20.72 C
1107 30-06-2019 20:10:00 30.3 C 57 % 20.83 C
1108 30-06-2019 20:15:00 30 C 58 % 20.83 C
1109 30-06-2019 20:20:00 29.6 C 59 % 20.73 C
1110 30-06-2019 20:25:00 29.3 C 59 % 20.45 C
1111 30-06-2019 20:30:00 29.1 C 61 % 20.81 C
1112 30-06-2019 20:35:00 28.9 C 60 % 20.35 C
1113 30-06-2019 20:40:00 28.7 C 60 % 20.16 C
1114 30-06-2019 20:45:00 28.6 C 60 % 20.07 C
1115 30-06-2019 20:50:00 28.3 C 60 % 19.79 C
1116 30-06-2019 20:55:00 28.1 C 61 % 19.87 C
1117 30-06-2019 21:00:00 27.9 C 61 % 19.68 C
1118 30-06-2019 21:05:00 27.7 C 61 % 19.49 C
1119 30-06-2019 21:10:00 27.5 C 62 % 19.57 C
1120 30-06-2019 21:15:00 27.4 C 62 % 19.47 C
1121 30-06-2019 21:20:00 27.3 C 62 % 19.38 C
1122 30-06-2019 21:25:00 27.2 C 62 % 19.28 C
1123 30-06-2019 21:30:00 27.1 C 62 % 19.19 C
1124 30-06-2019 21:35:00 27 C 63 % 19.35 C
1125 30-06-2019 21:40:00 26.9 C 63 % 19.26 C
Sensor: Nr:Datum:Temp:Feuchte:Taupunkt:
Aussen-T/F 1126 30-06-2019 21:45:00 26.8 C 64 % 19.42 C
1127 30-06-2019 21:50:00 26.7 C 64 % 19.32 C
1128 30-06-2019 21:55:00 26.7 C 64 % 19.32 C
1129 30-06-2019 22:00:00 26.7 C 64 % 19.32 C
1130 30-06-2019 22:05:00 26.6 C 64 % 19.23 C
1131 30-06-2019 22:10:00 26.6 C 64 % 19.23 C
1132 30-06-2019 22:15:00 26.5 C 63 % 18.88 C
1133 30-06-2019 22:20:00 26.4 C 64 % 19.04 C
1134 30-06-2019 22:25:00 26.3 C 64 % 18.94 C
1135 30-06-2019 22:30:00 26.3 C 63 % 18.69 C
1136 30-06-2019 22:35:00 26.2 C 63 % 18.6 C
1137 30-06-2019 22:40:00 26.1 C 64 % 18.76 C
1138 30-06-2019 22:45:00 25.9 C 63 % 18.31 C
1139 30-06-2019 22:50:00 25.8 C 64 % 18.47 C
1140 30-06-2019 22:55:00 25.7 C 64 % 18.38 C
1141 30-06-2019 23:00:00 25.6 C 65 % 18.53 C
1142 30-06-2019 23:05:00 25.4 C 64 % 18.09 C
1143 30-06-2019 23:10:00 25.3 C 64 % 18 C
1144 30-06-2019 23:15:00 25.2 C 65 % 18.15 C
1145 30-06-2019 23:20:00 25 C 65 % 17.96 C
1146 30-06-2019 23:25:00 24.8 C 66 % 18.01 C
1147 30-06-2019 23:30:00 24.5 C 68 % 18.2 C
1148 30-06-2019 23:35:00 24.2 C 68 % 17.92 C
1149 30-06-2019 23:40:00 23.9 C 69 % 17.87 C
1150 30-06-2019 23:45:00 23.8 C 69 % 17.77 C
Sensor: Nr:Datum:Temp:Feuchte:Taupunkt:
Aussen-T/F 1151 30-06-2019 23:50:00 23.6 C 70 % 17.81 C
1152 30-06-2019 23:55:00 23.4 C 71 % 17.84 C
1153 01-07-2019 00:00:00 23.3 C 71 % 17.75 C
1154 01-07-2019 00:05:00 23.2 C 71 % 17.65 C
1155 01-07-2019 00:10:00 23.1 C 72 % 17.78 C
1156 01-07-2019 00:15:00 22.9 C 73 % 17.8 C
1157 01-07-2019 00:20:00 22.8 C 73 % 17.71 C
1158 01-07-2019 00:25:00 22.7 C 73 % 17.61 C
1159 01-07-2019 00:30:00 22.6 C 74 % 17.73 C
1160 01-07-2019 00:35:00 22.4 C 74 % 17.54 C
1161 01-07-2019 00:40:00 22.4 C 74 % 17.54 C
1162 01-07-2019 00:45:00 22.3 C 74 % 17.44 C
1163 01-07-2019 00:50:00 22.3 C 74 % 17.44 C
1164 01-07-2019 00:55:00 22.2 C 74 % 17.34 C
1165 01-07-2019 01:00:00 22.2 C 74 % 17.34 C
1166 01-07-2019 01:05:00 22.2 C 74 % 17.34 C
1167 01-07-2019 01:10:00 22.2 C 74 % 17.34 C
1168 01-07-2019 01:15:00 22.2 C 74 % 17.34 C
1169 01-07-2019 01:20:00 22.2 C 75 % 17.56 C
1170 01-07-2019 01:25:00 22.1 C 75 % 17.46 C
1171 01-07-2019 01:30:00 22.1 C 74 % 17.25 C
1172 01-07-2019 01:35:00 22.3 C 73 % 17.23 C
1173 01-07-2019 01:40:00 22.6 C 72 % 17.3 C
1174 01-07-2019 01:45:00 22.7 C 71 % 17.17 C
1175 01-07-2019 01:50:00 22.8 C 70 % 17.04 C
Sensor: Nr:Datum:Temp:Feuchte:Taupunkt:
Aussen-T/F 1176 01-07-2019 01:55:00 22.8 C 71 % 17.27 C
1177 01-07-2019 02:00:00 22.7 C 71 % 17.17 C
1178 01-07-2019 02:05:00 22.4 C 72 % 17.1 C
1179 01-07-2019 02:10:00 22.2 C 72 % 16.91 C
1180 01-07-2019 02:15:00 22 C 73 % 16.94 C
1181 01-07-2019 02:20:00 21.8 C 74 % 16.96 C
1182 01-07-2019 02:25:00 21.6 C 74 % 16.77 C
1183 01-07-2019 02:30:00 21.4 C 75 % 16.79 C
1184 01-07-2019 02:35:00 21.3 C 75 % 16.69 C
1185 01-07-2019 02:40:00 21.2 C 75 % 16.59 C
1186 01-07-2019 02:45:00 21.1 C 76 % 16.7 C
1187 01-07-2019 02:50:00 21 C 75 % 16.4 C
1188 01-07-2019 02:55:00 20.9 C 75 % 16.3 C
1189 01-07-2019 03:00:00 20.9 C 74 % 16.09 C
1190 01-07-2019 03:05:00 20.9 C 75 % 16.3 C
1191 01-07-2019 03:10:00 20.9 C 75 % 16.3 C
1192 01-07-2019 03:15:00 20.8 C 73 % 15.78 C
1193 01-07-2019 03:20:00 20.8 C 73 % 15.78 C
1194 01-07-2019 03:25:00 20.9 C 72 % 15.66 C
1195 01-07-2019 03:30:00 21.1 C 71 % 15.64 C
1196 01-07-2019 03:35:00 21.2 C 70 % 15.51 C
1197 01-07-2019 03:40:00 21.2 C 70 % 15.51 C
1198 01-07-2019 03:45:00 21.1 C 70 % 15.42 C
1199 01-07-2019 03:50:00 21.1 C 71 % 15.64 C
1200 01-07-2019 03:55:00 20.9 C 71 % 15.45 C
Sensor: Nr:Datum:Temp:Feuchte:Taupunkt:
Aussen-T/F 1201 01-07-2019 04:00:00 20.9 C 70 % 15.23 C
1202 01-07-2019 04:05:00 20.8 C 70 % 15.13 C
1203 01-07-2019 04:10:00 20.8 C 70 % 15.13 C
1204 01-07-2019 04:15:00 20.7 C 71 % 15.25 C
1205 01-07-2019 04:20:00 20.6 C 71 % 15.16 C
1206 01-07-2019 04:25:00 20.3 C 72 % 15.09 C
1207 01-07-2019 04:30:00 20.2 C 73 % 15.21 C
1208 01-07-2019 04:35:00 20 C 72 % 14.8 C
1209 01-07-2019 04:40:00 20 C 73 % 15.01 C
1210 01-07-2019 04:45:00 19.9 C 72 % 14.7 C
1211 01-07-2019 04:50:00 20 C 73 % 15.01 C
1212 01-07-2019 04:55:00 19.9 C 74 % 15.13 C
1213 01-07-2019 05:00:00 19.9 C 74 % 15.13 C
1214 01-07-2019 05:05:00 19.8 C 74 % 15.03 C
1215 01-07-2019 05:10:00 19.8 C 73 % 14.82 C
1216 01-07-2019 05:15:00 19.8 C 73 % 14.82 C
1217 01-07-2019 05:20:00 19.8 C 73 % 14.82 C
1218 01-07-2019 05:25:00 19.8 C 73 % 14.82 C
1219 01-07-2019 05:30:00 19.7 C 73 % 14.73 C
1220 01-07-2019 05:35:00 19.6 C 73 % 14.63 C
1221 01-07-2019 05:40:00 19.5 C 73 % 14.53 C
1222 01-07-2019 05:45:00 19.4 C 73 % 14.44 C
1223 01-07-2019 05:50:00 19.4 C 73 % 14.44 C
1224 01-07-2019 05:55:00 19.4 C 72 % 14.22 C
1225 01-07-2019 06:00:00 19.5 C 72 % 14.32 C
Sensor: Nr:Datum:Temp:Feuchte:Taupunkt:
Aussen-T/F 1226 01-07-2019 06:05:00 19.6 C 71 % 14.2 C
1227 01-07-2019 06:10:00 19.6 C 72 % 14.42 C
1228 01-07-2019 06:15:00 19.6 C 72 % 14.42 C
1229 01-07-2019 06:20:00 19.6 C 72 % 14.42 C
1230 01-07-2019 06:25:00 19.6 C 70 % 13.98 C
1231 01-07-2019 06:30:00 19.7 C 71 % 14.3 C
1232 01-07-2019 06:35:00 19.7 C 72 % 14.51 C
1233 01-07-2019 06:40:00 19.8 C 70 % 14.17 C
1234 01-07-2019 06:45:00 19.8 C 70 % 14.17 C
1235 01-07-2019 06:50:00 19.8 C 69 % 13.95 C
1236 01-07-2019 06:55:00 19.9 C 70 % 14.27 C
1237 01-07-2019 07:00:00 19.8 C 68 % 13.73 C
1238 01-07-2019 07:05:00 19.8 C 69 % 13.95 C
1239 01-07-2019 07:10:00 19.8 C 70 % 14.17 C
1240 01-07-2019 07:15:00 19.8 C 70 % 14.17 C
1241 01-07-2019 07:20:00 19.8 C 71 % 14.39 C
1242 01-07-2019 07:25:00 19.7 C 72 % 14.51 C
1243 01-07-2019 07:30:00 19.7 C 73 % 14.73 C
1244 01-07-2019 07:35:00 19.6 C 71 % 14.2 C
1245 01-07-2019 07:40:00 19.6 C 72 % 14.42 C
1246 01-07-2019 07:45:00 19.5 C 71 % 14.1 C
1247 01-07-2019 07:50:00 19.5 C 72 % 14.32 C
1248 01-07-2019 07:55:00 19.5 C 72 % 14.32 C
1249 01-07-2019 08:00:00 19.4 C 72 % 14.22 C
1250 01-07-2019 08:05:00 19.4 C 72 % 14.22 C
Sensor: Nr:Datum:Temp:Feuchte:Taupunkt:
Aussen-T/F 1251 01-07-2019 08:10:00 19.4 C 72 % 14.22 C
1252 01-07-2019 08:15:00 19.6 C 71 % 14.2 C
1253 01-07-2019 08:20:00 19.6 C 70 % 13.98 C
1254 01-07-2019 08:25:00 19.7 C 72 % 14.51 C
1255 01-07-2019 08:30:00 19.8 C 71 % 14.39 C
1256 01-07-2019 08:35:00 19.9 C 70 % 14.27 C
1257 01-07-2019 08:40:00 20 C 70 % 14.36 C
1258 01-07-2019 08:45:00 20.2 C 70 % 14.56 C
1259 01-07-2019 08:50:00 20.2 C 68 % 14.11 C
1260 01-07-2019 08:55:00 20.3 C 70 % 14.65 C
1261 01-07-2019 09:00:00 20.3 C 69 % 14.43 C
1262 01-07-2019 09:05:00 20.3 C 68 % 14.2 C
1263 01-07-2019 09:10:00 20.3 C 67 % 13.97 C
1264 01-07-2019 09:15:00 20.3 C 68 % 14.2 C
1265 01-07-2019 09:20:00 20.3 C 69 % 14.43 C
1266 01-07-2019 09:25:00 20.2 C 70 % 14.56 C
1267 01-07-2019 09:30:00 20.2 C 70 % 14.56 C
1268 01-07-2019 09:35:00 20.1 C 70 % 14.46 C
1269 01-07-2019 09:40:00 20.1 C 70 % 14.46 C
1270 01-07-2019 09:45:00 20.2 C 70 % 14.56 C
1271 01-07-2019 09:50:00 20.2 C 70 % 14.56 C
1272 01-07-2019 09:55:00 20.4 C 70 % 14.75 C
1273 01-07-2019 10:00:00 20.6 C 70 % 14.94 C
1274 01-07-2019 10:05:00 20.8 C 68 % 14.68 C
1275 01-07-2019 10:10:00 20.8 C 68 % 14.68 C
Sensor: Nr:Datum:Temp:Feuchte:Taupunkt:
Aussen-T/F 1276 01-07-2019 10:15:00 20.9 C 68 % 14.77 C
1277 01-07-2019 10:20:00 21.2 C 69 % 15.29 C
1278 01-07-2019 10:25:00 21.4 C 68 % 15.25 C
1279 01-07-2019 10:30:00 21.6 C 67 % 15.21 C
1280 01-07-2019 10:35:00 21.5 C 67 % 15.12 C
1281 01-07-2019 10:40:00 21.4 C 72 % 16.14 C
1282 01-07-2019 10:45:00 21.4 C 71 % 15.93 C
1283 01-07-2019 10:50:00 21.5 C 69 % 15.57 C
1284 01-07-2019 10:55:00 21.4 C 69 % 15.48 C
1285 01-07-2019 11:00:00 21.4 C 69 % 15.48 C
1286 01-07-2019 11:05:00 21.4 C 69 % 15.48 C
1287 01-07-2019 11:10:00 21.4 C 70 % 15.7 C
1288 01-07-2019 11:15:00 21.4 C 70 % 15.7 C
1289 01-07-2019 11:20:00 21.6 C 70 % 15.89 C
1290 01-07-2019 11:25:00 21.6 C 70 % 15.89 C
1291 01-07-2019 11:30:00 21.7 C 71 % 16.21 C
1292 01-07-2019 11:35:00 21.9 C 70 % 16.18 C
1293 01-07-2019 11:40:00 22.1 C 70 % 16.37 C
1294 01-07-2019 11:45:00 22.2 C 69 % 16.24 C
1295 01-07-2019 11:50:00 22.3 C 67 % 15.88 C
1296 01-07-2019 11:55:00 22.4 C 66 % 15.74 C
1297 01-07-2019 12:00:00 22.4 C 66 % 15.74 C
1298 01-07-2019 12:05:00 22.5 C 65 % 15.59 C
1299 01-07-2019 12:10:00 22.6 C 65 % 15.69 C
1300 01-07-2019 12:15:00 22.7 C 66 % 16.02 C
Sensor: Nr:Datum:Temp:Feuchte:Taupunkt:
Aussen-T/F 1301 01-07-2019 12:20:00 22.8 C 65 % 15.88 C
1302 01-07-2019 12:25:00 23 C 65 % 16.07 C
1303 01-07-2019 12:30:00 23.2 C 66 % 16.5 C
1304 01-07-2019 12:35:00 23.4 C 63 % 15.96 C
1305 01-07-2019 12:40:00 23.5 C 63 % 16.05 C
1306 01-07-2019 12:45:00 23.7 C 62 % 15.99 C
1307 01-07-2019 12:50:00 23.9 C 54 % 14.03 C
1308 01-07-2019 12:55:00 24.3 C 53 % 14.11 C
1309 01-07-2019 13:00:00 24.7 C 49 % 13.27 C
1310 01-07-2019 13:05:00 24.8 C 47 % 12.73 C
1311 01-07-2019 13:10:00 25.1 C 47 % 13 C
1312 01-07-2019 13:15:00 25 C 50 % 13.86 C
1313 01-07-2019 13:20:00 24.8 C 52 % 14.28 C
1314 01-07-2019 13:25:00 24.8 C 53 % 14.57 C
1315 01-07-2019 13:30:00 24.8 C 53 % 14.57 C
1316 01-07-2019 13:35:00 24.9 C 52 % 14.37 C
1317 01-07-2019 13:40:00 25 C 52 % 14.46 C
1318 01-07-2019 13:45:00 25 C 52 % 14.46 C
1319 01-07-2019 13:50:00 24.9 C 51 % 14.07 C
1320 01-07-2019 13:55:00 24.9 C 53 % 14.66 C
1321 01-07-2019 14:00:00 25.2 C 52 % 14.65 C
1322 01-07-2019 14:05:00 25.2 C 53 % 14.94 C
1323 01-07-2019 14:10:00 25.2 C 53 % 14.94 C
1324 01-07-2019 14:15:00 25.2 C 51 % 14.35 C
1325 01-07-2019 14:20:00 25.2 C 51 % 14.35 C
Sensor: Nr:Datum:Temp:Feuchte:Taupunkt:
Aussen-T/F 1326 01-07-2019 14:25:00 25.4 C 51 % 14.53 C
1327 01-07-2019 14:30:00 25.7 C 51 % 14.81 C
1328 01-07-2019 14:35:00 25.7 C 50 % 14.5 C
1329 01-07-2019 14:40:00 25.8 C 50 % 14.59 C
1330 01-07-2019 14:45:00 25.8 C 51 % 14.9 C
1331 01-07-2019 14:50:00 26 C 52 % 15.38 C
1332 01-07-2019 14:55:00 26.3 C 49 % 14.74 C
1333 01-07-2019 15:00:00 26.3 C 51 % 15.36 C
1334 01-07-2019 15:05:00 26.6 C 50 % 15.32 C
1335 01-07-2019 15:10:00 26.9 C 48 % 14.96 C
1336 01-07-2019 15:15:00 26.9 C 46 % 14.3 C
1337 01-07-2019 15:20:00 26.8 C 48 % 14.87 C
1338 01-07-2019 15:25:00 26.8 C 47 % 14.55 C
1339 01-07-2019 15:30:00 26.8 C 47 % 14.55 C
1340 01-07-2019 15:35:00 27 C 46 % 14.39 C
1341 01-07-2019 15:40:00 26.9 C 45 % 13.96 C
1342 01-07-2019 15:45:00 26.8 C 46 % 14.21 C
1343 01-07-2019 15:50:00 26.3 C 46 % 13.76 C
1344 01-07-2019 15:55:00 26 C 46 % 13.49 C
1345 01-07-2019 16:00:00 25.8 C 48 % 13.96 C
1346 01-07-2019 16:05:00 25.8 C 48 % 13.96 C
1347 01-07-2019 16:10:00 26.1 C 47 % 13.91 C
1348 01-07-2019 16:15:00 26.5 C 46 % 13.94 C
1349 01-07-2019 16:20:00 26.8 C 45 % 13.87 C
1350 01-07-2019 16:25:00 27.1 C 44 % 13.8 C
Sensor: Nr:Datum:Temp:Feuchte:Taupunkt:
Aussen-T/F 1351 01-07-2019 16:30:00 27.2 C 43 % 13.54 C
1352 01-07-2019 16:35:00 27.3 C 43 % 13.63 C
1353 01-07-2019 16:40:00 27.7 C 43 % 13.99 C
1354 01-07-2019 16:45:00 27.7 C 41 % 13.25 C
1355 01-07-2019 16:50:00 27.5 C 41 % 13.08 C
1356 01-07-2019 16:55:00 27.2 C 43 % 13.54 C
1357 01-07-2019 17:00:00 27.2 C 42 % 13.18 C
1358 01-07-2019 17:05:00 27.1 C 42 % 13.09 C
1359 01-07-2019 17:10:00 27.2 C 42 % 13.18 C
1360 01-07-2019 17:15:00 27.3 C 43 % 13.63 C
1361 01-07-2019 17:20:00 27.6 C 41 % 13.16 C
1362 01-07-2019 17:25:00 27.3 C 40 % 12.52 C
1363 01-07-2019 17:30:00 27.1 C 42 % 13.09 C
1364 01-07-2019 17:35:00 27.1 C 43 % 13.45 C
1365 01-07-2019 17:40:00 27 C 42 % 13 C
1366 01-07-2019 17:45:00 26.7 C 42 % 12.73 C
1367 01-07-2019 17:50:00 26.5 C 43 % 12.91 C
1368 01-07-2019 17:55:00 26.4 C 43 % 12.82 C
1369 01-07-2019 18:00:00 26 C 44 % 12.81 C
1370 01-07-2019 18:05:00 25.9 C 45 % 13.06 C
1371 01-07-2019 18:10:00 26.2 C 45 % 13.33 C
1372 01-07-2019 18:15:00 26.1 C 45 % 13.24 C
1373 01-07-2019 18:20:00 26.2 C 45 % 13.33 C
1374 01-07-2019 18:25:00 26.4 C 44 % 13.17 C
1375 01-07-2019 18:30:00 26.4 C 44 % 13.17 C
Sensor: Nr:Datum:Temp:Feuchte:Taupunkt:
Aussen-T/F 1376 01-07-2019 18:35:00 26.4 C 44 % 13.17 C
1377 01-07-2019 18:40:00 26.6 C 44 % 13.35 C
1378 01-07-2019 18:45:00 26.5 C 42 % 12.55 C
1379 01-07-2019 18:50:00 26.4 C 43 % 12.82 C
1380 01-07-2019 18:55:00 26.5 C 43 % 12.91 C
1381 01-07-2019 19:00:00 26.6 C 42 % 12.64 C
1382 01-07-2019 19:05:00 26.6 C 42 % 12.64 C
1383 01-07-2019 19:10:00 26.4 C 41 % 12.09 C
1384 01-07-2019 19:15:00 26.3 C 42 % 12.37 C
1385 01-07-2019 19:20:00 26.2 C 42 % 12.28 C
1386 01-07-2019 19:25:00 26 C 43 % 12.46 C
1387 01-07-2019 19:30:00 25.8 C 43 % 12.28 C
1388 01-07-2019 19:35:00 25.8 C 43 % 12.28 C
1389 01-07-2019 19:40:00 25.7 C 43 % 12.19 C
1390 01-07-2019 19:45:00 25.6 C 44 % 12.45 C
1391 01-07-2019 19:50:00 25.4 C 44 % 12.27 C
1392 01-07-2019 19:55:00 25.2 C 44 % 12.09 C
1393 01-07-2019 20:00:00 25.1 C 45 % 12.34 C
1394 01-07-2019 20:05:00 25 C 44 % 11.9 C
1395 01-07-2019 20:10:00 24.9 C 45 % 12.16 C
1396 01-07-2019 20:15:00 24.9 C 45 % 12.16 C
1397 01-07-2019 20:20:00 24.8 C 46 % 12.4 C
1398 01-07-2019 20:25:00 24.8 C 46 % 12.4 C
1399 01-07-2019 20:30:00 24.7 C 46 % 12.31 C
1400 01-07-2019 20:35:00 24.6 C 47 % 12.54 C
Sensor: Nr:Datum:Temp:Feuchte:Taupunkt:
Aussen-T/F 1401 01-07-2019 20:40:00 24.4 C 48 % 12.68 C
1402 01-07-2019 20:45:00 24.1 C 49 % 12.72 C
1403 01-07-2019 20:50:00 23.7 C 50 % 12.67 C
1404 01-07-2019 20:55:00 23.4 C 49 % 12.08 C
1405 01-07-2019 21:00:00 23.3 C 48 % 11.68 C
1406 01-07-2019 21:05:00 23.2 C 49 % 11.9 C
1407 01-07-2019 21:10:00 23.1 C 50 % 12.11 C
1408 01-07-2019 21:15:00 23 C 50 % 12.02 C
1409 01-07-2019 21:20:00 22.8 C 50 % 11.84 C
1410 01-07-2019 21:25:00 22.6 C 51 % 11.96 C
1411 01-07-2019 21:30:00 22.5 C 53 % 12.45 C
1412 01-07-2019 21:35:00 22.2 C 52 % 11.88 C
1413 01-07-2019 21:40:00 22.1 C 52 % 11.79 C
1414 01-07-2019 21:45:00 22.1 C 53 % 12.08 C
1415 01-07-2019 21:50:00 22 C 53 % 11.99 C
1416 01-07-2019 21:55:00 21.8 C 53 % 11.8 C
1417 01-07-2019 22:00:00 21.7 C 54 % 11.99 C
1418 01-07-2019 22:05:00 21.6 C 55 % 12.18 C
1419 01-07-2019 22:10:00 21.3 C 55 % 11.9 C
1420 01-07-2019 22:15:00 21.3 C 56 % 12.17 C
1421 01-07-2019 22:20:00 21.2 C 55 % 11.81 C
1422 01-07-2019 22:25:00 21.1 C 57 % 12.25 C
1423 01-07-2019 22:30:00 20.8 C 57 % 11.97 C
1424 01-07-2019 22:35:00 20.6 C 59 % 12.31 C
1425 01-07-2019 22:40:00 20.3 C 59 % 12.03 C
Sensor: Nr:Datum:Temp:Feuchte:Taupunkt:
Aussen-T/F 1426 01-07-2019 22:45:00 20.1 C 60 % 12.1 C
1427 01-07-2019 22:50:00 20 C 60 % 12 C
1428 01-07-2019 22:55:00 19.9 C 60 % 11.91 C
1429 01-07-2019 23:00:00 19.9 C 60 % 11.91 C
1430 01-07-2019 23:05:00 19.9 C 60 % 11.91 C
1431 01-07-2019 23:10:00 20.1 C 60 % 12.1 C
1432 01-07-2019 23:15:00 20.1 C 60 % 12.1 C
1433 01-07-2019 23:20:00 20.1 C 59 % 11.84 C
1434 01-07-2019 23:25:00 20.2 C 59 % 11.94 C
1435 01-07-2019 23:30:00 20.2 C 59 % 11.94 C
1436 01-07-2019 23:35:00 20.1 C 59 % 11.84 C
1437 01-07-2019 23:40:00 20.1 C 59 % 11.84 C
1438 01-07-2019 23:45:00 20 C 59 % 11.75 C
1439 01-07-2019 23:50:00 19.9 C 59 % 11.66 C
1440 01-07-2019 23:55:00 19.8 C 60 % 11.82 C
1441 02-07-2019 00:00:00 19.8 C 59 % 11.56 C
1442 02-07-2019 00:05:00 19.7 C 60 % 11.72 C
1443 02-07-2019 00:10:00 19.5 C 60 % 11.53 C
1444 02-07-2019 00:15:00 19.4 C 61 % 11.69 C
1445 02-07-2019 00:20:00 19.2 C 62 % 11.75 C
1446 02-07-2019 00:25:00 18.9 C 62 % 11.47 C
1447 02-07-2019 00:30:00 18.7 C 64 % 11.76 C
1448 02-07-2019 00:35:00 18.6 C 64 % 11.66 C
1449 02-07-2019 00:40:00 18.4 C 65 % 11.71 C
1450 02-07-2019 00:45:00 18.3 C 66 % 11.84 C
Sensor: Nr:Datum:Temp:Feuchte:Taupunkt:
Aussen-T/F 1451 02-07-2019 00:50:00 18.1 C 67 % 11.88 C
1452 02-07-2019 00:55:00 17.7 C 68 % 11.72 C
1453 02-07-2019 01:00:00 17.4 C 68 % 11.44 C
1454 02-07-2019 01:05:00 17.3 C 69 % 11.56 C
1455 02-07-2019 01:10:00 17.3 C 68 % 11.34 C
1456 02-07-2019 01:15:00 17.3 C 69 % 11.56 C
1457 02-07-2019 01:20:00 17.2 C 69 % 11.47 C
1458 02-07-2019 01:25:00 17 C 70 % 11.49 C
1459 02-07-2019 01:30:00 16.9 C 70 % 11.4 C
1460 02-07-2019 01:35:00 16.7 C 71 % 11.42 C
1461 02-07-2019 01:40:00 16.6 C 72 % 11.54 C
1462 02-07-2019 01:45:00 16.5 C 72 % 11.44 C
1463 02-07-2019 01:50:00 16.3 C 73 % 11.46 C
1464 02-07-2019 01:55:00 16.2 C 73 % 11.36 C
1465 02-07-2019 02:00:00 16.1 C 74 % 11.47 C
1466 02-07-2019 02:05:00 16 C 74 % 11.37 C
1467 02-07-2019 02:10:00 16.1 C 74 % 11.47 C
1468 02-07-2019 02:15:00 16 C 74 % 11.37 C
1469 02-07-2019 02:20:00 15.9 C 74 % 11.28 C
1470 02-07-2019 02:25:00 15.9 C 74 % 11.28 C
1471 02-07-2019 02:30:00 15.9 C 74 % 11.28 C
1472 02-07-2019 02:35:00 15.8 C 74 % 11.18 C
1473 02-07-2019 02:40:00 15.7 C 75 % 11.28 C
1474 02-07-2019 02:45:00 15.7 C 75 % 11.28 C
1475 02-07-2019 02:50:00 15.6 C 75 % 11.19 C
Sensor: Nr:Datum:Temp:Feuchte:Taupunkt:
Aussen-T/F 1476 02-07-2019 02:55:00 15.5 C 75 % 11.09 C
1477 02-07-2019 03:00:00 15.4 C 76 % 11.19 C
1478 02-07-2019 03:05:00 15.3 C 76 % 11.1 C
1479 02-07-2019 03:10:00 15.2 C 76 % 11 C
1480 02-07-2019 03:15:00 15.2 C 76 % 11 C
1481 02-07-2019 03:20:00 15.3 C 76 % 11.1 C
1482 02-07-2019 03:25:00 15.5 C 75 % 11.09 C
1483 02-07-2019 03:30:00 15.7 C 75 % 11.28 C
1484 02-07-2019 03:35:00 15.8 C 74 % 11.18 C
1485 02-07-2019 03:40:00 15.8 C 74 % 11.18 C
1486 02-07-2019 03:45:00 15.7 C 74 % 11.08 C
1487 02-07-2019 03:50:00 15.6 C 75 % 11.19 C
1488 02-07-2019 03:55:00 15.4 C 76 % 11.19 C
1489 02-07-2019 04:00:00 15.3 C 76 % 11.1 C
1490 02-07-2019 04:05:00 15.2 C 77 % 11.2 C
1491 02-07-2019 04:10:00 15 C 77 % 11 C
1492 02-07-2019 04:15:00 14.9 C 77 % 10.91 C
1493 02-07-2019 04:20:00 14.8 C 78 % 11 C
1494 02-07-2019 04:25:00 14.6 C 78 % 10.81 C
1495 02-07-2019 04:30:00 14.4 C 79 % 10.81 C
1496 02-07-2019 04:35:00 14.3 C 79 % 10.71 C
1497 02-07-2019 04:40:00 14.1 C 80 % 10.71 C
1498 02-07-2019 04:45:00 14 C 81 % 10.79 C
1499 02-07-2019 04:50:00 13.9 C 82 % 10.88 C
1500 02-07-2019 04:55:00 13.8 C 82 % 10.78 C
Sensor: Nr:Datum:Temp:Feuchte:Taupunkt:
Aussen-T/F 1501 02-07-2019 05:00:00 13.7 C 82 % 10.69 C
1502 02-07-2019 05:05:00 13.7 C 83 % 10.87 C
1503 02-07-2019 05:10:00 13.6 C 83 % 10.77 C
1504 02-07-2019 05:15:00 13.6 C 82 % 10.59 C
1505 02-07-2019 05:20:00 13.5 C 83 % 10.67 C
1506 02-07-2019 05:25:00 13.4 C 83 % 10.57 C
1507 02-07-2019 05:30:00 13.4 C 83 % 10.57 C
1508 02-07-2019 05:35:00 13.4 C 84 % 10.75 C
1509 02-07-2019 05:40:00 13.3 C 84 % 10.66 C
1510 02-07-2019 05:45:00 13.3 C 84 % 10.66 C
1511 02-07-2019 05:50:00 13.3 C 84 % 10.66 C
1512 02-07-2019 05:55:00 13.2 C 84 % 10.56 C
1513 02-07-2019 06:00:00 13.2 C 85 % 10.74 C
1514 02-07-2019 06:05:00 13.2 C 85 % 10.74 C
1515 02-07-2019 06:10:00 13.1 C 85 % 10.64 C
1516 02-07-2019 06:15:00 13.1 C 85 % 10.64 C
1517 02-07-2019 06:20:00 13.1 C 85 % 10.64 C
1518 02-07-2019 06:25:00 13.1 C 85 % 10.64 C
1519 02-07-2019 06:30:00 13.1 C 85 % 10.64 C
1520 02-07-2019 06:35:00 13.1 C 86 % 10.81 C
1521 02-07-2019 06:40:00 13.1 C 86 % 10.81 C
1522 02-07-2019 06:45:00 13.1 C 86 % 10.81 C
1523 02-07-2019 06:50:00 13.1 C 86 % 10.81 C
1524 02-07-2019 06:55:00 13 C 87 % 10.89 C
1525 02-07-2019 07:00:00 13 C 87 % 10.89 C
Sensor: Nr:Datum:Temp:Feuchte:Taupunkt:
Aussen-T/F 1526 02-07-2019 07:05:00 13 C 87 % 10.89 C
1527 02-07-2019 07:10:00 13.1 C 87 % 10.99 C
1528 02-07-2019 07:15:00 13.1 C 87 % 10.99 C
1529 02-07-2019 07:20:00 13.1 C 87 % 10.99 C
1530 02-07-2019 07:25:00 13.2 C 87 % 11.09 C
1531 02-07-2019 07:30:00 13.2 C 87 % 11.09 C
1532 02-07-2019 07:35:00 13.3 C 87 % 11.18 C
1533 02-07-2019 07:40:00 13.3 C 87 % 11.18 C
1534 02-07-2019 07:45:00 13.4 C 87 % 11.28 C
1535 02-07-2019 07:50:00 13.5 C 87 % 11.38 C
1536 02-07-2019 07:55:00 13.6 C 87 % 11.48 C
1537 02-07-2019 08:00:00 13.7 C 87 % 11.58 C
1538 02-07-2019 08:05:00 13.8 C 87 % 11.68 C
1539 02-07-2019 08:10:00 13.9 C 87 % 11.77 C
1540 02-07-2019 08:15:00 14 C 87 % 11.87 C
1541 02-07-2019 08:20:00 14.3 C 86 % 11.99 C
1542 02-07-2019 08:25:00 14.6 C 83 % 11.75 C
1543 02-07-2019 08:30:00 14.9 C 81 % 11.67 C
1544 02-07-2019 08:35:00 15.3 C 80 % 11.87 C
1545 02-07-2019 08:40:00 15.7 C 79 % 12.07 C
1546 02-07-2019 08:45:00 16.1 C 77 % 12.07 C
1547 02-07-2019 08:50:00 16.3 C 75 % 11.86 C
1548 02-07-2019 08:55:00 16.5 C 75 % 12.06 C
1549 02-07-2019 09:00:00 16.7 C 73 % 11.84 C
1550 02-07-2019 09:05:00 16.8 C 74 % 12.14 C
Sensor: Nr:Datum:Temp:Feuchte:Taupunkt:
Aussen-T/F 1551 02-07-2019 09:10:00 16.9 C 73 % 12.03 C
1552 02-07-2019 09:15:00 17.1 C 72 % 12.02 C
1553 02-07-2019 09:20:00 17.2 C 72 % 12.11 C
1554 02-07-2019 09:25:00 17.5 C 70 % 11.97 C
1555 02-07-2019 09:30:00 17.7 C 69 % 11.95 C
1556 02-07-2019 09:35:00 17.8 C 70 % 12.26 C
1557 02-07-2019 09:40:00 17.9 C 68 % 11.91 C
1558 02-07-2019 09:45:00 17.9 C 68 % 11.91 C
1559 02-07-2019 09:50:00 18.1 C 68 % 12.11 C
1560 02-07-2019 09:55:00 18.2 C 67 % 11.98 C
1561 02-07-2019 10:00:00 18.4 C 65 % 11.71 C
1562 02-07-2019 10:05:00 18.7 C 65 % 11.99 C
1563 02-07-2019 10:10:00 18.8 C 63 % 11.61 C
1564 02-07-2019 10:15:00 18.7 C 63 % 11.52 C
1565 02-07-2019 10:20:00 18.6 C 64 % 11.66 C
1566 02-07-2019 10:25:00 18.7 C 62 % 11.28 C
1567 02-07-2019 10:30:00 19 C 62 % 11.56 C
1568 02-07-2019 10:35:00 19.2 C 62 % 11.75 C
1569 02-07-2019 10:40:00 19.4 C 62 % 11.94 C
1570 02-07-2019 10:45:00 19.6 C 60 % 11.63 C
1571 02-07-2019 10:50:00 19.5 C 62 % 12.03 C
1572 02-07-2019 10:55:00 19.4 C 63 % 12.18 C
1573 02-07-2019 11:00:00 19.3 C 63 % 12.09 C
1574 02-07-2019 11:05:00 19.4 C 63 % 12.18 C
1575 02-07-2019 11:10:00 19.7 C 62 % 12.22 C
Sensor: Nr:Datum:Temp:Feuchte:Taupunkt:
Aussen-T/F 1576 02-07-2019 11:15:00 19.7 C 60 % 11.72 C
1577 02-07-2019 11:20:00 19.6 C 61 % 11.88 C
1578 02-07-2019 11:25:00 19.4 C 62 % 11.94 C
1579 02-07-2019 11:30:00 19.4 C 62 % 11.94 C
1580 02-07-2019 11:35:00 19.5 C 59 % 11.28 C
1581 02-07-2019 11:40:00 19.7 C 61 % 11.97 C
1582 02-07-2019 11:45:00 19.8 C 61 % 12.07 C
1583 02-07-2019 11:50:00 19.9 C 57 % 11.14 C
1584 02-07-2019 11:55:00 19.9 C 56 % 10.87 C
1585 02-07-2019 12:00:00 19.9 C 58 % 11.4 C
1586 02-07-2019 12:05:00 20 C 58 % 11.49 C
1587 02-07-2019 12:10:00 20 C 57 % 11.23 C
1588 02-07-2019 12:15:00 20.2 C 58 % 11.68 C
1589 02-07-2019 12:20:00 20.3 C 56 % 11.24 C
1590 02-07-2019 12:25:00 20.4 C 54 % 10.79 C
1591 02-07-2019 12:30:00 20.4 C 56 % 11.33 C
1592 02-07-2019 12:35:00 20.7 C 53 % 10.78 C
1593 02-07-2019 12:40:00 20.8 C 53 % 10.88 C
1594 02-07-2019 12:45:00 20.9 C 53 % 10.97 C
1595 02-07-2019 12:50:00 21.1 C 52 % 10.87 C
1596 02-07-2019 12:55:00 21.1 C 53 % 11.15 C
1597 02-07-2019 13:00:00 21.2 C 52 % 10.96 C
1598 02-07-2019 13:05:00 21.3 C 54 % 11.62 C
1599 02-07-2019 13:10:00 21.2 C 54 % 11.53 C
1600 02-07-2019 13:15:00 21.2 C 55 % 11.81 C
Sensor: Nr:Datum:Temp:Feuchte:Taupunkt:
Aussen-T/F 1601 02-07-2019 13:20:00 21.3 C 54 % 11.62 C
1602 02-07-2019 13:25:00 21.3 C 50 % 10.46 C
1603 02-07-2019 13:30:00 21.2 C 51 % 10.67 C
1604 02-07-2019 13:35:00 21.3 C 50 % 10.46 C
1605 02-07-2019 13:40:00 21.6 C 49 % 10.44 C
1606 02-07-2019 13:45:00 21.8 C 49 % 10.62 C
1607 02-07-2019 13:50:00 22 C 49 % 10.8 C
1608 02-07-2019 13:55:00 22.2 C 50 % 11.29 C
1609 02-07-2019 14:00:00 22.2 C 50 % 11.29 C
1610 02-07-2019 14:05:00 22.2 C 51 % 11.59 C
1611 02-07-2019 14:10:00 22 C 50 % 11.11 C
1612 02-07-2019 14:15:00 21.9 C 52 % 11.61 C
1613 02-07-2019 14:20:00 21.8 C 51 % 11.22 C
1614 02-07-2019 14:25:00 21.9 C 49 % 10.71 C
1615 02-07-2019 14:30:00 22.2 C 47 % 10.36 C
1616 02-07-2019 14:35:00 22.6 C 47 % 10.72 C
1617 02-07-2019 14:40:00 22.9 C 48 % 11.31 C
1618 02-07-2019 14:45:00 22.9 C 47 % 11 C
1619 02-07-2019 14:50:00 22.8 C 48 % 11.22 C
1620 02-07-2019 14:55:00 22.4 C 50 % 11.47 C
1621 02-07-2019 15:00:00 22.3 C 51 % 11.68 C
1622 02-07-2019 15:05:00 22.3 C 50 % 11.38 C
1623 02-07-2019 15:10:00 22.4 C 49 % 11.17 C
1624 02-07-2019 15:15:00 22.7 C 50 % 11.75 C
1625 02-07-2019 15:20:00 23 C 48 % 11.41 C
Sensor: Nr:Datum:Temp:Feuchte:Taupunkt:
Aussen-T/F 1626 02-07-2019 15:25:00 23.4 C 45 % 10.8 C
1627 02-07-2019 15:30:00 23.6 C 46 % 11.31 C
1628 02-07-2019 15:35:00 23.4 C 45 % 10.8 C
1629 02-07-2019 15:40:00 23.1 C 46 % 10.86 C
1630 02-07-2019 15:45:00 22.8 C 48 % 11.22 C
1631 02-07-2019 15:50:00 23.2 C 47 % 11.27 C
1632 02-07-2019 15:55:00 23.9 C 46 % 11.58 C
1633 02-07-2019 16:00:00 24.4 C 42 % 10.66 C
1634 02-07-2019 16:05:00 24.7 C 40 % 10.2 C
1635 02-07-2019 16:10:00 24.7 C 42 % 10.93 C
1636 02-07-2019 16:15:00 24.8 C 42 % 11.02 C
1637 02-07-2019 16:20:00 25 C 40 % 10.47 C
1638 02-07-2019 16:25:00 24.8 C 40 % 10.29 C
1639 02-07-2019 16:30:00 24.8 C 41 % 10.66 C
1640 02-07-2019 16:35:00 25.1 C 40 % 10.56 C
1641 02-07-2019 16:40:00 25.3 C 41 % 11.11 C
1642 02-07-2019 16:45:00 25.6 C 39 % 10.62 C
1643 02-07-2019 16:50:00 25.4 C 37 % 9.66 C
1644 02-07-2019 16:55:00 25.2 C 39 % 10.27 C
1645 02-07-2019 17:00:00 25.3 C 40 % 10.74 C
1646 02-07-2019 17:05:00 25.2 C 41 % 11.02 C
1647 02-07-2019 17:10:00 25.3 C 40 % 10.74 C
1648 02-07-2019 17:15:00 25.5 C 40 % 10.91 C
1649 02-07-2019 17:20:00 25.8 C 38 % 10.41 C
1650 02-07-2019 17:25:00 25.7 C 38 % 10.32 C
Sensor: Nr:Datum:Temp:Feuchte:Taupunkt:
Aussen-T/F 1651 02-07-2019 17:30:00 25.7 C 38 % 10.32 C
1652 02-07-2019 17:35:00 25.6 C 37 % 9.84 C
1653 02-07-2019 17:40:00 25.4 C 38 % 10.06 C
1654 02-07-2019 17:45:00 25.6 C 37 % 9.84 C
1655 02-07-2019 17:50:00 25.4 C 37 % 9.66 C
1656 02-07-2019 17:55:00 25.4 C 38 % 10.06 C
1657 02-07-2019 18:00:00 24.8 C 40 % 10.29 C
1658 02-07-2019 18:05:00 24.3 C 43 % 10.93 C
1659 02-07-2019 18:10:00 23.9 C 43 % 10.57 C
1660 02-07-2019 18:15:00 23.7 C 42 % 10.03 C
1661 02-07-2019 18:20:00 23.8 C 42 % 10.12 C
1662 02-07-2019 18:25:00 23.9 C 42 % 10.21 C
1663 02-07-2019 18:30:00 24.2 C 41 % 10.12 C
1664 02-07-2019 18:35:00 24.4 C 41 % 10.3 C
1665 02-07-2019 18:40:00 24.6 C 41 % 10.48 C
1666 02-07-2019 18:45:00 24.7 C 41 % 10.57 C
1667 02-07-2019 18:50:00 24.9 C 41 % 10.75 C
1668 02-07-2019 18:55:00 25.2 C 39 % 10.27 C
1669 02-07-2019 19:00:00 25.3 C 38 % 9.97 C
1670 02-07-2019 19:05:00 25.3 C 38 % 9.97 C
1671 02-07-2019 19:10:00 25.3 C 38 % 9.97 C
1672 02-07-2019 19:15:00 25.4 C 38 % 10.06 C
1673 02-07-2019 19:20:00 25.2 C 37 % 9.48 C
1674 02-07-2019 19:25:00 24.9 C 38 % 9.61 C
1675 02-07-2019 19:30:00 24.7 C 39 % 9.82 C
Sensor: Nr:Datum:Temp:Feuchte:Taupunkt:
Aussen-T/F 1676 02-07-2019 19:35:00 24.6 C 39 % 9.73 C
1677 02-07-2019 19:40:00 24.4 C 39 % 9.56 C
1678 02-07-2019 19:45:00 24.3 C 40 % 9.84 C
1679 02-07-2019 19:50:00 24.1 C 40 % 9.67 C
1680 02-07-2019 19:55:00 23.8 C 39 % 9.02 C
1681 02-07-2019 20:00:00 23.6 C 40 % 9.22 C
1682 02-07-2019 20:05:00 23.4 C 40 % 9.04 C
1683 02-07-2019 20:10:00 23.3 C 40 % 8.95 C
1684 02-07-2019 20:15:00 23.2 C 42 % 9.59 C
1685 02-07-2019 20:20:00 23.1 C 42 % 9.5 C
1686 02-07-2019 20:25:00 23 C 43 % 9.76 C
1687 02-07-2019 20:30:00 22.9 C 42 % 9.32 C
1688 02-07-2019 20:35:00 22.9 C 42 % 9.32 C
1689 02-07-2019 20:40:00 22.8 C 42 % 9.23 C
1690 02-07-2019 20:45:00 22.6 C 42 % 9.05 C
1691 02-07-2019 20:50:00 22.4 C 43 % 9.22 C
1692 02-07-2019 20:55:00 22.2 C 43 % 9.04 C
1693 02-07-2019 21:00:00 22 C 44 % 9.2 C
1694 02-07-2019 21:05:00 21.8 C 44 % 9.01 C
1695 02-07-2019 21:10:00 21.7 C 45 % 9.26 C
1696 02-07-2019 21:15:00 21.6 C 45 % 9.17 C
1697 02-07-2019 21:20:00 21.4 C 45 % 8.99 C
1698 02-07-2019 21:25:00 21.2 C 48 % 9.76 C
1699 02-07-2019 21:30:00 21 C 49 % 9.89 C
1700 02-07-2019 21:35:00 20.7 C 51 % 10.21 C
Sensor: Nr:Datum:Temp:Feuchte:Taupunkt:
Aussen-T/F 1701 02-07-2019 21:40:00 20.3 C 51 % 9.84 C
1702 02-07-2019 21:45:00 19.8 C 53 % 9.95 C
1703 02-07-2019 21:50:00 19.4 C 53 % 9.58 C
1704 02-07-2019 21:55:00 19 C 55 % 9.76 C
1705 02-07-2019 22:00:00 18.6 C 55 % 9.39 C
1706 02-07-2019 22:05:00 18.3 C 57 % 9.64 C
1707 02-07-2019 22:10:00 18.1 C 57 % 9.46 C
1708 02-07-2019 22:15:00 17.9 C 58 % 9.53 C
1709 02-07-2019 22:20:00 17.7 C 58 % 9.34 C
1710 02-07-2019 22:25:00 17.6 C 58 % 9.25 C
1711 02-07-2019 22:30:00 17.4 C 59 % 9.31 C
1712 02-07-2019 22:35:00 17.4 C 58 % 9.06 C
1713 02-07-2019 22:40:00 17.3 C 59 % 9.22 C
1714 02-07-2019 22:45:00 17.3 C 60 % 9.47 C
1715 02-07-2019 22:50:00 17.2 C 60 % 9.37 C
1716 02-07-2019 22:55:00 16.9 C 60 % 9.09 C
1717 02-07-2019 23:00:00 16.8 C 61 % 9.24 C
1718 02-07-2019 23:05:00 16.7 C 61 % 9.15 C
1719 02-07-2019 23:10:00 16.6 C 61 % 9.06 C
1720 02-07-2019 23:15:00 16.4 C 61 % 8.87 C
1721 02-07-2019 23:20:00 16.4 C 62 % 9.11 C
1722 02-07-2019 23:25:00 16.3 C 62 % 9.01 C
1723 02-07-2019 23:30:00 16.3 C 62 % 9.01 C
1724 02-07-2019 23:35:00 16.2 C 62 % 8.92 C
1725 02-07-2019 23:40:00 16.1 C 63 % 9.06 C
Sensor: Nr:Datum:Temp:Feuchte:Taupunkt:
Aussen-T/F 1726 02-07-2019 23:45:00 16 C 63 % 8.97 C
1727 02-07-2019 23:50:00 15.9 C 64 % 9.11 C
1728 02-07-2019 23:55:00 15.9 C 65 % 9.34 C
1729 03-07-2019 00:00:00 15.7 C 65 % 9.15 C
1730 03-07-2019 00:05:00 15.6 C 65 % 9.05 C
1731 03-07-2019 00:10:00 15.3 C 66 % 8.99 C
1732 03-07-2019 00:15:00 15.2 C 67 % 9.12 C
1733 03-07-2019 00:20:00 15.1 C 67 % 9.02 C
1734 03-07-2019 00:25:00 14.9 C 68 % 9.05 C
1735 03-07-2019 00:30:00 14.7 C 68 % 8.86 C
1736 03-07-2019 00:35:00 14.5 C 69 % 8.89 C
1737 03-07-2019 00:40:00 14.3 C 70 % 8.91 C
1738 03-07-2019 00:45:00 14.2 C 70 % 8.81 C
1739 03-07-2019 00:50:00 14.2 C 71 % 9.02 C
1740 03-07-2019 00:55:00 14 C 71 % 8.83 C
1741 03-07-2019 01:00:00 13.9 C 72 % 8.94 C
1742 03-07-2019 01:05:00 13.7 C 73 % 8.95 C
1743 03-07-2019 01:10:00 13.6 C 72 % 8.65 C
1744 03-07-2019 01:15:00 13.4 C 73 % 8.66 C
1745 03-07-2019 01:20:00 13.3 C 73 % 8.57 C
1746 03-07-2019 01:25:00 13.2 C 74 % 8.67 C
1747 03-07-2019 01:30:00 13.2 C 74 % 8.67 C
1748 03-07-2019 01:35:00 13.1 C 74 % 8.58 C
1749 03-07-2019 01:40:00 12.9 C 74 % 8.38 C
1750 03-07-2019 01:45:00 12.9 C 75 % 8.58 C
Sensor: Nr:Datum:Temp:Feuchte:Taupunkt:
Aussen-T/F 1751 03-07-2019 01:50:00 12.8 C 76 % 8.68 C
1752 03-07-2019 01:55:00 12.8 C 75 % 8.48 C
1753 03-07-2019 02:00:00 12.7 C 76 % 8.58 C
1754 03-07-2019 02:05:00 12.7 C 76 % 8.58 C
1755 03-07-2019 02:10:00 12.6 C 77 % 8.68 C
1756 03-07-2019 02:15:00 12.5 C 77 % 8.58 C
1757 03-07-2019 02:20:00 12.4 C 77 % 8.49 C
1758 03-07-2019 02:25:00 12.4 C 77 % 8.49 C
1759 03-07-2019 02:30:00 12.3 C 77 % 8.39 C
1760 03-07-2019 02:35:00 12.2 C 78 % 8.48 C
1761 03-07-2019 02:40:00 12.1 C 78 % 8.38 C
1762 03-07-2019 02:45:00 12 C 78 % 8.29 C
1763 03-07-2019 02:50:00 11.9 C 78 % 8.19 C
1764 03-07-2019 02:55:00 11.9 C 78 % 8.19 C
1765 03-07-2019 03:00:00 11.8 C 79 % 8.28 C
1766 03-07-2019 03:05:00 11.8 C 79 % 8.28 C
1767 03-07-2019 03:10:00 11.7 C 80 % 8.37 C
1768 03-07-2019 03:15:00 11.7 C 80 % 8.37 C
1769 03-07-2019 03:20:00 11.6 C 80 % 8.27 C
1770 03-07-2019 03:25:00 11.6 C 80 % 8.27 C
1771 03-07-2019 03:30:00 11.4 C 81 % 8.26 C
1772 03-07-2019 03:35:00 11.4 C 81 % 8.26 C
1773 03-07-2019 03:40:00 11.3 C 81 % 8.16 C
1774 03-07-2019 03:45:00 11.2 C 81 % 8.06 C
1775 03-07-2019 03:50:00 11.1 C 82 % 8.15 C
Sensor: Nr:Datum:Temp:Feuchte:Taupunkt:
Aussen-T/F 1776 03-07-2019 03:55:00 11.1 C 82 % 8.15 C
1777 03-07-2019 04:00:00 11 C 82 % 8.05 C
1778 03-07-2019 04:05:00 10.9 C 82 % 7.95 C
1779 03-07-2019 04:10:00 10.8 C 82 % 7.85 C
1780 03-07-2019 04:15:00 10.8 C 83 % 8.03 C
1781 03-07-2019 04:20:00 10.7 C 83 % 7.93 C
1782 03-07-2019 04:25:00 10.7 C 83 % 7.93 C
1783 03-07-2019 04:30:00 10.6 C 83 % 7.84 C
1784 03-07-2019 04:35:00 10.6 C 84 % 8.01 C
1785 03-07-2019 04:40:00 10.5 C 84 % 7.91 C
1786 03-07-2019 04:45:00 10.4 C 84 % 7.82 C
1787 03-07-2019 04:50:00 10.4 C 84 % 7.82 C
1788 03-07-2019 04:55:00 10.4 C 85 % 7.99 C
1789 03-07-2019 05:00:00 10.3 C 85 % 7.89 C
1790 03-07-2019 05:05:00 10.3 C 85 % 7.89 C
1791 03-07-2019 05:10:00 10.3 C 85 % 7.89 C
1792 03-07-2019 05:15:00 10.2 C 85 % 7.79 C
1793 03-07-2019 05:20:00 10.1 C 85 % 7.7 C
1794 03-07-2019 05:25:00 10.1 C 86 % 7.87 C
1795 03-07-2019 05:30:00 10.1 C 86 % 7.87 C
1796 03-07-2019 05:35:00 10 C 86 % 7.77 C
1797 03-07-2019 05:40:00 10 C 86 % 7.77 C
1798 03-07-2019 05:45:00 9.9 C 87 % 7.84 C
1799 03-07-2019 05:50:00 10 C 87 % 7.94 C
1800 03-07-2019 05:55:00 10 C 87 % 7.94 C
Sensor: Nr:Datum:Temp:Feuchte:Taupunkt:
Aussen-T/F 1801 03-07-2019 06:00:00 10 C 87 % 7.94 C
1802 03-07-2019 06:05:00 10 C 87 % 7.94 C
1803 03-07-2019 06:10:00 10 C 88 % 8.11 C
1804 03-07-2019 06:15:00 10.1 C 88 % 8.21 C
1805 03-07-2019 06:20:00 10.1 C 88 % 8.21 C
1806 03-07-2019 06:25:00 10.1 C 88 % 8.21 C
1807 03-07-2019 06:30:00 10.1 C 88 % 8.21 C
1808 03-07-2019 06:35:00 10.2 C 88 % 8.3 C
1809 03-07-2019 06:40:00 10.2 C 88 % 8.3 C
1810 03-07-2019 06:45:00 10.2 C 88 % 8.3 C
1811 03-07-2019 06:50:00 10.3 C 89 % 8.57 C
1812 03-07-2019 06:55:00 10.3 C 89 % 8.57 C
1813 03-07-2019 07:00:00 10.4 C 89 % 8.67 C
1814 03-07-2019 07:05:00 10.4 C 89 % 8.67 C
1815 03-07-2019 07:10:00 10.6 C 89 % 8.86 C
1816 03-07-2019 07:15:00 10.7 C 89 % 8.96 C
1817 03-07-2019 07:20:00 10.7 C 89 % 8.96 C
1818 03-07-2019 07:25:00 10.8 C 89 % 9.06 C
1819 03-07-2019 07:30:00 10.9 C 89 % 9.16 C
1820 03-07-2019 07:35:00 11.1 C 89 % 9.36 C
1821 03-07-2019 07:40:00 11.2 C 88 % 9.29 C
1822 03-07-2019 07:45:00 11.3 C 88 % 9.39 C
1823 03-07-2019 07:50:00 11.4 C 88 % 9.49 C
1824 03-07-2019 07:55:00 11.5 C 88 % 9.58 C
1825 03-07-2019 08:00:00 11.6 C 88 % 9.68 C
Sensor: Nr:Datum:Temp:Feuchte:Taupunkt:
Aussen-T/F 1826 03-07-2019 08:05:00 11.7 C 88 % 9.78 C
1827 03-07-2019 08:10:00 11.9 C 87 % 9.81 C
1828 03-07-2019 08:15:00 12 C 87 % 9.91 C
1829 03-07-2019 08:20:00 12.1 C 87 % 10 C
1830 03-07-2019 08:25:00 12.2 C 87 % 10.1 C
1831 03-07-2019 08:30:00 12.3 C 86 % 10.03 C
1832 03-07-2019 08:35:00 12.5 C 86 % 10.22 C
1833 03-07-2019 08:40:00 12.7 C 86 % 10.42 C
1834 03-07-2019 08:45:00 12.8 C 85 % 10.34 C
1835 03-07-2019 08:50:00 12.9 C 84 % 10.26 C
1836 03-07-2019 08:55:00 13.1 C 83 % 10.28 C
1837 03-07-2019 09:00:00 13.3 C 84 % 10.66 C
1838 03-07-2019 09:05:00 13.4 C 82 % 10.39 C
1839 03-07-2019 09:10:00 13.7 C 80 % 10.32 C
1840 03-07-2019 09:15:00 13.9 C 80 % 10.51 C
1841 03-07-2019 09:20:00 14.1 C 80 % 10.71 C
1842 03-07-2019 09:25:00 14.3 C 77 % 10.33 C
1843 03-07-2019 09:30:00 14.5 C 76 % 10.32 C
1844 03-07-2019 09:35:00 14.8 C 76 % 10.61 C
1845 03-07-2019 09:40:00 15 C 74 % 10.41 C
1846 03-07-2019 09:45:00 15.3 C 74 % 10.7 C
1847 03-07-2019 09:50:00 15.6 C 71 % 10.37 C
1848 03-07-2019 09:55:00 15.8 C 70 % 10.34 C
1849 03-07-2019 10:00:00 16.1 C 69 % 10.42 C
1850 03-07-2019 10:05:00 16.4 C 68 % 10.48 C
Sensor: Nr:Datum:Temp:Feuchte:Taupunkt:
Aussen-T/F 1851 03-07-2019 10:10:00 16.7 C 66 % 10.32 C
1852 03-07-2019 10:15:00 17 C 66 % 10.61 C
1853 03-07-2019 10:20:00 17.4 C 63 % 10.29 C
1854 03-07-2019 10:25:00 17.8 C 63 % 10.67 C
1855 03-07-2019 10:30:00 18.3 C 60 % 10.41 C
1856 03-07-2019 10:35:00 18.7 C 57 % 10.02 C
1857 03-07-2019 10:40:00 19 C 56 % 10.03 C
1858 03-07-2019 10:45:00 19.3 C 57 % 10.58 C
1859 03-07-2019 10:50:00 19.7 C 53 % 9.86 C
1860 03-07-2019 10:55:00 19.8 C 53 % 9.95 C
1861 03-07-2019 11:00:00 19.7 C 54 % 10.14 C
1862 03-07-2019 11:05:00 19.7 C 51 % 9.29 C
1863 03-07-2019 11:10:00 19.7 C 52 % 9.58 C
1864 03-07-2019 11:15:00 19.7 C 53 % 9.86 C
1865 03-07-2019 11:20:00 19.7 C 51 % 9.29 C
1866 03-07-2019 11:25:00 19.8 C 50 % 9.09 C
1867 03-07-2019 11:30:00 19.9 C 51 % 9.47 C
1868 03-07-2019 11:35:00 20.1 C 51 % 9.66 C
1869 03-07-2019 11:40:00 20.2 C 50 % 9.45 C
1870 03-07-2019 11:45:00 20.2 C 49 % 9.15 C
1871 03-07-2019 11:50:00 20.3 C 49 % 9.24 C
1872 03-07-2019 11:55:00 20.4 C 49 % 9.34 C
1873 03-07-2019 12:00:00 20.4 C 50 % 9.64 C
1874 03-07-2019 12:05:00 20.3 C 50 % 9.54 C
1875 03-07-2019 12:10:00 20.3 C 49 % 9.24 C
Sensor: Nr:Datum:Temp:Feuchte:Taupunkt:
Aussen-T/F 1876 03-07-2019 12:15:00 20.3 C 50 % 9.54 C
1877 03-07-2019 12:20:00 20.5 C 50 % 9.73 C
1878 03-07-2019 12:25:00 20.7 C 49 % 9.61 C
1879 03-07-2019 12:30:00 20.8 C 49 % 9.7 C
1880 03-07-2019 12:35:00 20.9 C 49 % 9.79 C
1881 03-07-2019 12:40:00 21.1 C 48 % 9.67 C
1882 03-07-2019 12:45:00 21.2 C 47 % 9.45 C
1883 03-07-2019 12:50:00 21.3 C 47 % 9.54 C
1884 03-07-2019 12:55:00 21.3 C 47 % 9.54 C
1885 03-07-2019 13:00:00 21.1 C 47 % 9.36 C
1886 03-07-2019 13:05:00 21.1 C 49 % 9.98 C
1887 03-07-2019 13:10:00 21.3 C 47 % 9.54 C
1888 03-07-2019 13:15:00 21.2 C 47 % 9.45 C
1889 03-07-2019 13:20:00 21.1 C 47 % 9.36 C
1890 03-07-2019 13:25:00 21.1 C 48 % 9.67 C
1891 03-07-2019 13:30:00 21.4 C 45 % 8.99 C
1892 03-07-2019 13:35:00 21.7 C 46 % 9.58 C
1893 03-07-2019 13:40:00 21.7 C 46 % 9.58 C
1894 03-07-2019 13:45:00 21.6 C 46 % 9.49 C
1895 03-07-2019 13:50:00 21.7 C 46 % 9.58 C
1896 03-07-2019 13:55:00 21.8 C 46 % 9.67 C
1897 03-07-2019 14:00:00 21.8 C 48 % 10.31 C
1898 03-07-2019 14:05:00 21.9 C 46 % 9.77 C
1899 03-07-2019 14:10:00 21.8 C 46 % 9.67 C
1900 03-07-2019 14:15:00 22 C 46 % 9.86 C
Sensor: Nr:Datum:Temp:Feuchte:Taupunkt:
Aussen-T/F 1901 03-07-2019 14:20:00 22.2 C 45 % 9.71 C
1902 03-07-2019 14:25:00 22.1 C 46 % 9.95 C
1903 03-07-2019 14:30:00 22 C 46 % 9.86 C
1904 03-07-2019 14:35:00 21.9 C 46 % 9.77 C
1905 03-07-2019 14:40:00 21.9 C 46 % 9.77 C
1906 03-07-2019 14:45:00 22 C 47 % 10.18 C
1907 03-07-2019 14:50:00 22.1 C 47 % 10.27 C
1908 03-07-2019 14:55:00 22 C 47 % 10.18 C
1909 03-07-2019 15:00:00 22.1 C 46 % 9.95 C
1910 03-07-2019 15:05:00 22.2 C 47 % 10.36 C
1911 03-07-2019 15:10:00 22.3 C 45 % 9.8 C
1912 03-07-2019 15:15:00 22.4 C 46 % 10.22 C
1913 03-07-2019 15:20:00 22.6 C 44 % 9.74 C
1914 03-07-2019 15:25:00 22.4 C 45 % 9.89 C
1915 03-07-2019 15:30:00 22.4 C 46 % 10.22 C
1916 03-07-2019 15:35:00 22.4 C 46 % 10.22 C
1917 03-07-2019 15:40:00 22.5 C 46 % 10.31 C
1918 03-07-2019 15:45:00 22.9 C 44 % 10.01 C
1919 03-07-2019 15:50:00 23.5 C 45 % 10.89 C
1920 03-07-2019 15:55:00 23.8 C 42 % 10.12 C
1921 03-07-2019 16:00:00 23.9 C 41 % 9.85 C
1922 03-07-2019 16:05:00 23.9 C 42 % 10.21 C
1923 03-07-2019 16:10:00 24.4 C 42 % 10.66 C
1924 03-07-2019 16:15:00 24.5 C 40 % 10.02 C
1925 03-07-2019 16:20:00 24.7 C 39 % 9.82 C
Sensor: Nr:Datum:Temp:Feuchte:Taupunkt:
Aussen-T/F 1926 03-07-2019 16:25:00 24.6 C 40 % 10.11 C
1927 03-07-2019 16:30:00 24.7 C 40 % 10.2 C
1928 03-07-2019 16:35:00 24.5 C 40 % 10.02 C
1929 03-07-2019 16:40:00 24.5 C 39 % 9.65 C
1930 03-07-2019 16:45:00 24.4 C 39 % 9.56 C
1931 03-07-2019 16:50:00 24.6 C 39 % 9.73 C
1932 03-07-2019 16:55:00 24.6 C 38 % 9.35 C
1933 03-07-2019 17:00:00 24.5 C 39 % 9.65 C
1934 03-07-2019 17:05:00 24.4 C 39 % 9.56 C
1935 03-07-2019 17:10:00 24.6 C 39 % 9.73 C
1936 03-07-2019 17:15:00 24.7 C 38 % 9.44 C
1937 03-07-2019 17:20:00 24.8 C 38 % 9.53 C
1938 03-07-2019 17:25:00 24.8 C 37 % 9.13 C
1939 03-07-2019 17:30:00 24.4 C 38 % 9.17 C
1940 03-07-2019 17:35:00 24.5 C 38 % 9.26 C
1941 03-07-2019 17:40:00 24.7 C 37 % 9.04 C
1942 03-07-2019 17:45:00 24.6 C 37 % 8.95 C
1943 03-07-2019 17:50:00 24.4 C 38 % 9.17 C
1944 03-07-2019 17:55:00 24.4 C 39 % 9.56 C
1945 03-07-2019 18:00:00 24.7 C 37 % 9.04 C
1946 03-07-2019 18:05:00 24.9 C 37 % 9.22 C
1947 03-07-2019 18:10:00 25 C 37 % 9.31 C
1948 03-07-2019 18:15:00 25.1 C 37 % 9.39 C
1949 03-07-2019 18:20:00 24.8 C 37 % 9.13 C
1950 03-07-2019 18:25:00 24.6 C 38 % 9.35 C
Sensor: Nr:Datum:Temp:Feuchte:Taupunkt:
Aussen-T/F 1951 03-07-2019 18:30:00 24.6 C 38 % 9.35 C
1952 03-07-2019 18:35:00 24.6 C 38 % 9.35 C
1953 03-07-2019 18:40:00 24.5 C 37 % 8.86 C
1954 03-07-2019 18:45:00 24.5 C 39 % 9.65 C
1955 03-07-2019 18:50:00 24.6 C 38 % 9.35 C
1956 03-07-2019 18:55:00 24.6 C 37 % 8.95 C
1957 03-07-2019 19:00:00 24.3 C 37 % 8.69 C
1958 03-07-2019 19:05:00 24.3 C 38 % 9.08 C
1959 03-07-2019 19:10:00 24.3 C 38 % 9.08 C
1960 03-07-2019 19:15:00 24.3 C 38 % 9.08 C
1961 03-07-2019 19:20:00 24.2 C 38 % 8.99 C
1962 03-07-2019 19:25:00 23.9 C 38 % 8.73 C
1963 03-07-2019 19:30:00 23.8 C 39 % 9.02 C
1964 03-07-2019 19:35:00 23.6 C 39 % 8.84 C
1965 03-07-2019 19:40:00 23.3 C 40 % 8.95 C
1966 03-07-2019 19:45:00 23.2 C 40 % 8.86 C
1967 03-07-2019 19:50:00 23.2 C 41 % 9.23 C
1968 03-07-2019 19:55:00 23.1 C 40 % 8.77 C
1969 03-07-2019 20:00:00 22.9 C 41 % 8.96 C
1970 03-07-2019 20:05:00 22.8 C 41 % 8.87 C
1971 03-07-2019 20:10:00 22.7 C 41 % 8.78 C
1972 03-07-2019 20:15:00 22.6 C 42 % 9.05 C
1973 03-07-2019 20:20:00 22.6 C 41 % 8.69 C
1974 03-07-2019 20:25:00 22.4 C 41 % 8.51 C
1975 03-07-2019 20:30:00 22.2 C 42 % 8.69 C
Sensor: Nr:Datum:Temp:Feuchte:Taupunkt:
Aussen-T/F 1976 03-07-2019 20:35:00 22.2 C 43 % 9.04 C
1977 03-07-2019 20:40:00 22.2 C 43 % 9.04 C
1978 03-07-2019 20:45:00 22.1 C 42 % 8.6 C
1979 03-07-2019 20:50:00 21.9 C 43 % 8.76 C
1980 03-07-2019 20:55:00 21.7 C 43 % 8.58 C
1981 03-07-2019 21:00:00 21.4 C 43 % 8.31 C
1982 03-07-2019 21:05:00 21.2 C 44 % 8.47 C
1983 03-07-2019 21:10:00 21 C 45 % 8.62 C
1984 03-07-2019 21:15:00 20.8 C 45 % 8.44 C
1985 03-07-2019 21:20:00 20.6 C 46 % 8.58 C
1986 03-07-2019 21:25:00 20.4 C 46 % 8.4 C
1987 03-07-2019 21:30:00 20.3 C 46 % 8.31 C
1988 03-07-2019 21:35:00 20.2 C 48 % 8.85 C
1989 03-07-2019 21:40:00 20.1 C 47 % 8.45 C
1990 03-07-2019 21:45:00 19.8 C 48 % 8.48 C
1991 03-07-2019 21:50:00 19.7 C 49 % 8.7 C
1992 03-07-2019 21:55:00 19.4 C 50 % 8.72 C
1993 03-07-2019 22:00:00 19.1 C 50 % 8.44 C
1994 03-07-2019 22:05:00 18.7 C 52 % 8.65 C
1995 03-07-2019 22:10:00 18.3 C 52 % 8.28 C
1996 03-07-2019 22:15:00 18 C 55 % 8.83 C
1997 03-07-2019 22:20:00 17.7 C 54 % 8.28 C
1998 03-07-2019 22:25:00 17.4 C 55 % 8.28 C
1999 03-07-2019 22:30:00 17.3 C 56 % 8.45 C
2000 03-07-2019 22:35:00 17.1 C 56 % 8.26 C
Sensor: Nr:Datum:Temp:Feuchte:Taupunkt:
Aussen-T/F 2001 03-07-2019 22:40:00 16.9 C 57 % 8.34 C
2002 03-07-2019 22:45:00 16.8 C 57 % 8.24 C
2003 03-07-2019 22:50:00 16.7 C 58 % 8.4 C
2004 03-07-2019 22:55:00 16.5 C 59 % 8.47 C
2005 03-07-2019 23:00:00 16.3 C 59 % 8.28 C
2006 03-07-2019 23:05:00 16.1 C 60 % 8.34 C
2007 03-07-2019 23:10:00 15.9 C 60 % 8.15 C
2008 03-07-2019 23:15:00 15.7 C 61 % 8.21 C
2009 03-07-2019 23:20:00 15.6 C 61 % 8.11 C
2010 03-07-2019 23:25:00 15.5 C 62 % 8.26 C
2011 03-07-2019 23:30:00 15.4 C 62 % 8.16 C
2012 03-07-2019 23:35:00 15.3 C 62 % 8.07 C
2013 03-07-2019 23:40:00 15.1 C 63 % 8.12 C
2014 03-07-2019 23:45:00 15 C 64 % 8.25 C
2015 03-07-2019 23:50:00 14.9 C 64 % 8.16 C
2016 03-07-2019 23:55:00 14.8 C 64 % 8.06 C
2017 04-07-2019 00:00:00 14.7 C 65 % 8.2 C
2018 04-07-2019 00:05:00 14.6 C 65 % 8.1 C
2019 04-07-2019 00:10:00 14.5 C 65 % 8.01 C
2020 04-07-2019 00:15:00 14.3 C 65 % 7.82 C
2021 04-07-2019 00:20:00 14.3 C 65 % 7.82 C
2022 04-07-2019 00:25:00 14.2 C 66 % 7.95 C
2023 04-07-2019 00:30:00 14.1 C 66 % 7.85 C
2024 04-07-2019 00:35:00 14.1 C 66 % 7.85 C
2025 04-07-2019 00:40:00 14 C 67 % 7.98 C
Sensor: Nr:Datum:Temp:Feuchte:Taupunkt:
Aussen-T/F 2026 04-07-2019 00:45:00 13.9 C 67 % 7.88 C
2027 04-07-2019 00:50:00 13.9 C 67 % 7.88 C
2028 04-07-2019 00:55:00 13.8 C 67 % 7.79 C
2029 04-07-2019 01:00:00 13.8 C 67 % 7.79 C
2030 04-07-2019 01:05:00 13.8 C 67 % 7.79 C
2031 04-07-2019 01:10:00 13.7 C 67 % 7.69 C
2032 04-07-2019 01:15:00 13.7 C 68 % 7.91 C
2033 04-07-2019 01:20:00 13.6 C 68 % 7.81 C
2034 04-07-2019 01:25:00 13.5 C 68 % 7.72 C
2035 04-07-2019 01:30:00 13.4 C 68 % 7.62 C
2036 04-07-2019 01:35:00 13.3 C 68 % 7.53 C
2037 04-07-2019 01:40:00 13.3 C 69 % 7.74 C
2038 04-07-2019 01:45:00 13.3 C 68 % 7.53 C
2039 04-07-2019 01:50:00 13.2 C 69 % 7.64 C
2040 04-07-2019 01:55:00 13.2 C 70 % 7.86 C
2041 04-07-2019 02:00:00 13.1 C 70 % 7.76 C
2042 04-07-2019 02:05:00 13.1 C 70 % 7.76 C
2043 04-07-2019 02:10:00 13 C 70 % 7.66 C
2044 04-07-2019 02:15:00 12.9 C 70 % 7.57 C
2045 04-07-2019 02:20:00 12.8 C 71 % 7.68 C
2046 04-07-2019 02:25:00 12.8 C 71 % 7.68 C
2047 04-07-2019 02:30:00 12.6 C 72 % 7.69 C
2048 04-07-2019 02:35:00 12.4 C 72 % 7.5 C
2049 04-07-2019 02:40:00 12.3 C 73 % 7.61 C
2050 04-07-2019 02:45:00 12.3 C 73 % 7.61 C
Sensor: Nr:Datum:Temp:Feuchte:Taupunkt:
Aussen-T/F 2051 04-07-2019 02:50:00 12.2 C 74 % 7.71 C
2052 04-07-2019 02:55:00 12 C 74 % 7.52 C
2053 04-07-2019 03:00:00 11.9 C 74 % 7.42 C
2054 04-07-2019 03:05:00 11.7 C 75 % 7.42 C
2055 04-07-2019 03:10:00 11.6 C 76 % 7.52 C
2056 04-07-2019 03:15:00 11.4 C 76 % 7.33 C
2057 04-07-2019 03:20:00 11.3 C 77 % 7.42 C
2058 04-07-2019 03:25:00 11.2 C 77 % 7.32 C
2059 04-07-2019 03:30:00 11.1 C 78 % 7.41 C
2060 04-07-2019 03:35:00 11 C 78 % 7.32 C
2061 04-07-2019 03:40:00 11 C 78 % 7.32 C
2062 04-07-2019 03:45:00 10.9 C 79 % 7.41 C
2063 04-07-2019 03:50:00 10.9 C 79 % 7.41 C
2064 04-07-2019 03:55:00 10.9 C 79 % 7.41 C
2065 04-07-2019 04:00:00 10.9 C 79 % 7.41 C
2066 04-07-2019 04:05:00 10.9 C 79 % 7.41 C
2067 04-07-2019 04:10:00 10.9 C 79 % 7.41 C
2068 04-07-2019 04:15:00 10.9 C 79 % 7.41 C
2069 04-07-2019 04:20:00 10.8 C 79 % 7.31 C
2070 04-07-2019 04:25:00 10.8 C 80 % 7.49 C
2071 04-07-2019 04:30:00 10.8 C 80 % 7.49 C
2072 04-07-2019 04:35:00 10.7 C 80 % 7.4 C
2073 04-07-2019 04:40:00 10.7 C 80 % 7.4 C
2074 04-07-2019 04:45:00 10.7 C 80 % 7.4 C
2075 04-07-2019 04:50:00 10.7 C 80 % 7.4 C
Sensor: Nr:Datum:Temp:Feuchte:Taupunkt:
Aussen-T/F 2076 04-07-2019 04:55:00 10.6 C 81 % 7.48 C
2077 04-07-2019 05:00:00 10.6 C 81 % 7.48 C
2078 04-07-2019 05:05:00 10.6 C 81 % 7.48 C
2079 04-07-2019 05:10:00 10.5 C 81 % 7.38 C
2080 04-07-2019 05:15:00 10.5 C 82 % 7.56 C
2081 04-07-2019 05:20:00 10.6 C 82 % 7.66 C
2082 04-07-2019 05:25:00 10.6 C 82 % 7.66 C
2083 04-07-2019 05:30:00 10.6 C 82 % 7.66 C
2084 04-07-2019 05:35:00 10.5 C 82 % 7.56 C
2085 04-07-2019 05:40:00 10.5 C 82 % 7.56 C
2086 04-07-2019 05:45:00 10.4 C 82 % 7.46 C
2087 04-07-2019 05:50:00 10.4 C 82 % 7.46 C
2088 04-07-2019 05:55:00 10.4 C 82 % 7.46 C
2089 04-07-2019 06:00:00 10.4 C 82 % 7.46 C
2090 04-07-2019 06:05:00 10.3 C 83 % 7.54 C
2091 04-07-2019 06:10:00 10.3 C 83 % 7.54 C
2092 04-07-2019 06:15:00 10.3 C 83 % 7.54 C
2093 04-07-2019 06:20:00 10.3 C 83 % 7.54 C
2094 04-07-2019 06:25:00 10.3 C 83 % 7.54 C
2095 04-07-2019 06:30:00 10.2 C 84 % 7.62 C
2096 04-07-2019 06:35:00 10.2 C 84 % 7.62 C
2097 04-07-2019 06:40:00 10.2 C 85 % 7.79 C
2098 04-07-2019 06:45:00 10.3 C 85 % 7.89 C
2099 04-07-2019 06:50:00 10.3 C 85 % 7.89 C
2100 04-07-2019 06:55:00 10.3 C 85 % 7.89 C
Sensor: Nr:Datum:Temp:Feuchte:Taupunkt:
Aussen-T/F 2101 04-07-2019 07:00:00 10.3 C 86 % 8.06 C
2102 04-07-2019 07:05:00 10.3 C 86 % 8.06 C
2103 04-07-2019 07:10:00 10.3 C 86 % 8.06 C
2104 04-07-2019 07:15:00 10.3 C 86 % 8.06 C
2105 04-07-2019 07:20:00 10.4 C 86 % 8.16 C
2106 04-07-2019 07:25:00 10.4 C 86 % 8.16 C
2107 04-07-2019 07:30:00 10.6 C 86 % 8.36 C
2108 04-07-2019 07:35:00 10.6 C 86 % 8.36 C
2109 04-07-2019 07:40:00 10.7 C 86 % 8.46 C
2110 04-07-2019 07:45:00 10.8 C 86 % 8.56 C
2111 04-07-2019 07:50:00 10.9 C 86 % 8.65 C
2112 04-07-2019 07:55:00 11 C 86 % 8.75 C
2113 04-07-2019 08:00:00 11.1 C 86 % 8.85 C
2114 04-07-2019 08:05:00 11.2 C 86 % 8.95 C
2115 04-07-2019 08:10:00 11.3 C 86 % 9.05 C
2116 04-07-2019 08:15:00 11.4 C 86 % 9.14 C
2117 04-07-2019 08:20:00 11.5 C 85 % 9.07 C
2118 04-07-2019 08:25:00 11.6 C 85 % 9.17 C
2119 04-07-2019 08:30:00 11.7 C 84 % 9.09 C
2120 04-07-2019 08:35:00 11.9 C 84 % 9.29 C
2121 04-07-2019 08:40:00 12.1 C 83 % 9.3 C
2122 04-07-2019 08:45:00 12.2 C 81 % 9.04 C
2123 04-07-2019 08:50:00 12.5 C 81 % 9.33 C
2124 04-07-2019 08:55:00 12.7 C 80 % 9.34 C
2125 04-07-2019 09:00:00 12.9 C 81 % 9.72 C
Sensor: Nr:Datum:Temp:Feuchte:Taupunkt:
Aussen-T/F 2126 04-07-2019 09:05:00 13.1 C 80 % 9.73 C
2127 04-07-2019 09:10:00 13.3 C 78 % 9.55 C
2128 04-07-2019 09:15:00 13.7 C 77 % 9.75 C
2129 04-07-2019 09:20:00 13.9 C 76 % 9.74 C
2130 04-07-2019 09:25:00 14.2 C 76 % 10.03 C
2131 04-07-2019 09:30:00 14.3 C 73 % 9.53 C
2132 04-07-2019 09:35:00 14.7 C 71 % 9.5 C
2133 04-07-2019 09:40:00 15.1 C 69 % 9.46 C
2134 04-07-2019 09:45:00 15.4 C 67 % 9.31 C
2135 04-07-2019 09:50:00 15.9 C 66 % 9.56 C
2136 04-07-2019 09:55:00 16.3 C 64 % 9.48 C
2137 04-07-2019 10:00:00 16.7 C 62 % 9.39 C
2138 04-07-2019 10:05:00 16.9 C 61 % 9.34 C
2139 04-07-2019 10:10:00 17.2 C 60 % 9.37 C
2140 04-07-2019 10:15:00 17.4 C 59 % 9.31 C
2141 04-07-2019 10:20:00 17.8 C 58 % 9.43 C
2142 04-07-2019 10:25:00 18.1 C 56 % 9.19 C
2143 04-07-2019 10:30:00 18.4 C 57 % 9.74 C
2144 04-07-2019 10:35:00 18.7 C 53 % 8.93 C
2145 04-07-2019 10:40:00 18.9 C 52 % 8.84 C
2146 04-07-2019 10:45:00 19.1 C 52 % 9.02 C
2147 04-07-2019 10:50:00 19.1 C 52 % 9.02 C
2148 04-07-2019 10:55:00 19.2 C 51 % 8.83 C
2149 04-07-2019 11:00:00 19.2 C 50 % 8.53 C
2150 04-07-2019 11:05:00 19.3 C 51 % 8.92 C
Sensor: Nr:Datum:Temp:Feuchte:Taupunkt:
Aussen-T/F 2151 04-07-2019 11:10:00 19.3 C 50 % 8.63 C
2152 04-07-2019 11:15:00 19.4 C 49 % 8.42 C
2153 04-07-2019 11:20:00 19.4 C 50 % 8.72 C
2154 04-07-2019 11:25:00 19.6 C 49 % 8.6 C
2155 04-07-2019 11:30:00 19.7 C 49 % 8.7 C
2156 04-07-2019 11:35:00 19.8 C 48 % 8.48 C
2157 04-07-2019 11:40:00 19.8 C 49 % 8.79 C
2158 04-07-2019 11:45:00 19.8 C 48 % 8.48 C
2159 04-07-2019 11:50:00 19.8 C 48 % 8.48 C
2160 04-07-2019 11:55:00 19.9 C 48 % 8.57 C
2161 04-07-2019 12:00:00 20.2 C 47 % 8.54 C
2162 04-07-2019 12:05:00 20.3 C 48 % 8.94 C
2163 04-07-2019 12:10:00 20.3 C 46 % 8.31 C
2164 04-07-2019 12:15:00 20.1 C 47 % 8.45 C
2165 04-07-2019 12:20:00 20.2 C 46 % 8.22 C
2166 04-07-2019 12:25:00 20.2 C 46 % 8.22 C
2167 04-07-2019 12:30:00 20.3 C 44 % 7.66 C
2168 04-07-2019 12:35:00 20.4 C 45 % 8.08 C
2169 04-07-2019 12:40:00 20.5 C 44 % 7.84 C
2170 04-07-2019 12:45:00 20.7 C 44 % 8.02 C
2171 04-07-2019 12:50:00 20.8 C 44 % 8.11 C
2172 04-07-2019 12:55:00 20.8 C 43 % 7.77 C
2173 04-07-2019 13:00:00 20.9 C 42 % 7.52 C
2174 04-07-2019 13:05:00 20.9 C 43 % 7.86 C
2175 04-07-2019 13:10:00 21.2 C 42 % 7.79 C
Sensor: Nr:Datum:Temp:Feuchte:Taupunkt:
Aussen-T/F 2176 04-07-2019 13:15:00 21.4 C 41 % 7.62 C
2177 04-07-2019 13:20:00 21.6 C 43 % 8.49 C
2178 04-07-2019 13:25:00 21.8 C 43 % 8.67 C
2179 04-07-2019 13:30:00 21.8 C 42 % 8.33 C
2180 04-07-2019 13:35:00 21.9 C 41 % 8.06 C
2181 04-07-2019 13:40:00 21.9 C 41 % 8.06 C
2182 04-07-2019 13:45:00 21.9 C 41 % 8.06 C
2183 04-07-2019 13:50:00 22.1 C 40 % 7.88 C
2184 04-07-2019 13:55:00 22.2 C 40 % 7.97 C
2185 04-07-2019 14:00:00 22.2 C 41 % 8.33 C
2186 04-07-2019 14:05:00 22.1 C 41 % 8.24 C
2187 04-07-2019 14:10:00 22.2 C 41 % 8.33 C
2188 04-07-2019 14:15:00 22.3 C 41 % 8.42 C
2189 04-07-2019 14:20:00 22.6 C 38 % 7.57 C
2190 04-07-2019 14:25:00 22.7 C 38 % 7.66 C
2191 04-07-2019 14:30:00 22.7 C 37 % 7.27 C
2192 04-07-2019 14:35:00 22.8 C 36 % 6.96 C
2193 04-07-2019 14:40:00 22.9 C 36 % 7.05 C
2194 04-07-2019 14:45:00 23.2 C 36 % 7.31 C
2195 04-07-2019 14:50:00 23.3 C 35 % 6.99 C
2196 04-07-2019 14:55:00 23.6 C 36 % 7.67 C
2197 04-07-2019 15:00:00 23.7 C 34 % 6.92 C
2198 04-07-2019 15:05:00 23.8 C 35 % 7.43 C
2199 04-07-2019 15:10:00 23.9 C 35 % 7.52 C
2200 04-07-2019 15:15:00 24.1 C 35 % 7.69 C
Sensor: Nr:Datum:Temp:Feuchte:Taupunkt:
Aussen-T/F 2201 04-07-2019 15:20:00 24.2 C 33 % 6.92 C
2202 04-07-2019 15:25:00 24.4 C 36 % 8.37 C
2203 04-07-2019 15:30:00 24.7 C 33 % 7.36 C
2204 04-07-2019 15:35:00 25.1 C 35 % 8.57 C
2205 04-07-2019 15:40:00 25.6 C 33 % 8.14 C
2206 04-07-2019 15:45:00 25.7 C 30 % 6.84 C
2207 04-07-2019 15:50:00 25.5 C 33 % 8.06 C
2208 04-07-2019 15:55:00 25.7 C 31 % 7.31 C
2209 04-07-2019 16:00:00 25.9 C 32 % 7.95 C
2210 04-07-2019 16:05:00 26.2 C 32 % 8.21 C
2211 04-07-2019 16:10:00 26.7 C 31 % 8.18 C
2212 04-07-2019 16:15:00 27.1 C 32 % 8.99 C
2213 04-07-2019 16:20:00 27.3 C 30 % 8.21 C
2214 04-07-2019 16:25:00 27.1 C 31 % 8.52 C
2215 04-07-2019 16:30:00 27.1 C 31 % 8.52 C
2216 04-07-2019 16:35:00 27.1 C 31 % 8.52 C
2217 04-07-2019 16:40:00 27 C 31 % 8.44 C
2218 04-07-2019 16:45:00 26.9 C 32 % 8.82 C
2219 04-07-2019 16:50:00 26.7 C 32 % 8.65 C
2220 04-07-2019 16:55:00 26.6 C 32 % 8.56 C
2221 04-07-2019 17:00:00 26.4 C 33 % 8.84 C
2222 04-07-2019 17:05:00 26.5 C 33 % 8.93 C
2223 04-07-2019 17:10:00 26.8 C 34 % 9.63 C
2224 04-07-2019 17:15:00 27.1 C 32 % 8.99 C
2225 04-07-2019 17:20:00 27.2 C 33 % 9.54 C
Sensor: Nr:Datum:Temp:Feuchte:Taupunkt:
Aussen-T/F 2226 04-07-2019 17:25:00 27.1 C 31 % 8.52 C
2227 04-07-2019 17:30:00 26.8 C 32 % 8.73 C
2228 04-07-2019 17:35:00 26.6 C 32 % 8.56 C
2229 04-07-2019 17:40:00 26.8 C 32 % 8.73 C
2230 04-07-2019 17:45:00 27.2 C 30 % 8.13 C
2231 04-07-2019 17:50:00 27.1 C 31 % 8.52 C
2232 04-07-2019 17:55:00 27.2 C 30 % 8.13 C
2233 04-07-2019 18:00:00 27.3 C 31 % 8.7 C
2234 04-07-2019 18:05:00 27.4 C 31 % 8.78 C
2235 04-07-2019 18:10:00 27.5 C 30 % 8.39 C
2236 04-07-2019 18:15:00 27.6 C 30 % 8.47 C
2237 04-07-2019 18:20:00 27.5 C 31 % 8.87 C
2238 04-07-2019 18:25:00 27.3 C 31 % 8.7 C
2239 04-07-2019 18:30:00 27.4 C 30 % 8.3 C
2240 04-07-2019 18:35:00 27.3 C 31 % 8.7 C
2241 04-07-2019 18:40:00 27.2 C 30 % 8.13 C
2242 04-07-2019 18:45:00 27.2 C 31 % 8.61 C
2243 04-07-2019 18:50:00 27.2 C 32 % 9.08 C
2244 04-07-2019 18:55:00 27.3 C 31 % 8.7 C
2245 04-07-2019 19:00:00 27.6 C 31 % 8.96 C
2246 04-07-2019 19:05:00 27.6 C 30 % 8.47 C
2247 04-07-2019 19:10:00 27.4 C 31 % 8.78 C
2248 04-07-2019 19:15:00 27.4 C 31 % 8.78 C
2249 04-07-2019 19:20:00 27.3 C 31 % 8.7 C
2250 04-07-2019 19:25:00 27.2 C 31 % 8.61 C
Sensor: Nr:Datum:Temp:Feuchte:Taupunkt:
Aussen-T/F 2251 04-07-2019 19:30:00 26.9 C 31 % 8.35 C
2252 04-07-2019 19:35:00 26.6 C 33 % 9.01 C
2253 04-07-2019 19:40:00 26.5 C 32 % 8.47 C
2254 04-07-2019 19:45:00 26.4 C 33 % 8.84 C
2255 04-07-2019 19:50:00 26.3 C 33 % 8.75 C
2256 04-07-2019 19:55:00 26.1 C 33 % 8.58 C
2257 04-07-2019 20:00:00 25.8 C 33 % 8.32 C
2258 04-07-2019 20:05:00 25.7 C 34 % 8.67 C
2259 04-07-2019 20:10:00 25.5 C 35 % 8.92 C
2260 04-07-2019 20:15:00 25.4 C 34 % 8.41 C
2261 04-07-2019 20:20:00 25.2 C 35 % 8.66 C
2262 04-07-2019 20:25:00 25.1 C 36 % 8.99 C
2263 04-07-2019 20:30:00 24.9 C 36 % 8.81 C
2264 04-07-2019 20:35:00 24.7 C 37 % 9.04 C
2265 04-07-2019 20:40:00 24.6 C 38 % 9.35 C
2266 04-07-2019 20:45:00 24.4 C 39 % 9.56 C
2267 04-07-2019 20:50:00 24.2 C 38 % 8.99 C
2268 04-07-2019 20:55:00 23.9 C 39 % 9.11 C
2269 04-07-2019 21:00:00 23.6 C 41 % 9.59 C
2270 04-07-2019 21:05:00 23.4 C 41 % 9.41 C
2271 04-07-2019 21:10:00 23.2 C 46 % 10.95 C
2272 04-07-2019 21:15:00 22.9 C 45 % 10.34 C
2273 04-07-2019 21:20:00 22.4 C 46 % 10.22 C
2274 04-07-2019 21:25:00 21.9 C 47 % 10.09 C
2275 04-07-2019 21:30:00 21.4 C 48 % 9.94 C
Sensor: Nr:Datum:Temp:Feuchte:Taupunkt:
Aussen-T/F 2276 04-07-2019 21:35:00 20.9 C 50 % 10.1 C
2277 04-07-2019 21:40:00 20.4 C 50 % 9.64 C
2278 04-07-2019 21:45:00 20.1 C 51 % 9.66 C
2279 04-07-2019 21:50:00 19.7 C 51 % 9.29 C
2280 04-07-2019 21:55:00 19.4 C 53 % 9.58 C
2281 04-07-2019 22:00:00 19.2 C 53 % 9.4 C
2282 04-07-2019 22:05:00 19.1 C 52 % 9.02 C
2283 04-07-2019 22:10:00 19 C 53 % 9.21 C
2284 04-07-2019 22:15:00 18.9 C 52 % 8.84 C
2285 04-07-2019 22:20:00 18.7 C 53 % 8.93 C
2286 04-07-2019 22:25:00 18.7 C 53 % 8.93 C
2287 04-07-2019 22:30:00 18.5 C 53 % 8.75 C
2288 04-07-2019 22:35:00 18.3 C 53 % 8.56 C
2289 04-07-2019 22:40:00 18.2 C 53 % 8.47 C
2290 04-07-2019 22:45:00 18.2 C 55 % 9.02 C
2291 04-07-2019 22:50:00 18.1 C 55 % 8.93 C
2292 04-07-2019 22:55:00 17.9 C 56 % 9.01 C
2293 04-07-2019 23:00:00 17.8 C 56 % 8.91 C
2294 04-07-2019 23:05:00 17.7 C 55 % 8.55 C
2295 04-07-2019 23:10:00 17.6 C 57 % 8.99 C
2296 04-07-2019 23:15:00 17.5 C 56 % 8.63 C
2297 04-07-2019 23:20:00 17.3 C 56 % 8.45 C
2298 04-07-2019 23:25:00 17.3 C 57 % 8.71 C
2299 04-07-2019 23:30:00 17.3 C 57 % 8.71 C
2300 04-07-2019 23:35:00 17.2 C 58 % 8.87 C
Sensor: Nr:Datum:Temp:Feuchte:Taupunkt:
Aussen-T/F 2301 04-07-2019 23:40:00 17.2 C 58 % 8.87 C
2302 04-07-2019 23:45:00 17.3 C 58 % 8.97 C
2303 04-07-2019 23:50:00 17.3 C 58 % 8.97 C
2304 04-07-2019 23:55:00 17.2 C 58 % 8.87 C
2305 05-07-2019 00:00:00 17.2 C 58 % 8.87 C
2306 05-07-2019 00:05:00 17.1 C 59 % 9.03 C
2307 05-07-2019 00:10:00 16.9 C 60 % 9.09 C
2308 05-07-2019 00:15:00 16.7 C 61 % 9.15 C
2309 05-07-2019 00:20:00 16.5 C 61 % 8.96 C
2310 05-07-2019 00:25:00 16.4 C 62 % 9.11 C
2311 05-07-2019 00:30:00 16.2 C 62 % 8.92 C
2312 05-07-2019 00:35:00 16.1 C 62 % 8.82 C
2313 05-07-2019 00:40:00 16.1 C 63 % 9.06 C
2314 05-07-2019 00:45:00 16 C 63 % 8.97 C
2315 05-07-2019 00:50:00 15.9 C 64 % 9.11 C
2316 05-07-2019 00:55:00 15.9 C 63 % 8.87 C
2317 05-07-2019 01:00:00 15.8 C 64 % 9.01 C
2318 05-07-2019 01:05:00 15.7 C 63 % 8.68 C
2319 05-07-2019 01:10:00 15.6 C 64 % 8.82 C
2320 05-07-2019 01:15:00 15.4 C 65 % 8.86 C
2321 05-07-2019 01:20:00 15.3 C 66 % 8.99 C
2322 05-07-2019 01:25:00 15.2 C 65 % 8.67 C
2323 05-07-2019 01:30:00 15.1 C 66 % 8.8 C
2324 05-07-2019 01:35:00 14.9 C 67 % 8.83 C
2325 05-07-2019 01:40:00 14.9 C 67 % 8.83 C
Sensor: Nr:Datum:Temp:Feuchte:Taupunkt:
Aussen-T/F 2326 05-07-2019 01:45:00 14.8 C 67 % 8.74 C
2327 05-07-2019 01:50:00 14.8 C 68 % 8.96 C
2328 05-07-2019 01:55:00 14.7 C 68 % 8.86 C
2329 05-07-2019 02:00:00 14.6 C 67 % 8.55 C
2330 05-07-2019 02:05:00 14.5 C 67 % 8.45 C
2331 05-07-2019 02:10:00 14.4 C 68 % 8.58 C
2332 05-07-2019 02:15:00 14.3 C 68 % 8.48 C
2333 05-07-2019 02:20:00 14.3 C 69 % 8.7 C
2334 05-07-2019 02:25:00 14.2 C 69 % 8.6 C
2335 05-07-2019 02:30:00 14.1 C 69 % 8.5 C
2336 05-07-2019 02:35:00 14 C 69 % 8.41 C
2337 05-07-2019 02:40:00 13.9 C 70 % 8.53 C
2338 05-07-2019 02:45:00 13.8 C 71 % 8.64 C
2339 05-07-2019 02:50:00 13.8 C 71 % 8.64 C
2340 05-07-2019 02:55:00 13.7 C 72 % 8.75 C
2341 05-07-2019 03:00:00 13.7 C 71 % 8.54 C
2342 05-07-2019 03:05:00 13.7 C 72 % 8.75 C
2343 05-07-2019 03:10:00 13.6 C 72 % 8.65 C
2344 05-07-2019 03:15:00 13.6 C 72 % 8.65 C
2345 05-07-2019 03:20:00 13.6 C 73 % 8.86 C
2346 05-07-2019 03:25:00 13.7 C 74 % 9.15 C
2347 05-07-2019 03:30:00 13.7 C 74 % 9.15 C
2348 05-07-2019 03:35:00 13.7 C 74 % 9.15 C
2349 05-07-2019 03:40:00 13.7 C 74 % 9.15 C
2350 05-07-2019 03:45:00 13.8 C 74 % 9.25 C
Sensor: Nr:Datum:Temp:Feuchte:Taupunkt:
Aussen-T/F 2351 05-07-2019 03:50:00 13.8 C 75 % 9.45 C
2352 05-07-2019 03:55:00 13.9 C 74 % 9.35 C
2353 05-07-2019 04:00:00 14 C 74 % 9.44 C
2354 05-07-2019 04:05:00 14.1 C 74 % 9.54 C
2355 05-07-2019 04:10:00 14.1 C 74 % 9.54 C
2356 05-07-2019 04:15:00 14.1 C 74 % 9.54 C
2357 05-07-2019 04:20:00 14.1 C 74 % 9.54 C
2358 05-07-2019 04:25:00 14.1 C 74 % 9.54 C
2359 05-07-2019 04:30:00 14.1 C 73 % 9.34 C
2360 05-07-2019 04:35:00 14.1 C 74 % 9.54 C
2361 05-07-2019 04:40:00 14.1 C 74 % 9.54 C
2362 05-07-2019 04:45:00 14.1 C 73 % 9.34 C
2363 05-07-2019 04:50:00 14.1 C 74 % 9.54 C
2364 05-07-2019 04:55:00 14 C 74 % 9.44 C
2365 05-07-2019 05:00:00 13.9 C 74 % 9.35 C
2366 05-07-2019 05:05:00 13.9 C 74 % 9.35 C
2367 05-07-2019 05:10:00 13.8 C 74 % 9.25 C
2368 05-07-2019 05:15:00 13.8 C 74 % 9.25 C
2369 05-07-2019 05:20:00 13.8 C 74 % 9.25 C
2370 05-07-2019 05:25:00 13.7 C 74 % 9.15 C
2371 05-07-2019 05:30:00 13.7 C 74 % 9.15 C
2372 05-07-2019 05:35:00 13.7 C 75 % 9.35 C
2373 05-07-2019 05:40:00 13.7 C 75 % 9.35 C
2374 05-07-2019 05:45:00 13.7 C 75 % 9.35 C
2375 05-07-2019 05:50:00 13.7 C 76 % 9.55 C
Sensor: Nr:Datum:Temp:Feuchte:Taupunkt:
Aussen-T/F 2376 05-07-2019 05:55:00 13.7 C 76 % 9.55 C
2377 05-07-2019 06:00:00 13.8 C 76 % 9.65 C
2378 05-07-2019 06:05:00 13.8 C 76 % 9.65 C
2379 05-07-2019 06:10:00 13.8 C 76 % 9.65 C
2380 05-07-2019 06:15:00 13.8 C 76 % 9.65 C
2381 05-07-2019 06:20:00 13.9 C 76 % 9.74 C
2382 05-07-2019 06:25:00 13.9 C 77 % 9.94 C
2383 05-07-2019 06:30:00 13.9 C 76 % 9.74 C
2384 05-07-2019 06:35:00 14 C 77 % 10.04 C
2385 05-07-2019 06:40:00 14 C 77 % 10.04 C
2386 05-07-2019 06:45:00 14.1 C 77 % 10.13 C
2387 05-07-2019 06:50:00 14.1 C 76 % 9.94 C
2388 05-07-2019 06:55:00 14.1 C 76 % 9.94 C
2389 05-07-2019 07:00:00 14.2 C 77 % 10.23 C
2390 05-07-2019 07:05:00 14.2 C 77 % 10.23 C
2391 05-07-2019 07:10:00 14.3 C 77 % 10.33 C
2392 05-07-2019 07:15:00 14.3 C 77 % 10.33 C
2393 05-07-2019 07:20:00 14.3 C 75 % 9.93 C
2394 05-07-2019 07:25:00 14.4 C 75 % 10.03 C
2395 05-07-2019 07:30:00 14.6 C 75 % 10.22 C
2396 05-07-2019 07:35:00 14.7 C 74 % 10.12 C
2397 05-07-2019 07:40:00 14.8 C 75 % 10.42 C
2398 05-07-2019 07:45:00 14.9 C 75 % 10.51 C
2399 05-07-2019 07:50:00 14.9 C 74 % 10.31 C
2400 05-07-2019 07:55:00 15 C 74 % 10.41 C
Sensor: Nr:Datum:Temp:Feuchte:Taupunkt:
Aussen-T/F 2401 05-07-2019 08:00:00 15 C 74 % 10.41 C
2402 05-07-2019 08:05:00 15.2 C 75 % 10.8 C
2403 05-07-2019 08:10:00 15.3 C 74 % 10.7 C
2404 05-07-2019 08:15:00 15.5 C 73 % 10.69 C
2405 05-07-2019 08:20:00 15.7 C 73 % 10.88 C
2406 05-07-2019 08:25:00 15.8 C 73 % 10.97 C
2407 05-07-2019 08:30:00 15.9 C 73 % 11.07 C
2408 05-07-2019 08:35:00 16 C 73 % 11.17 C
2409 05-07-2019 08:40:00 16.1 C 72 % 11.06 C
2410 05-07-2019 08:45:00 16.2 C 72 % 11.15 C
2411 05-07-2019 08:50:00 16.4 C 70 % 10.92 C
2412 05-07-2019 08:55:00 16.5 C 69 % 10.8 C
2413 05-07-2019 09:00:00 16.6 C 69 % 10.89 C
2414 05-07-2019 09:05:00 16.7 C 69 % 10.99 C
2415 05-07-2019 09:10:00 16.8 C 69 % 11.09 C
2416 05-07-2019 09:15:00 16.9 C 69 % 11.18 C
2417 05-07-2019 09:20:00 17.1 C 69 % 11.37 C
2418 05-07-2019 09:25:00 17.2 C 69 % 11.47 C
2419 05-07-2019 09:30:00 17.3 C 68 % 11.34 C
2420 05-07-2019 09:35:00 17.5 C 67 % 11.31 C
2421 05-07-2019 09:40:00 17.6 C 65 % 10.95 C
2422 05-07-2019 09:45:00 17.8 C 66 % 11.37 C
2423 05-07-2019 09:50:00 17.9 C 65 % 11.23 C
2424 05-07-2019 09:55:00 18.1 C 66 % 11.65 C
2425 05-07-2019 10:00:00 18.3 C 63 % 11.14 C
Sensor: Nr:Datum:Temp:Feuchte:Taupunkt:
Aussen-T/F 2426 05-07-2019 10:05:00 18.7 C 62 % 11.28 C
2427 05-07-2019 10:10:00 18.9 C 62 % 11.47 C
2428 05-07-2019 10:15:00 19.3 C 62 % 11.84 C
2429 05-07-2019 10:20:00 19.7 C 62 % 12.22 C
2430 05-07-2019 10:25:00 20 C 61 % 12.26 C
2431 05-07-2019 10:30:00 20.4 C 58 % 11.86 C
2432 05-07-2019 10:35:00 21 C 56 % 11.89 C
2433 05-07-2019 10:40:00 21.4 C 55 % 11.99 C
2434 05-07-2019 10:45:00 21.7 C 55 % 12.27 C
2435 05-07-2019 10:50:00 21.7 C 54 % 11.99 C
2436 05-07-2019 10:55:00 21.6 C 54 % 11.9 C
2437 05-07-2019 11:00:00 21.6 C 54 % 11.9 C
2438 05-07-2019 11:05:00 21.6 C 54 % 11.9 C
2439 05-07-2019 11:10:00 21.7 C 55 % 12.27 C
2440 05-07-2019 11:15:00 21.8 C 54 % 12.08 C
2441 05-07-2019 11:20:00 21.7 C 54 % 11.99 C
2442 05-07-2019 11:25:00 21.8 C 53 % 11.8 C
2443 05-07-2019 11:30:00 21.9 C 52 % 11.61 C
2444 05-07-2019 11:35:00 22 C 52 % 11.7 C
2445 05-07-2019 11:40:00 22.1 C 53 % 12.08 C
2446 05-07-2019 11:45:00 22.3 C 53 % 12.26 C
2447 05-07-2019 11:50:00 22.4 C 52 % 12.07 C
2448 05-07-2019 11:55:00 22.4 C 52 % 12.07 C
2449 05-07-2019 12:00:00 22.3 C 52 % 11.97 C
2450 05-07-2019 12:05:00 22.3 C 51 % 11.68 C
Sensor: Nr:Datum:Temp:Feuchte:Taupunkt:
Aussen-T/F 2451 05-07-2019 12:10:00 22.4 C 52 % 12.07 C
2452 05-07-2019 12:15:00 22.4 C 51 % 11.77 C
2453 05-07-2019 12:20:00 22.5 C 51 % 11.86 C
2454 05-07-2019 12:25:00 22.6 C 51 % 11.96 C
2455 05-07-2019 12:30:00 22.7 C 52 % 12.34 C
2456 05-07-2019 12:35:00 22.9 C 50 % 11.93 C
2457 05-07-2019 12:40:00 23.1 C 49 % 11.81 C
2458 05-07-2019 12:45:00 23.4 C 48 % 11.77 C
2459 05-07-2019 12:50:00 23.7 C 49 % 12.36 C
2460 05-07-2019 12:55:00 23.8 C 47 % 11.82 C
2461 05-07-2019 13:00:00 23.8 C 48 % 12.14 C
2462 05-07-2019 13:05:00 23.9 C 47 % 11.91 C
2463 05-07-2019 13:10:00 24.1 C 46 % 11.76 C
2464 05-07-2019 13:15:00 24.2 C 46 % 11.85 C
2465 05-07-2019 13:20:00 24.3 C 45 % 11.61 C
2466 05-07-2019 13:25:00 24.4 C 45 % 11.7 C
2467 05-07-2019 13:30:00 24.4 C 45 % 11.7 C
2468 05-07-2019 13:35:00 24.6 C 46 % 12.22 C
2469 05-07-2019 13:40:00 24.7 C 45 % 11.97 C
2470 05-07-2019 13:45:00 24.7 C 44 % 11.63 C
2471 05-07-2019 13:50:00 24.7 C 44 % 11.63 C
2472 05-07-2019 13:55:00 24.8 C 44 % 11.72 C
2473 05-07-2019 14:00:00 24.8 C 44 % 11.72 C
2474 05-07-2019 14:05:00 24.8 C 43 % 11.38 C
2475 05-07-2019 14:10:00 24.9 C 44 % 11.81 C
Sensor: Nr:Datum:Temp:Feuchte:Taupunkt:
Aussen-T/F 2476 05-07-2019 14:15:00 25.1 C 45 % 12.34 C
2477 05-07-2019 14:20:00 25.2 C 43 % 11.74 C
2478 05-07-2019 14:25:00 25.3 C 42 % 11.47 C
2479 05-07-2019 14:30:00 25.4 C 41 % 11.2 C
2480 05-07-2019 14:35:00 25.5 C 43 % 12.01 C
2481 05-07-2019 14:40:00 25.9 C 42 % 12.01 C
2482 05-07-2019 14:45:00 26.2 C 43 % 12.64 C
2483 05-07-2019 14:50:00 26.3 C 40 % 11.63 C
2484 05-07-2019 14:55:00 26.6 C 43 % 13 C
2485 05-07-2019 15:00:00 27 C 41 % 12.63 C
2486 05-07-2019 15:05:00 27.2 C 38 % 11.65 C
2487 05-07-2019 15:10:00 27.3 C 39 % 12.13 C
2488 05-07-2019 15:15:00 27.3 C 38 % 11.74 C
2489 05-07-2019 15:20:00 27.2 C 38 % 11.65 C
2490 05-07-2019 15:25:00 27.1 C 38 % 11.56 C
2491 05-07-2019 15:30:00 27.1 C 38 % 11.56 C
2492 05-07-2019 15:35:00 27.3 C 37 % 11.34 C
2493 05-07-2019 15:40:00 27.6 C 38 % 12.01 C
2494 05-07-2019 15:45:00 27.8 C 37 % 11.78 C
2495 05-07-2019 15:50:00 28.2 C 36 % 11.72 C
2496 05-07-2019 15:55:00 28.3 C 36 % 11.81 C
2497 05-07-2019 16:00:00 28.3 C 36 % 11.81 C
2498 05-07-2019 16:05:00 28.3 C 35 % 11.38 C
2499 05-07-2019 16:10:00 28.6 C 36 % 12.07 C
2500 05-07-2019 16:15:00 28.6 C 37 % 12.49 C
Sensor: Nr:Datum:Temp:Feuchte:Taupunkt:
Aussen-T/F 2501 05-07-2019 16:20:00 28.9 C 35 % 11.91 C
2502 05-07-2019 16:25:00 28.9 C 34 % 11.47 C
2503 05-07-2019 16:30:00 28.8 C 34 % 11.38 C
2504 05-07-2019 16:35:00 29.1 C 35 % 12.08 C
2505 05-07-2019 16:40:00 29.3 C 35 % 12.26 C
2506 05-07-2019 16:45:00 29.4 C 34 % 11.9 C
2507 05-07-2019 16:50:00 29.5 C 33 % 11.54 C
2508 05-07-2019 16:55:00 29.3 C 34 % 11.82 C
2509 05-07-2019 17:00:00 29.2 C 34 % 11.73 C
2510 05-07-2019 17:05:00 29.2 C 34 % 11.73 C
2511 05-07-2019 17:10:00 29.4 C 33 % 11.45 C
2512 05-07-2019 17:15:00 29.7 C 34 % 12.17 C
2513 05-07-2019 17:20:00 29.7 C 34 % 12.17 C
2514 05-07-2019 17:25:00 29.6 C 34 % 12.08 C
2515 05-07-2019 17:30:00 29.6 C 35 % 12.52 C
2516 05-07-2019 17:35:00 29.7 C 34 % 12.17 C
2517 05-07-2019 17:40:00 29.7 C 33 % 11.71 C
2518 05-07-2019 17:45:00 29.7 C 33 % 11.71 C
2519 05-07-2019 17:50:00 29.8 C 34 % 12.25 C
2520 05-07-2019 17:55:00 29.9 C 33 % 11.89 C
2521 05-07-2019 18:00:00 29.9 C 34 % 12.34 C
2522 05-07-2019 18:05:00 29.6 C 35 % 12.52 C
2523 05-07-2019 18:10:00 29.8 C 35 % 12.69 C
2524 05-07-2019 18:15:00 29.9 C 34 % 12.34 C
2525 05-07-2019 18:20:00 29.7 C 34 % 12.17 C
Sensor: Nr:Datum:Temp:Feuchte:Taupunkt:
Aussen-T/F 2526 05-07-2019 18:25:00 29.4 C 34 % 11.9 C
2527 05-07-2019 18:30:00 29.3 C 35 % 12.26 C
2528 05-07-2019 18:35:00 29.4 C 35 % 12.34 C
2529 05-07-2019 18:40:00 29.4 C 35 % 12.34 C
2530 05-07-2019 18:45:00 29.3 C 37 % 13.1 C
2531 05-07-2019 18:50:00 28.9 C 35 % 11.91 C
2532 05-07-2019 18:55:00 28.4 C 37 % 12.31 C
2533 05-07-2019 19:00:00 28.4 C 38 % 12.72 C
2534 05-07-2019 19:05:00 28.3 C 38 % 12.63 C
2535 05-07-2019 19:10:00 28.3 C 38 % 12.63 C
2536 05-07-2019 19:15:00 28.1 C 38 % 12.45 C
2537 05-07-2019 19:20:00 27.9 C 38 % 12.27 C
2538 05-07-2019 19:25:00 27.7 C 38 % 12.1 C
2539 05-07-2019 19:30:00 27.6 C 39 % 12.4 C
2540 05-07-2019 19:35:00 27.7 C 39 % 12.49 C
2541 05-07-2019 19:40:00 27.5 C 39 % 12.31 C
2542 05-07-2019 19:45:00 27.2 C 39 % 12.05 C
2543 05-07-2019 19:50:00 26.9 C 40 % 12.16 C
2544 05-07-2019 19:55:00 26.6 C 40 % 11.9 C
2545 05-07-2019 20:00:00 26.4 C 41 % 12.09 C
2546 05-07-2019 20:05:00 26.3 C 41 % 12 C
2547 05-07-2019 20:10:00 26.3 C 42 % 12.37 C
2548 05-07-2019 20:15:00 26.2 C 43 % 12.64 C
2549 05-07-2019 20:20:00 26.2 C 42 % 12.28 C
2550 05-07-2019 20:25:00 26.2 C 42 % 12.28 C
Sensor: Nr:Datum:Temp:Feuchte:Taupunkt:
Aussen-T/F 2551 05-07-2019 20:30:00 26.2 C 41 % 11.91 C
2552 05-07-2019 20:35:00 26.2 C 42 % 12.28 C
2553 05-07-2019 20:40:00 26 C 42 % 12.1 C
2554 05-07-2019 20:45:00 25.9 C 43 % 12.37 C
2555 05-07-2019 20:50:00 25.8 C 46 % 13.31 C
2556 05-07-2019 20:55:00 25.6 C 47 % 13.45 C
2557 05-07-2019 21:00:00 25.2 C 48 % 13.41 C
2558 05-07-2019 21:05:00 24.7 C 49 % 13.27 C
2559 05-07-2019 21:10:00 24.3 C 50 % 13.22 C
2560 05-07-2019 21:15:00 24 C 50 % 12.94 C
2561 05-07-2019 21:20:00 23.7 C 51 % 12.97 C
2562 05-07-2019 21:25:00 23.3 C 53 % 13.19 C
2563 05-07-2019 21:30:00 23 C 53 % 12.91 C
2564 05-07-2019 21:35:00 22.7 C 54 % 12.92 C
2565 05-07-2019 21:40:00 22.3 C 55 % 12.83 C
2566 05-07-2019 21:45:00 22.1 C 56 % 12.92 C
2567 05-07-2019 21:50:00 21.8 C 56 % 12.64 C
2568 05-07-2019 21:55:00 21.6 C 57 % 12.72 C
2569 05-07-2019 22:00:00 21.5 C 57 % 12.63 C
2570 05-07-2019 22:05:00 21.4 C 58 % 12.8 C
2571 05-07-2019 22:10:00 21.3 C 58 % 12.71 C
2572 05-07-2019 22:15:00 21.2 C 58 % 12.61 C
2573 05-07-2019 22:20:00 21.2 C 59 % 12.87 C
2574 05-07-2019 22:25:00 21.1 C 59 % 12.78 C
2575 05-07-2019 22:30:00 21.1 C 60 % 13.04 C
Sensor: Nr:Datum:Temp:Feuchte:Taupunkt:
Aussen-T/F 2576 05-07-2019 22:35:00 21 C 59 % 12.69 C
2577 05-07-2019 22:40:00 21.1 C 59 % 12.78 C
2578 05-07-2019 22:45:00 21.1 C 59 % 12.78 C
2579 05-07-2019 22:50:00 21.1 C 60 % 13.04 C
2580 05-07-2019 22:55:00 21.1 C 59 % 12.78 C
2581 05-07-2019 23:00:00 21.1 C 59 % 12.78 C
2582 05-07-2019 23:05:00 21 C 60 % 12.94 C
2583 05-07-2019 23:10:00 20.9 C 60 % 12.85 C
2584 05-07-2019 23:15:00 20.8 C 60 % 12.76 C
2585 05-07-2019 23:20:00 20.8 C 61 % 13.01 C
2586 05-07-2019 23:25:00 20.7 C 62 % 13.16 C
2587 05-07-2019 23:30:00 20.5 C 63 % 13.22 C
2588 05-07-2019 23:35:00 20.3 C 64 % 13.27 C
2589 05-07-2019 23:40:00 20.1 C 64 % 13.08 C
2590 05-07-2019 23:45:00 19.8 C 66 % 13.27 C
2591 05-07-2019 23:50:00 19.5 C 66 % 12.98 C
2592 05-07-2019 23:55:00 19.3 C 67 % 13.02 C
2593 06-07-2019 00:00:00 19.1 C 68 % 13.06 C
2594 06-07-2019 00:05:00 18.9 C 68 % 12.87 C
2595 06-07-2019 00:10:00 18.8 C 69 % 13 C
2596 06-07-2019 00:15:00 18.7 C 69 % 12.9 C
2597 06-07-2019 00:20:00 18.5 C 70 % 12.93 C
2598 06-07-2019 00:25:00 18.4 C 69 % 12.61 C
2599 06-07-2019 00:30:00 18.3 C 71 % 12.95 C
2600 06-07-2019 00:35:00 18.3 C 71 % 12.95 C
Sensor: Nr:Datum:Temp:Feuchte:Taupunkt:
Aussen-T/F 2601 06-07-2019 00:40:00 18.2 C 71 % 12.86 C
2602 06-07-2019 00:45:00 18.1 C 71 % 12.76 C
2603 06-07-2019 00:50:00 18.1 C 71 % 12.76 C
2604 06-07-2019 00:55:00 18.1 C 71 % 12.76 C
2605 06-07-2019 01:00:00 18.1 C 72 % 12.98 C
2606 06-07-2019 01:05:00 18 C 71 % 12.67 C
2607 06-07-2019 01:10:00 17.9 C 71 % 12.57 C
2608 06-07-2019 01:15:00 17.9 C 72 % 12.78 C
2609 06-07-2019 01:20:00 17.8 C 73 % 12.9 C
2610 06-07-2019 01:25:00 17.7 C 73 % 12.8 C
2611 06-07-2019 01:30:00 17.6 C 73 % 12.71 C
2612 06-07-2019 01:35:00 17.4 C 73 % 12.51 C
2613 06-07-2019 01:40:00 17.3 C 74 % 12.62 C
2614 06-07-2019 01:45:00 17.3 C 74 % 12.62 C
2615 06-07-2019 01:50:00 17.2 C 75 % 12.73 C
2616 06-07-2019 01:55:00 17.1 C 76 % 12.84 C
2617 06-07-2019 02:00:00 17.1 C 76 % 12.84 C
2618 06-07-2019 02:05:00 17.1 C 76 % 12.84 C
2619 06-07-2019 02:10:00 17.1 C 76 % 12.84 C
2620 06-07-2019 02:15:00 17 C 76 % 12.74 C
2621 06-07-2019 02:20:00 17 C 76 % 12.74 C
2622 06-07-2019 02:25:00 17 C 76 % 12.74 C
2623 06-07-2019 02:30:00 17 C 76 % 12.74 C
2624 06-07-2019 02:35:00 17.1 C 77 % 13.04 C
2625 06-07-2019 02:40:00 17.1 C 76 % 12.84 C
Sensor: Nr:Datum:Temp:Feuchte:Taupunkt:
Aussen-T/F 2626 06-07-2019 02:45:00 17.1 C 76 % 12.84 C
2627 06-07-2019 02:50:00 17.1 C 77 % 13.04 C
2628 06-07-2019 02:55:00 17 C 77 % 12.94 C
2629 06-07-2019 03:00:00 17 C 77 % 12.94 C
2630 06-07-2019 03:05:00 17 C 77 % 12.94 C
2631 06-07-2019 03:10:00 17 C 77 % 12.94 C
2632 06-07-2019 03:15:00 17 C 77 % 12.94 C
2633 06-07-2019 03:20:00 16.9 C 77 % 12.84 C
2634 06-07-2019 03:25:00 16.9 C 77 % 12.84 C
2635 06-07-2019 03:30:00 16.9 C 78 % 13.04 C
2636 06-07-2019 03:35:00 16.8 C 78 % 12.94 C
2637 06-07-2019 03:40:00 16.8 C 78 % 12.94 C
2638 06-07-2019 03:45:00 16.8 C 78 % 12.94 C
2639 06-07-2019 03:50:00 16.7 C 78 % 12.85 C
2640 06-07-2019 03:55:00 16.7 C 78 % 12.85 C
2641 06-07-2019 04:00:00 16.6 C 78 % 12.75 C
2642 06-07-2019 04:05:00 16.5 C 79 % 12.85 C
2643 06-07-2019 04:10:00 16.4 C 79 % 12.75 C
2644 06-07-2019 04:15:00 16.4 C 79 % 12.75 C
2645 06-07-2019 04:20:00 16.3 C 79 % 12.65 C
2646 06-07-2019 04:25:00 16.2 C 79 % 12.56 C
2647 06-07-2019 04:30:00 16.1 C 80 % 12.65 C
2648 06-07-2019 04:35:00 16 C 80 % 12.55 C
2649 06-07-2019 04:40:00 15.9 C 80 % 12.46 C
2650 06-07-2019 04:45:00 15.9 C 81 % 12.65 C
Sensor: Nr:Datum:Temp:Feuchte:Taupunkt:
Aussen-T/F 2651 06-07-2019 04:50:00 15.9 C 81 % 12.65 C
2652 06-07-2019 04:55:00 15.8 C 81 % 12.55 C
2653 06-07-2019 05:00:00 15.8 C 81 % 12.55 C
2654 06-07-2019 05:05:00 15.8 C 81 % 12.55 C
2655 06-07-2019 05:10:00 15.7 C 81 % 12.45 C
2656 06-07-2019 05:15:00 15.7 C 81 % 12.45 C
2657 06-07-2019 05:20:00 15.6 C 82 % 12.54 C
2658 06-07-2019 05:25:00 15.5 C 81 % 12.26 C
2659 06-07-2019 05:30:00 15.4 C 81 % 12.16 C
2660 06-07-2019 05:35:00 15.3 C 82 % 12.25 C
2661 06-07-2019 05:40:00 15.1 C 82 % 12.05 C
2662 06-07-2019 05:45:00 15.1 C 83 % 12.24 C
2663 06-07-2019 05:50:00 15.1 C 83 % 12.24 C
2664 06-07-2019 05:55:00 15 C 84 % 12.32 C
2665 06-07-2019 06:00:00 14.9 C 84 % 12.22 C
2666 06-07-2019 06:05:00 15 C 84 % 12.32 C
2667 06-07-2019 06:10:00 15.1 C 84 % 12.42 C
2668 06-07-2019 06:15:00 15.1 C 85 % 12.6 C
2669 06-07-2019 06:20:00 15.2 C 85 % 12.7 C
2670 06-07-2019 06:25:00 15.2 C 85 % 12.7 C
2671 06-07-2019 06:30:00 15.2 C 85 % 12.7 C
2672 06-07-2019 06:35:00 15.3 C 85 % 12.79 C
2673 06-07-2019 06:40:00 15.3 C 85 % 12.79 C
2674 06-07-2019 06:45:00 15.3 C 85 % 12.79 C
2675 06-07-2019 06:50:00 15.3 C 84 % 12.61 C
Sensor: Nr:Datum:Temp:Feuchte:Taupunkt:
Aussen-T/F 2676 06-07-2019 06:55:00 15.3 C 84 % 12.61 C
2677 06-07-2019 07:00:00 15.3 C 84 % 12.61 C
2678 06-07-2019 07:05:00 15.2 C 84 % 12.52 C
2679 06-07-2019 07:10:00 15.2 C 84 % 12.52 C
2680 06-07-2019 07:15:00 15.1 C 85 % 12.6 C
2681 06-07-2019 07:20:00 15.1 C 85 % 12.6 C
2682 06-07-2019 07:25:00 15 C 85 % 12.5 C
2683 06-07-2019 07:30:00 15 C 85 % 12.5 C
2684 06-07-2019 07:35:00 15.1 C 86 % 12.78 C
2685 06-07-2019 07:40:00 15.1 C 86 % 12.78 C
2686 06-07-2019 07:45:00 15.2 C 86 % 12.88 C
2687 06-07-2019 07:50:00 15.3 C 86 % 12.97 C
2688 06-07-2019 07:55:00 15.6 C 85 % 13.09 C
2689 06-07-2019 08:00:00 15.8 C 84 % 13.1 C
2690 06-07-2019 08:05:00 15.9 C 83 % 13.02 C
2691 06-07-2019 08:10:00 16.2 C 83 % 13.31 C
2692 06-07-2019 08:15:00 16.4 C 82 % 13.32 C
2693 06-07-2019 08:20:00 16.6 C 82 % 13.52 C
2694 06-07-2019 08:25:00 16.8 C 81 % 13.52 C
2695 06-07-2019 08:30:00 16.9 C 81 % 13.62 C
2696 06-07-2019 08:35:00 17.1 C 80 % 13.62 C
2697 06-07-2019 08:40:00 17.2 C 81 % 13.91 C
2698 06-07-2019 08:45:00 17.3 C 80 % 13.82 C
2699 06-07-2019 08:50:00 17.4 C 79 % 13.72 C
2700 06-07-2019 08:55:00 17.8 C 79 % 14.11 C
Sensor: Nr:Datum:Temp:Feuchte:Taupunkt:
Aussen-T/F 2701 06-07-2019 09:00:00 17.9 C 78 % 14.01 C
2702 06-07-2019 09:05:00 18.2 C 76 % 13.9 C
2703 06-07-2019 09:10:00 18.4 C 76 % 14.1 C
2704 06-07-2019 09:15:00 18.6 C 75 % 14.08 C
2705 06-07-2019 09:20:00 18.9 C 74 % 14.17 C
2706 06-07-2019 09:25:00 19.2 C 74 % 14.46 C
2707 06-07-2019 09:30:00 19.5 C 71 % 14.1 C
2708 06-07-2019 09:35:00 19.9 C 69 % 14.05 C
2709 06-07-2019 09:40:00 20.3 C 67 % 13.97 C
2710 06-07-2019 09:45:00 20.6 C 67 % 14.26 C
2711 06-07-2019 09:50:00 20.7 C 67 % 14.36 C
2712 06-07-2019 09:55:00 20.9 C 66 % 14.31 C
2713 06-07-2019 10:00:00 21.1 C 66 % 14.5 C
2714 06-07-2019 10:05:00 21.1 C 66 % 14.5 C
2715 06-07-2019 10:10:00 21.2 C 67 % 14.83 C
2716 06-07-2019 10:15:00 21.3 C 65 % 14.46 C
2717 06-07-2019 10:20:00 21.6 C 66 % 14.98 C
2718 06-07-2019 10:25:00 21.9 C 63 % 14.54 C
2719 06-07-2019 10:30:00 22.4 C 62 % 14.76 C
2720 06-07-2019 10:35:00 22.7 C 61 % 14.79 C
2721 06-07-2019 10:40:00 22.9 C 59 % 14.47 C
2722 06-07-2019 10:45:00 23.1 C 59 % 14.65 C
2723 06-07-2019 10:50:00 23.3 C 59 % 14.84 C
2724 06-07-2019 10:55:00 23.4 C 57 % 14.4 C
2725 06-07-2019 11:00:00 23.6 C 56 % 14.31 C
Sensor: Nr:Datum:Temp:Feuchte:Taupunkt:
Aussen-T/F 2726 06-07-2019 11:05:00 23.8 C 55 % 14.22 C
2727 06-07-2019 11:10:00 23.9 C 55 % 14.31 C
2728 06-07-2019 11:15:00 24.1 C 54 % 14.21 C
2729 06-07-2019 11:20:00 24.2 C 55 % 14.59 C
2730 06-07-2019 11:25:00 24.2 C 55 % 14.59 C
2731 06-07-2019 11:30:00 24.3 C 54 % 14.4 C
2732 06-07-2019 11:35:00 24.6 C 52 % 14.09 C
2733 06-07-2019 11:40:00 24.9 C 51 % 14.07 C
2734 06-07-2019 11:45:00 25.1 C 49 % 13.64 C
2735 06-07-2019 11:50:00 25.1 C 50 % 13.95 C
2736 06-07-2019 11:55:00 25.2 C 49 % 13.73 C
2737 06-07-2019 12:00:00 25.3 C 50 % 14.13 C
2738 06-07-2019 12:05:00 25.3 C 49 % 13.82 C
2739 06-07-2019 12:10:00 25.4 C 50 % 14.22 C
2740 06-07-2019 12:15:00 25.5 C 50 % 14.32 C
2741 06-07-2019 12:20:00 25.4 C 51 % 14.53 C
2742 06-07-2019 12:25:00 25.4 C 51 % 14.53 C
2743 06-07-2019 12:30:00 25.3 C 50 % 14.13 C
2744 06-07-2019 12:35:00 25.3 C 51 % 14.44 C
2745 06-07-2019 12:40:00 25.5 C 50 % 14.32 C
2746 06-07-2019 12:45:00 25.7 C 50 % 14.5 C
2747 06-07-2019 12:50:00 25.8 C 49 % 14.28 C
2748 06-07-2019 12:55:00 25.9 C 49 % 14.37 C
2749 06-07-2019 13:00:00 26.1 C 47 % 13.91 C
2750 06-07-2019 13:05:00 26.3 C 48 % 14.42 C
Sensor: Nr:Datum:Temp:Feuchte:Taupunkt:
Aussen-T/F 2751 06-07-2019 13:10:00 26.4 C 46 % 13.85 C
2752 06-07-2019 13:15:00 26.6 C 44 % 13.35 C
2753 06-07-2019 13:20:00 26.7 C 44 % 13.44 C
2754 06-07-2019 13:25:00 26.8 C 43 % 13.18 C
2755 06-07-2019 13:30:00 26.9 C 42 % 12.91 C
2756 06-07-2019 13:35:00 27.1 C 41 % 12.72 C
2757 06-07-2019 13:40:00 27.2 C 42 % 13.18 C
2758 06-07-2019 13:45:00 27.3 C 41 % 12.9 C
2759 06-07-2019 13:50:00 27.3 C 42 % 13.27 C
2760 06-07-2019 13:55:00 27.4 C 42 % 13.35 C
2761 06-07-2019 14:00:00 27.5 C 41 % 13.08 C
2762 06-07-2019 14:05:00 27.6 C 41 % 13.16 C
2763 06-07-2019 14:10:00 27.7 C 41 % 13.25 C
2764 06-07-2019 14:15:00 27.9 C 42 % 13.8 C
2765 06-07-2019 14:20:00 28.2 C 35 % 11.29 C
2766 06-07-2019 14:25:00 28.8 C 27 % 7.95 C
2767 06-07-2019 14:30:00 29.2 C 27 % 8.29 C
2768 06-07-2019 14:35:00 29.6 C 25 % 7.5 C
2769 06-07-2019 14:40:00 29.4 C 25 % 7.33 C
2770 06-07-2019 14:45:00 29.2 C 27 % 8.29 C
2771 06-07-2019 14:50:00 29.4 C 26 % 7.9 C
2772 06-07-2019 14:55:00 29.9 C 28 % 9.42 C
2773 06-07-2019 15:00:00 30.3 C 26 % 8.66 C
2774 06-07-2019 15:05:00 30.4 C 24 % 7.57 C
2775 06-07-2019 15:10:00 30.4 C 24 % 7.57 C
Sensor: Nr:Datum:Temp:Feuchte:Taupunkt:
Aussen-T/F 2776 06-07-2019 15:15:00 30.6 C 24 % 7.74 C
2777 06-07-2019 15:20:00 30.7 C 24 % 7.82 C
2778 06-07-2019 15:25:00 30.8 C 25 % 8.51 C
2779 06-07-2019 15:30:00 31.1 C 22 % 6.88 C
2780 06-07-2019 15:35:00 31.3 C 21 % 6.37 C
2781 06-07-2019 15:40:00 31.4 C 21 % 6.46 C
2782 06-07-2019 15:45:00 31.7 C 21 % 6.7 C
2783 06-07-2019 15:50:00 31.7 C 19 % 5.26 C
2784 06-07-2019 15:55:00 31.1 C 20 % 5.51 C
2785 06-07-2019 16:00:00 30.4 C 19 % 4.2 C
2786 06-07-2019 16:05:00 29.9 C 20 % 4.52 C
2787 06-07-2019 16:10:00 29.8 C 19 % 3.71 C
2788 06-07-2019 16:15:00 29.7 C 21 % 5.06 C
2789 06-07-2019 16:20:00 29.3 C 20 % 4.03 C
2790 06-07-2019 16:25:00 29 C 21 % 4.48 C
2791 06-07-2019 16:30:00 28.8 C 22 % 4.98 C
2792 06-07-2019 16:35:00 28.6 C 23 % 5.45 C
2793 06-07-2019 16:40:00 28.4 C 23 % 5.28 C
2794 06-07-2019 16:45:00 28.4 C 24 % 5.9 C
2795 06-07-2019 16:50:00 28.4 C 24 % 5.9 C
2796 06-07-2019 16:55:00 28.3 C 24 % 5.81 C
2797 06-07-2019 17:00:00 28.3 C 25 % 6.4 C
2798 06-07-2019 17:05:00 28.2 C 26 % 6.89 C
2799 06-07-2019 17:10:00 28.1 C 27 % 7.35 C
2800 06-07-2019 17:15:00 28.2 C 28 % 7.97 C
Sensor: Nr:Datum:Temp:Feuchte:Taupunkt:
Aussen-T/F 2801 06-07-2019 17:20:00 28.4 C 29 % 8.66 C
2802 06-07-2019 17:25:00 28.2 C 29 % 8.49 C
2803 06-07-2019 17:30:00 28.1 C 30 % 8.9 C
2804 06-07-2019 17:35:00 27.9 C 31 % 9.22 C
2805 06-07-2019 17:40:00 27.7 C 30 % 8.56 C
2806 06-07-2019 17:45:00 27.4 C 31 % 8.78 C
2807 06-07-2019 17:50:00 27.2 C 30 % 8.13 C
2808 06-07-2019 17:55:00 27 C 30 % 7.96 C
2809 06-07-2019 18:00:00 26.7 C 30 % 7.7 C
2810 06-07-2019 18:05:00 26.3 C 33 % 8.75 C
2811 06-07-2019 18:10:00 25.2 C 42 % 11.38 C
2812 06-07-2019 18:15:00 23.7 C 50 % 12.67 C
2813 06-07-2019 18:20:00 22.6 C 56 % 13.38 C
2814 06-07-2019 18:25:00 21.9 C 58 % 13.27 C
2815 06-07-2019 18:30:00 21.6 C 63 % 14.26 C
2816 06-07-2019 18:35:00 21.2 C 59 % 12.87 C
2817 06-07-2019 18:40:00 21.1 C 60 % 13.04 C
2818 06-07-2019 18:45:00 21.1 C 58 % 12.52 C
2819 06-07-2019 18:50:00 21.2 C 56 % 12.08 C
2820 06-07-2019 18:55:00 21.3 C 56 % 12.17 C
2821 06-07-2019 19:00:00 21.4 C 54 % 11.71 C
2822 06-07-2019 19:05:00 21.4 C 55 % 11.99 C
2823 06-07-2019 19:10:00 21.5 C 55 % 12.08 C
2824 06-07-2019 19:15:00 21.6 C 55 % 12.18 C
2825 06-07-2019 19:20:00 21.6 C 55 % 12.18 C
Sensor: Nr:Datum:Temp:Feuchte:Taupunkt:
Aussen-T/F 2826 06-07-2019 19:25:00 21.6 C 55 % 12.18 C
2827 06-07-2019 19:30:00 21.7 C 54 % 11.99 C
2828 06-07-2019 19:35:00 21.8 C 55 % 12.36 C
2829 06-07-2019 19:40:00 21.8 C 55 % 12.36 C
2830 06-07-2019 19:45:00 21.8 C 57 % 12.91 C
2831 06-07-2019 19:50:00 21.7 C 59 % 13.34 C
2832 06-07-2019 19:55:00 21.4 C 62 % 13.82 C
2833 06-07-2019 20:00:00 21.2 C 63 % 13.88 C
2834 06-07-2019 20:05:00 21 C 63 % 13.69 C
2835 06-07-2019 20:10:00 20.7 C 62 % 13.16 C
2836 06-07-2019 20:15:00 20.6 C 59 % 12.31 C
2837 06-07-2019 20:20:00 20.6 C 61 % 12.82 C
2838 06-07-2019 20:25:00 20.5 C 63 % 13.22 C
2839 06-07-2019 20:30:00 20.4 C 67 % 14.07 C
2840 06-07-2019 20:35:00 20.1 C 68 % 14.01 C
2841 06-07-2019 20:40:00 19.8 C 67 % 13.5 C
2842 06-07-2019 20:45:00 19.8 C 67 % 13.5 C
2843 06-07-2019 20:50:00 19.8 C 66 % 13.27 C
2844 06-07-2019 20:55:00 19.8 C 67 % 13.5 C
2845 06-07-2019 21:00:00 19.8 C 66 % 13.27 C
2846 06-07-2019 21:05:00 19.8 C 66 % 13.27 C
2847 06-07-2019 21:10:00 19.8 C 67 % 13.5 C
2848 06-07-2019 21:15:00 19.8 C 65 % 13.03 C
2849 06-07-2019 21:20:00 19.8 C 65 % 13.03 C
2850 06-07-2019 21:25:00 19.9 C 66 % 13.36 C
Sensor: Nr:Datum:Temp:Feuchte:Taupunkt:
Aussen-T/F 2851 06-07-2019 21:30:00 19.8 C 66 % 13.27 C
2852 06-07-2019 21:35:00 19.8 C 66 % 13.27 C
2853 06-07-2019 21:40:00 19.7 C 67 % 13.4 C
2854 06-07-2019 21:45:00 19.7 C 69 % 13.86 C
2855 06-07-2019 21:50:00 19.6 C 70 % 13.98 C
2856 06-07-2019 21:55:00 19.6 C 69 % 13.76 C
2857 06-07-2019 22:00:00 19.5 C 70 % 13.89 C
2858 06-07-2019 22:05:00 19.4 C 71 % 14.01 C
2859 06-07-2019 22:10:00 19.4 C 72 % 14.22 C
2860 06-07-2019 22:15:00 19.4 C 72 % 14.22 C
2861 06-07-2019 22:20:00 19.3 C 70 % 13.69 C
2862 06-07-2019 22:25:00 19.4 C 71 % 14.01 C
2863 06-07-2019 22:30:00 19.7 C 71 % 14.3 C
2864 06-07-2019 22:35:00 19.9 C 72 % 14.7 C
2865 06-07-2019 22:40:00 20.3 C 72 % 15.09 C
2866 06-07-2019 22:45:00 20.6 C 71 % 15.16 C
2867 06-07-2019 22:50:00 20.7 C 71 % 15.25 C
2868 06-07-2019 22:55:00 20.8 C 71 % 15.35 C
2869 06-07-2019 23:00:00 20.8 C 71 % 15.35 C
2870 06-07-2019 23:05:00 20.8 C 71 % 15.35 C
2871 06-07-2019 23:10:00 20.7 C 71 % 15.25 C
2872 06-07-2019 23:15:00 20.7 C 71 % 15.25 C
2873 06-07-2019 23:20:00 20.7 C 71 % 15.25 C
2874 06-07-2019 23:25:00 20.6 C 71 % 15.16 C
2875 06-07-2019 23:30:00 20.4 C 72 % 15.18 C
Sensor: Nr:Datum:Temp:Feuchte:Taupunkt:
Aussen-T/F 2876 06-07-2019 23:35:00 20.3 C 72 % 15.09 C
2877 06-07-2019 23:40:00 20.1 C 71 % 14.68 C
2878 06-07-2019 23:45:00 19.9 C 72 % 14.7 C
2879 06-07-2019 23:50:00 19.7 C 72 % 14.51 C
2880 06-07-2019 23:55:00 19.6 C 72 % 14.42 C
2881 07-07-2019 00:00:00 19.4 C 73 % 14.44 C
2882 07-07-2019 00:05:00 19.3 C 73 % 14.34 C
2883 07-07-2019 00:10:00 19.3 C 74 % 14.55 C
2884 07-07-2019 00:15:00 19.2 C 74 % 14.46 C
2885 07-07-2019 00:20:00 19.1 C 74 % 14.36 C
2886 07-07-2019 00:25:00 19 C 75 % 14.47 C
2887 07-07-2019 00:30:00 18.9 C 74 % 14.17 C
2888 07-07-2019 00:35:00 18.8 C 74 % 14.07 C
2889 07-07-2019 00:40:00 18.7 C 74 % 13.97 C
2890 07-07-2019 00:45:00 18.6 C 75 % 14.08 C
2891 07-07-2019 00:50:00 18.5 C 75 % 13.99 C
2892 07-07-2019 00:55:00 18.4 C 75 % 13.89 C
2893 07-07-2019 01:00:00 18.3 C 76 % 14 C
2894 07-07-2019 01:05:00 18.2 C 77 % 14.1 C
2895 07-07-2019 01:10:00 18.1 C 77 % 14.01 C
2896 07-07-2019 01:15:00 18.1 C 78 % 14.21 C
2897 07-07-2019 01:20:00 18 C 78 % 14.11 C
2898 07-07-2019 01:25:00 17.9 C 78 % 14.01 C
2899 07-07-2019 01:30:00 17.9 C 78 % 14.01 C
2900 07-07-2019 01:35:00 17.8 C 78 % 13.91 C
Sensor: Nr:Datum:Temp:Feuchte:Taupunkt:
Aussen-T/F 2901 07-07-2019 01:40:00 17.7 C 77 % 13.62 C
2902 07-07-2019 01:45:00 17.6 C 78 % 13.72 C
2903 07-07-2019 01:50:00 17.5 C 77 % 13.43 C
2904 07-07-2019 01:55:00 17.5 C 77 % 13.43 C
2905 07-07-2019 02:00:00 17.4 C 76 % 13.13 C
2906 07-07-2019 02:05:00 17.4 C 75 % 12.93 C
2907 07-07-2019 02:10:00 17.4 C 74 % 12.72 C
2908 07-07-2019 02:15:00 17.4 C 74 % 12.72 C
2909 07-07-2019 02:20:00 17.4 C 74 % 12.72 C
2910 07-07-2019 02:25:00 17.4 C 74 % 12.72 C
2911 07-07-2019 02:30:00 17.3 C 74 % 12.62 C
2912 07-07-2019 02:35:00 17.3 C 74 % 12.62 C
2913 07-07-2019 02:40:00 17.3 C 74 % 12.62 C
2914 07-07-2019 02:45:00 17.3 C 75 % 12.83 C
2915 07-07-2019 02:50:00 17.2 C 75 % 12.73 C
2916 07-07-2019 02:55:00 17.2 C 75 % 12.73 C
2917 07-07-2019 03:00:00 17.2 C 75 % 12.73 C
2918 07-07-2019 03:05:00 17.1 C 76 % 12.84 C
2919 07-07-2019 03:10:00 17.1 C 76 % 12.84 C
2920 07-07-2019 03:15:00 17.1 C 76 % 12.84 C
2921 07-07-2019 03:20:00 17.1 C 76 % 12.84 C
2922 07-07-2019 03:25:00 17 C 76 % 12.74 C
2923 07-07-2019 03:30:00 16.9 C 76 % 12.65 C
2924 07-07-2019 03:35:00 16.9 C 76 % 12.65 C
2925 07-07-2019 03:40:00 16.9 C 75 % 12.44 C
Sensor: Nr:Datum:Temp:Feuchte:Taupunkt:
Aussen-T/F 2926 07-07-2019 03:45:00 16.9 C 75 % 12.44 C
2927 07-07-2019 03:50:00 16.9 C 75 % 12.44 C
2928 07-07-2019 03:55:00 16.9 C 75 % 12.44 C
2929 07-07-2019 04:00:00 16.9 C 75 % 12.44 C
2930 07-07-2019 04:05:00 16.9 C 74 % 12.24 C
2931 07-07-2019 04:10:00 16.9 C 75 % 12.44 C
2932 07-07-2019 04:15:00 16.9 C 75 % 12.44 C
2933 07-07-2019 04:20:00 16.8 C 75 % 12.35 C
2934 07-07-2019 04:25:00 16.8 C 75 % 12.35 C
2935 07-07-2019 04:30:00 16.8 C 75 % 12.35 C
2936 07-07-2019 04:35:00 16.8 C 75 % 12.35 C
2937 07-07-2019 04:40:00 16.8 C 77 % 12.75 C
2938 07-07-2019 04:45:00 16.8 C 78 % 12.94 C
2939 07-07-2019 04:50:00 16.8 C 78 % 12.94 C
2940 07-07-2019 04:55:00 16.7 C 78 % 12.85 C
2941 07-07-2019 05:00:00 16.7 C 79 % 13.04 C
2942 07-07-2019 05:05:00 16.7 C 79 % 13.04 C
2943 07-07-2019 05:10:00 16.6 C 79 % 12.95 C
2944 07-07-2019 05:15:00 16.6 C 78 % 12.75 C
2945 07-07-2019 05:20:00 16.5 C 78 % 12.65 C
2946 07-07-2019 05:25:00 16.4 C 78 % 12.56 C
2947 07-07-2019 05:30:00 16.4 C 78 % 12.56 C
2948 07-07-2019 05:35:00 16.4 C 79 % 12.75 C
2949 07-07-2019 05:40:00 16.3 C 80 % 12.85 C
2950 07-07-2019 05:45:00 16.1 C 82 % 13.03 C
Sensor: Nr:Datum:Temp:Feuchte:Taupunkt:
Aussen-T/F 2951 07-07-2019 05:50:00 15.8 C 84 % 13.1 C
2952 07-07-2019 05:55:00 15.7 C 85 % 13.19 C
2953 07-07-2019 06:00:00 15.5 C 87 % 13.35 C
2954 07-07-2019 06:05:00 15.4 C 87 % 13.25 C
2955 07-07-2019 06:10:00 15.3 C 88 % 13.33 C
2956 07-07-2019 06:15:00 15.1 C 88 % 13.13 C
2957 07-07-2019 06:20:00 14.9 C 89 % 13.1 C
2958 07-07-2019 06:25:00 14.9 C 90 % 13.28 C
2959 07-07-2019 06:30:00 14.8 C 90 % 13.18 C
2960 07-07-2019 06:35:00 14.8 C 91 % 13.35 C
2961 07-07-2019 06:40:00 14.8 C 91 % 13.35 C
2962 07-07-2019 06:45:00 14.8 C 92 % 13.51 C
2963 07-07-2019 06:50:00 14.8 C 92 % 13.51 C
2964 07-07-2019 06:55:00 14.8 C 92 % 13.51 C
2965 07-07-2019 07:00:00 14.7 C 92 % 13.41 C
2966 07-07-2019 07:05:00 14.7 C 93 % 13.58 C
2967 07-07-2019 07:10:00 14.7 C 93 % 13.58 C
2968 07-07-2019 07:15:00 14.7 C 93 % 13.58 C
2969 07-07-2019 07:20:00 14.7 C 93 % 13.58 C
2970 07-07-2019 07:25:00 14.7 C 93 % 13.58 C
2971 07-07-2019 07:30:00 14.7 C 93 % 13.58 C
2972 07-07-2019 07:35:00 14.7 C 93 % 13.58 C
2973 07-07-2019 07:40:00 14.7 C 93 % 13.58 C
2974 07-07-2019 07:45:00 14.6 C 93 % 13.48 C
2975 07-07-2019 07:50:00 14.5 C 93 % 13.38 C
Sensor: Nr:Datum:Temp:Feuchte:Taupunkt:
Aussen-T/F 2976 07-07-2019 07:55:00 14.4 C 93 % 13.28 C
2977 07-07-2019 08:00:00 14.3 C 93 % 13.18 C
2978 07-07-2019 08:05:00 14.3 C 93 % 13.18 C
2979 07-07-2019 08:10:00 14.3 C 93 % 13.18 C
2980 07-07-2019 08:15:00 14.2 C 93 % 13.08 C
2981 07-07-2019 08:20:00 14.2 C 94 % 13.25 C
2982 07-07-2019 08:25:00 14.2 C 94 % 13.25 C
2983 07-07-2019 08:30:00 14.2 C 94 % 13.25 C
2984 07-07-2019 08:35:00 14.2 C 94 % 13.25 C
2985 07-07-2019 08:40:00 14.3 C 94 % 13.35 C
2986 07-07-2019 08:45:00 14.3 C 94 % 13.35 C
2987 07-07-2019 08:50:00 14.4 C 94 % 13.45 C
2988 07-07-2019 08:55:00 14.5 C 95 % 13.71 C
2989 07-07-2019 09:00:00 14.5 C 94 % 13.55 C
2990 07-07-2019 09:05:00 14.4 C 94 % 13.45 C
2991 07-07-2019 09:10:00 14.4 C 94 % 13.45 C
2992 07-07-2019 09:15:00 14.3 C 94 % 13.35 C
2993 07-07-2019 09:20:00 14.4 C 94 % 13.45 C
2994 07-07-2019 09:25:00 14.4 C 94 % 13.45 C
2995 07-07-2019 09:30:00 14.6 C 94 % 13.65 C
2996 07-07-2019 09:35:00 14.9 C 95 % 14.11 C
2997 07-07-2019 09:40:00 15.2 C 95 % 14.4 C
2998 07-07-2019 09:45:00 15.4 C 95 % 14.6 C
2999 07-07-2019 09:50:00 15.6 C 94 % 14.64 C
3000 07-07-2019 09:55:00 15.3 C 93 % 14.18 C
Sensor: Nr:Datum:Temp:Feuchte:Taupunkt:
Aussen-T/F 3001 07-07-2019 10:00:00 15.2 C 92 % 13.91 C
3002 07-07-2019 10:05:00 15.2 C 92 % 13.91 C
3003 07-07-2019 10:10:00 15.3 C 90 % 13.67 C
3004 07-07-2019 10:15:00 15.3 C 89 % 13.5 C
3005 07-07-2019 10:20:00 15.4 C 89 % 13.6 C
3006 07-07-2019 10:25:00 15.4 C 88 % 13.42 C
3007 07-07-2019 10:30:00 15.4 C 86 % 13.07 C
3008 07-07-2019 10:35:00 15.3 C 83 % 12.43 C
3009 07-07-2019 10:40:00 15.3 C 81 % 12.06 C
3010 07-07-2019 10:45:00 15.4 C 81 % 12.16 C
3011 07-07-2019 10:50:00 15.6 C 83 % 12.72 C
3012 07-07-2019 10:55:00 15.8 C 80 % 12.36 C
3013 07-07-2019 11:00:00 15.9 C 78 % 12.07 C
3014 07-07-2019 11:05:00 16 C 78 % 12.17 C
3015 07-07-2019 11:10:00 16.1 C 78 % 12.27 C
3016 07-07-2019 11:15:00 16.1 C 79 % 12.46 C
3017 07-07-2019 11:20:00 16.2 C 77 % 12.17 C
3018 07-07-2019 11:25:00 16.3 C 77 % 12.26 C
3019 07-07-2019 11:30:00 16.5 C 75 % 12.06 C
3020 07-07-2019 11:35:00 16.6 C 75 % 12.15 C
3021 07-07-2019 11:40:00 16.9 C 75 % 12.44 C
3022 07-07-2019 11:45:00 17 C 72 % 11.92 C
3023 07-07-2019 11:50:00 17.2 C 72 % 12.11 C
3024 07-07-2019 11:55:00 17.3 C 69 % 11.56 C
3025 07-07-2019 12:00:00 17.3 C 68 % 11.34 C
Sensor: Nr:Datum:Temp:Feuchte:Taupunkt:
Aussen-T/F 3026 07-07-2019 12:05:00 17.5 C 71 % 12.19 C
3027 07-07-2019 12:10:00 17.6 C 68 % 11.63 C
3028 07-07-2019 12:15:00 17.7 C 69 % 11.95 C
3029 07-07-2019 12:20:00 17.7 C 69 % 11.95 C
3030 07-07-2019 12:25:00 17.8 C 68 % 11.82 C
3031 07-07-2019 12:30:00 17.8 C 66 % 11.37 C
3032 07-07-2019 12:35:00 17.8 C 68 % 11.82 C
3033 07-07-2019 12:40:00 17.9 C 65 % 11.23 C
3034 07-07-2019 12:45:00 17.9 C 68 % 11.91 C
3035 07-07-2019 12:50:00 17.9 C 66 % 11.46 C
3036 07-07-2019 12:55:00 17.9 C 65 % 11.23 C
3037 07-07-2019 13:00:00 18.1 C 67 % 11.88 C
3038 07-07-2019 13:05:00 18.1 C 64 % 11.19 C
3039 07-07-2019 13:10:00 18.2 C 65 % 11.52 C
3040 07-07-2019 13:15:00 18.1 C 63 % 10.95 C
3041 07-07-2019 13:20:00 18.2 C 64 % 11.28 C
3042 07-07-2019 13:25:00 18.3 C 65 % 11.61 C
3043 07-07-2019 13:30:00 18.6 C 63 % 11.42 C
3044 07-07-2019 13:35:00 18.8 C 61 % 11.13 C
3045 07-07-2019 13:40:00 18.9 C 61 % 11.22 C
3046 07-07-2019 13:45:00 18.8 C 59 % 10.63 C
3047 07-07-2019 13:50:00 18.9 C 58 % 10.46 C
3048 07-07-2019 13:55:00 19 C 59 % 10.81 C
3049 07-07-2019 14:00:00 19.2 C 58 % 10.74 C
3050 07-07-2019 14:05:00 19.1 C 57 % 10.39 C
Sensor: Nr:Datum:Temp:Feuchte:Taupunkt:
Aussen-T/F 3051 07-07-2019 14:10:00 19 C 59 % 10.81 C
3052 07-07-2019 14:15:00 19.1 C 57 % 10.39 C
3053 07-07-2019 14:20:00 19.1 C 58 % 10.65 C
3054 07-07-2019 14:25:00 19.2 C 57 % 10.48 C
3055 07-07-2019 14:30:00 19.4 C 54 % 9.86 C
3056 07-07-2019 14:35:00 19.4 C 54 % 9.86 C
3057 07-07-2019 14:40:00 19.3 C 55 % 10.04 C
3058 07-07-2019 14:45:00 19.3 C 54 % 9.77 C
3059 07-07-2019 14:50:00 19.4 C 54 % 9.86 C
3060 07-07-2019 14:55:00 19.6 C 51 % 9.2 C
3061 07-07-2019 15:00:00 19.7 C 52 % 9.58 C
3062 07-07-2019 15:05:00 19.9 C 53 % 10.04 C
3063 07-07-2019 15:10:00 20.5 C 52 % 10.31 C
3064 07-07-2019 15:15:00 20.8 C 50 % 10 C
3065 07-07-2019 15:20:00 20.8 C 50 % 10 C
3066 07-07-2019 15:25:00 20.8 C 48 % 9.4 C
3067 07-07-2019 15:30:00 20.8 C 46 % 8.77 C
3068 07-07-2019 15:35:00 20.9 C 48 % 9.49 C
3069 07-07-2019 15:40:00 21.2 C 46 % 9.13 C
3070 07-07-2019 15:45:00 21.7 C 46 % 9.58 C
3071 07-07-2019 15:50:00 22 C 46 % 9.86 C
3072 07-07-2019 15:55:00 21.9 C 45 % 9.44 C
3073 07-07-2019 16:00:00 21.7 C 45 % 9.26 C
3074 07-07-2019 16:05:00 21.8 C 45 % 9.35 C
3075 07-07-2019 16:10:00 21.6 C 45 % 9.17 C
Sensor: Nr:Datum:Temp:Feuchte:Taupunkt:
Aussen-T/F 3076 07-07-2019 16:15:00 21.7 C 45 % 9.26 C
3077 07-07-2019 16:20:00 21.9 C 43 % 8.76 C
3078 07-07-2019 16:25:00 22 C 45 % 9.53 C
3079 07-07-2019 16:30:00 21.9 C 42 % 8.42 C
3080 07-07-2019 16:35:00 21.6 C 44 % 8.83 C
3081 07-07-2019 16:40:00 21.6 C 44 % 8.83 C
3082 07-07-2019 16:45:00 21.9 C 42 % 8.42 C
3083 07-07-2019 16:50:00 22 C 42 % 8.51 C
3084 07-07-2019 16:55:00 21.7 C 42 % 8.24 C
3085 07-07-2019 17:00:00 21.4 C 44 % 8.65 C
3086 07-07-2019 17:05:00 21.1 C 45 % 8.71 C
3087 07-07-2019 17:10:00 20.9 C 44 % 8.2 C
3088 07-07-2019 17:15:00 20.8 C 45 % 8.44 C
3089 07-07-2019 17:20:00 21 C 44 % 8.29 C
3090 07-07-2019 17:25:00 21.1 C 45 % 8.71 C
3091 07-07-2019 17:30:00 21.8 C 44 % 9.01 C
3092 07-07-2019 17:35:00 22 C 42 % 8.51 C
3093 07-07-2019 17:40:00 21.8 C 43 % 8.67 C
3094 07-07-2019 17:45:00 21.8 C 45 % 9.35 C
3095 07-07-2019 17:50:00 21.9 C 44 % 9.1 C
3096 07-07-2019 17:55:00 22.1 C 44 % 9.29 C
3097 07-07-2019 18:00:00 22.2 C 43 % 9.04 C
3098 07-07-2019 18:05:00 22 C 43 % 8.85 C
3099 07-07-2019 18:10:00 21.8 C 43 % 8.67 C
3100 07-07-2019 18:15:00 21.6 C 44 % 8.83 C
Sensor: Nr:Datum:Temp:Feuchte:Taupunkt:
Aussen-T/F 3101 07-07-2019 18:20:00 21.4 C 45 % 8.99 C
3102 07-07-2019 18:25:00 21.3 C 46 % 9.22 C
3103 07-07-2019 18:30:00 21.3 C 46 % 9.22 C
3104 07-07-2019 18:35:00 21.5 C 46 % 9.4 C
3105 07-07-2019 18:40:00 21.8 C 46 % 9.67 C
3106 07-07-2019 18:45:00 22.1 C 44 % 9.29 C
3107 07-07-2019 18:50:00 22.1 C 44 % 9.29 C
3108 07-07-2019 18:55:00 22.2 C 43 % 9.04 C
3109 07-07-2019 19:00:00 22.1 C 43 % 8.95 C
3110 07-07-2019 19:05:00 21.9 C 42 % 8.42 C
3111 07-07-2019 19:10:00 21.6 C 43 % 8.49 C
3112 07-07-2019 19:15:00 21.3 C 46 % 9.22 C
3113 07-07-2019 19:20:00 21.3 C 45 % 8.89 C
3114 07-07-2019 19:25:00 21.6 C 45 % 9.17 C
3115 07-07-2019 19:30:00 21.5 C 44 % 8.74 C
3116 07-07-2019 19:35:00 21.2 C 44 % 8.47 C
3117 07-07-2019 19:40:00 21.1 C 45 % 8.71 C
3118 07-07-2019 19:45:00 20.9 C 46 % 8.86 C
3119 07-07-2019 19:50:00 20.7 C 45 % 8.35 C
3120 07-07-2019 19:55:00 20.7 C 46 % 8.67 C
3121 07-07-2019 20:00:00 20.4 C 46 % 8.4 C
3122 07-07-2019 20:05:00 20.2 C 47 % 8.54 C
3123 07-07-2019 20:10:00 20.1 C 48 % 8.76 C
3124 07-07-2019 20:15:00 20.1 C 48 % 8.76 C
3125 07-07-2019 20:20:00 20 C 48 % 8.67 C
Sensor: Nr:Datum:Temp:Feuchte:Taupunkt:
Aussen-T/F 3126 07-07-2019 20:25:00 19.9 C 49 % 8.88 C
3127 07-07-2019 20:30:00 19.9 C 49 % 8.88 C
3128 07-07-2019 20:35:00 19.9 C 48 % 8.57 C
3129 07-07-2019 20:40:00 19.9 C 48 % 8.57 C
3130 07-07-2019 20:45:00 20 C 48 % 8.67 C
3131 07-07-2019 20:50:00 19.9 C 48 % 8.57 C
3132 07-07-2019 20:55:00 19.7 C 49 % 8.7 C
3133 07-07-2019 21:00:00 19.5 C 49 % 8.51 C
3134 07-07-2019 21:05:00 19.3 C 50 % 8.63 C
3135 07-07-2019 21:10:00 19.2 C 50 % 8.53 C
3136 07-07-2019 21:15:00 19.1 C 51 % 8.73 C
3137 07-07-2019 21:20:00 18.9 C 51 % 8.55 C
3138 07-07-2019 21:25:00 18.8 C 52 % 8.75 C
3139 07-07-2019 21:30:00 18.6 C 52 % 8.56 C
3140 07-07-2019 21:35:00 18.4 C 53 % 8.66 C
3141 07-07-2019 21:40:00 18.3 C 53 % 8.56 C
3142 07-07-2019 21:45:00 18.1 C 54 % 8.65 C
3143 07-07-2019 21:50:00 17.9 C 57 % 9.27 C
3144 07-07-2019 21:55:00 17.7 C 59 % 9.59 C
3145 07-07-2019 22:00:00 17.3 C 59 % 9.22 C
3146 07-07-2019 22:05:00 16.8 C 61 % 9.24 C
3147 07-07-2019 22:10:00 16.4 C 63 % 9.35 C
3148 07-07-2019 22:15:00 16.1 C 65 % 9.53 C
3149 07-07-2019 22:20:00 15.8 C 65 % 9.24 C
3150 07-07-2019 22:25:00 15.7 C 66 % 9.37 C
Sensor: Nr:Datum:Temp:Feuchte:Taupunkt:
Aussen-T/F 3151 07-07-2019 22:30:00 15.4 C 68 % 9.53 C
3152 07-07-2019 22:35:00 15.2 C 68 % 9.34 C
3153 07-07-2019 22:40:00 15 C 69 % 9.36 C
3154 07-07-2019 22:45:00 14.8 C 70 % 9.39 C
3155 07-07-2019 22:50:00 14.7 C 70 % 9.29 C
3156 07-07-2019 22:55:00 14.5 C 71 % 9.31 C
3157 07-07-2019 23:00:00 14.4 C 71 % 9.21 C
3158 07-07-2019 23:05:00 14.3 C 72 % 9.33 C
3159 07-07-2019 23:10:00 14.2 C 72 % 9.23 C
3160 07-07-2019 23:15:00 14.1 C 72 % 9.13 C
3161 07-07-2019 23:20:00 14 C 74 % 9.44 C
3162 07-07-2019 23:25:00 13.9 C 74 % 9.35 C
3163 07-07-2019 23:30:00 13.8 C 74 % 9.25 C
3164 07-07-2019 23:35:00 13.7 C 75 % 9.35 C
3165 07-07-2019 23:40:00 13.6 C 75 % 9.26 C
3166 07-07-2019 23:45:00 13.5 C 76 % 9.36 C
3167 07-07-2019 23:50:00 13.4 C 76 % 9.26 C
3168 07-07-2019 23:55:00 13.3 C 76 % 9.16 C
3169 08-07-2019 00:00:00 13.2 C 76 % 9.07 C
3170 08-07-2019 00:05:00 13.2 C 77 % 9.26 C
3171 08-07-2019 00:10:00 13.1 C 77 % 9.16 C
3172 08-07-2019 00:15:00 13 C 77 % 9.07 C
3173 08-07-2019 00:20:00 12.9 C 77 % 8.97 C
3174 08-07-2019 00:25:00 12.9 C 78 % 9.16 C
3175 08-07-2019 00:30:00 12.8 C 78 % 9.06 C
Sensor: Nr:Datum:Temp:Feuchte:Taupunkt:
Aussen-T/F 3176 08-07-2019 00:35:00 12.8 C 78 % 9.06 C
3177 08-07-2019 00:40:00 12.7 C 78 % 8.97 C
3178 08-07-2019 00:45:00 12.7 C 78 % 8.97 C
3179 08-07-2019 00:50:00 12.6 C 78 % 8.87 C
3180 08-07-2019 00:55:00 12.6 C 78 % 8.87 C
3181 08-07-2019 01:00:00 12.5 C 79 % 8.96 C
3182 08-07-2019 01:05:00 12.4 C 79 % 8.86 C
3183 08-07-2019 01:10:00 12.3 C 80 % 8.95 C
3184 08-07-2019 01:15:00 12.2 C 80 % 8.86 C
3185 08-07-2019 01:20:00 12.1 C 81 % 8.94 C
3186 08-07-2019 01:25:00 11.9 C 82 % 8.93 C
3187 08-07-2019 01:30:00 11.8 C 82 % 8.83 C
3188 08-07-2019 01:35:00 11.7 C 82 % 8.73 C
3189 08-07-2019 01:40:00 11.6 C 82 % 8.64 C
3190 08-07-2019 01:45:00 11.5 C 82 % 8.54 C
3191 08-07-2019 01:50:00 11.4 C 83 % 8.62 C
3192 08-07-2019 01:55:00 11.3 C 83 % 8.52 C
3193 08-07-2019 02:00:00 11.3 C 84 % 8.7 C
3194 08-07-2019 02:05:00 11.2 C 84 % 8.6 C
3195 08-07-2019 02:10:00 11.1 C 83 % 8.33 C
3196 08-07-2019 02:15:00 11 C 84 % 8.4 C
3197 08-07-2019 02:20:00 10.9 C 84 % 8.31 C
3198 08-07-2019 02:25:00 10.8 C 84 % 8.21 C
3199 08-07-2019 02:30:00 10.9 C 84 % 8.31 C
3200 08-07-2019 02:35:00 10.9 C 84 % 8.31 C
Sensor: Nr:Datum:Temp:Feuchte:Taupunkt:
Aussen-T/F 3201 08-07-2019 02:40:00 11 C 84 % 8.4 C
3202 08-07-2019 02:45:00 11.1 C 84 % 8.5 C
3203 08-07-2019 02:50:00 11.2 C 83 % 8.42 C
3204 08-07-2019 02:55:00 11.2 C 83 % 8.42 C
3205 08-07-2019 03:00:00 11.1 C 83 % 8.33 C
3206 08-07-2019 03:05:00 11.1 C 83 % 8.33 C
3207 08-07-2019 03:10:00 11 C 82 % 8.05 C
3208 08-07-2019 03:15:00 11 C 83 % 8.23 C
3209 08-07-2019 03:20:00 10.9 C 83 % 8.13 C
3210 08-07-2019 03:25:00 10.9 C 84 % 8.31 C
3211 08-07-2019 03:30:00 10.9 C 84 % 8.31 C
3212 08-07-2019 03:35:00 10.8 C 84 % 8.21 C
3213 08-07-2019 03:40:00 10.8 C 84 % 8.21 C
3214 08-07-2019 03:45:00 10.9 C 84 % 8.31 C
3215 08-07-2019 03:50:00 10.9 C 84 % 8.31 C
3216 08-07-2019 03:55:00 11 C 84 % 8.4 C
3217 08-07-2019 04:00:00 11.1 C 83 % 8.33 C
3218 08-07-2019 04:05:00 11.1 C 83 % 8.33 C
3219 08-07-2019 04:10:00 11 C 83 % 8.23 C
3220 08-07-2019 04:15:00 10.9 C 83 % 8.13 C
3221 08-07-2019 04:20:00 10.9 C 84 % 8.31 C
3222 08-07-2019 04:25:00 10.8 C 84 % 8.21 C
3223 08-07-2019 04:30:00 10.8 C 84 % 8.21 C
3224 08-07-2019 04:35:00 10.7 C 84 % 8.11 C
3225 08-07-2019 04:40:00 10.6 C 84 % 8.01 C
Sensor: Nr:Datum:Temp:Feuchte:Taupunkt:
Aussen-T/F 3226 08-07-2019 04:45:00 10.6 C 85 % 8.19 C
3227 08-07-2019 04:50:00 10.5 C 85 % 8.09 C
3228 08-07-2019 04:55:00 10.4 C 85 % 7.99 C
3229 08-07-2019 05:00:00 10.3 C 85 % 7.89 C
3230 08-07-2019 05:05:00 10.2 C 86 % 7.97 C
3231 08-07-2019 05:10:00 10.1 C 86 % 7.87 C
3232 08-07-2019 05:15:00 10.1 C 86 % 7.87 C
3233 08-07-2019 05:20:00 9.9 C 86 % 7.67 C
3234 08-07-2019 05:25:00 9.9 C 87 % 7.84 C
3235 08-07-2019 05:30:00 9.8 C 87 % 7.74 C
3236 08-07-2019 05:35:00 9.8 C 87 % 7.74 C
3237 08-07-2019 05:40:00 9.7 C 87 % 7.64 C
3238 08-07-2019 05:45:00 9.7 C 88 % 7.81 C
3239 08-07-2019 05:50:00 9.6 C 88 % 7.71 C
3240 08-07-2019 05:55:00 9.6 C 88 % 7.71 C
3241 08-07-2019 06:00:00 9.5 C 88 % 7.61 C
3242 08-07-2019 06:05:00 9.4 C 89 % 7.68 C
3243 08-07-2019 06:10:00 9.4 C 89 % 7.68 C
3244 08-07-2019 06:15:00 9.5 C 89 % 7.78 C
3245 08-07-2019 06:20:00 9.5 C 90 % 7.94 C
3246 08-07-2019 06:25:00 9.6 C 90 % 8.04 C
3247 08-07-2019 06:30:00 9.6 C 90 % 8.04 C
3248 08-07-2019 06:35:00 9.6 C 90 % 8.04 C
3249 08-07-2019 06:40:00 9.6 C 90 % 8.04 C
3250 08-07-2019 06:45:00 9.6 C 90 % 8.04 C
Sensor: Nr:Datum:Temp:Feuchte:Taupunkt:
Aussen-T/F 3251 08-07-2019 06:50:00 9.7 C 90 % 8.14 C
3252 08-07-2019 06:55:00 9.7 C 90 % 8.14 C
3253 08-07-2019 07:00:00 9.7 C 91 % 8.3 C
3254 08-07-2019 07:05:00 9.8 C 91 % 8.4 C
3255 08-07-2019 07:10:00 9.8 C 91 % 8.4 C
3256 08-07-2019 07:15:00 9.8 C 91 % 8.4 C
3257 08-07-2019 07:20:00 9.8 C 91 % 8.4 C
3258 08-07-2019 07:25:00 9.9 C 91 % 8.5 C
3259 08-07-2019 07:30:00 10 C 91 % 8.6 C
3260 08-07-2019 07:35:00 10.1 C 91 % 8.7 C
3261 08-07-2019 07:40:00 10.1 C 91 % 8.7 C
3262 08-07-2019 07:45:00 10.2 C 91 % 8.8 C
3263 08-07-2019 07:50:00 10.2 C 91 % 8.8 C
3264 08-07-2019 07:55:00 10.3 C 91 % 8.9 C
3265 08-07-2019 08:00:00 10.4 C 91 % 9 C
3266 08-07-2019 08:05:00 10.4 C 91 % 9 C
3267 08-07-2019 08:10:00 10.6 C 91 % 9.19 C
3268 08-07-2019 08:15:00 10.7 C 91 % 9.29 C
3269 08-07-2019 08:20:00 10.8 C 92 % 9.55 C
3270 08-07-2019 08:25:00 10.9 C 91 % 9.49 C
3271 08-07-2019 08:30:00 11.2 C 90 % 9.62 C
3272 08-07-2019 08:35:00 11.4 C 90 % 9.82 C
3273 08-07-2019 08:40:00 11.7 C 90 % 10.12 C
3274 08-07-2019 08:45:00 12 C 90 % 10.41 C
3275 08-07-2019 08:50:00 12.2 C 88 % 10.27 C
Sensor: Nr:Datum:Temp:Feuchte:Taupunkt:
Aussen-T/F 3276 08-07-2019 08:55:00 12.4 C 86 % 10.13 C
3277 08-07-2019 09:00:00 12.6 C 85 % 10.15 C
3278 08-07-2019 09:05:00 12.8 C 82 % 9.81 C
3279 08-07-2019 09:10:00 13.1 C 80 % 9.73 C
3280 08-07-2019 09:15:00 13.3 C 79 % 9.74 C
3281 08-07-2019 09:20:00 13.8 C 77 % 9.84 C
3282 08-07-2019 09:25:00 14.4 C 74 % 9.83 C
3283 08-07-2019 09:30:00 14.7 C 72 % 9.71 C
3284 08-07-2019 09:35:00 14.8 C 71 % 9.6 C
3285 08-07-2019 09:40:00 14.9 C 70 % 9.48 C
3286 08-07-2019 09:45:00 15.1 C 68 % 9.24 C
3287 08-07-2019 09:50:00 15.3 C 64 % 8.54 C
3288 08-07-2019 09:55:00 15.4 C 64 % 8.63 C
3289 08-07-2019 10:00:00 15.6 C 61 % 8.11 C
3290 08-07-2019 10:05:00 15.6 C 61 % 8.11 C
3291 08-07-2019 10:10:00 15.7 C 61 % 8.21 C
3292 08-07-2019 10:15:00 15.7 C 61 % 8.21 C
3293 08-07-2019 10:20:00 15.7 C 62 % 8.45 C
3294 08-07-2019 10:25:00 15.7 C 63 % 8.68 C
3295 08-07-2019 10:30:00 15.6 C 64 % 8.82 C
3296 08-07-2019 10:35:00 15.6 C 64 % 8.82 C
3297 08-07-2019 10:40:00 15.6 C 64 % 8.82 C
3298 08-07-2019 10:45:00 15.6 C 64 % 8.82 C
3299 08-07-2019 10:50:00 15.7 C 64 % 8.92 C
3300 08-07-2019 10:55:00 15.8 C 63 % 8.78 C
Sensor: Nr:Datum:Temp:Feuchte:Taupunkt:
Aussen-T/F 3301 08-07-2019 11:00:00 15.8 C 62 % 8.54 C
3302 08-07-2019 11:05:00 15.9 C 62 % 8.64 C
3303 08-07-2019 11:10:00 16.1 C 63 % 9.06 C
3304 08-07-2019 11:15:00 16.3 C 64 % 9.48 C
3305 08-07-2019 11:20:00 16.4 C 63 % 9.35 C
3306 08-07-2019 11:25:00 16.3 C 61 % 8.77 C
3307 08-07-2019 11:30:00 16.2 C 61 % 8.68 C
3308 08-07-2019 11:35:00 16.2 C 62 % 8.92 C
3309 08-07-2019 11:40:00 16.1 C 61 % 8.58 C
3310 08-07-2019 11:45:00 16.1 C 61 % 8.58 C
3311 08-07-2019 11:50:00 16.1 C 62 % 8.82 C
3312 08-07-2019 11:55:00 16.2 C 60 % 8.43 C
3313 08-07-2019 12:00:00 16.3 C 59 % 8.28 C
3314 08-07-2019 12:05:00 16.4 C 58 % 8.12 C
3315 08-07-2019 12:10:00 16.5 C 60 % 8.72 C
3316 08-07-2019 12:15:00 16.6 C 60 % 8.81 C
3317 08-07-2019 12:20:00 16.7 C 61 % 9.15 C
3318 08-07-2019 12:25:00 16.7 C 60 % 8.9 C
3319 08-07-2019 12:30:00 16.8 C 60 % 9 C
3320 08-07-2019 12:35:00 16.9 C 60 % 9.09 C
3321 08-07-2019 12:40:00 16.9 C 59 % 8.84 C
3322 08-07-2019 12:45:00 16.8 C 59 % 8.75 C
3323 08-07-2019 12:50:00 16.8 C 59 % 8.75 C
3324 08-07-2019 12:55:00 16.8 C 60 % 9 C
3325 08-07-2019 13:00:00 16.8 C 60 % 9 C
Sensor: Nr:Datum:Temp:Feuchte:Taupunkt:
Aussen-T/F 3326 08-07-2019 13:05:00 16.9 C 59 % 8.84 C
3327 08-07-2019 13:10:00 17.1 C 59 % 9.03 C
3328 08-07-2019 13:15:00 17.1 C 57 % 8.52 C
3329 08-07-2019 13:20:00 17 C 58 % 8.69 C
3330 08-07-2019 13:25:00 17 C 58 % 8.69 C
3331 08-07-2019 13:30:00 17.1 C 58 % 8.78 C
3332 08-07-2019 13:35:00 17.2 C 57 % 8.62 C
3333 08-07-2019 13:40:00 17.2 C 57 % 8.62 C
3334 08-07-2019 13:45:00 17.1 C 58 % 8.78 C
3335 08-07-2019 13:50:00 17.1 C 58 % 8.78 C
3336 08-07-2019 13:55:00 17.1 C 59 % 9.03 C
3337 08-07-2019 14:00:00 17.1 C 59 % 9.03 C
3338 08-07-2019 14:05:00 17.2 C 57 % 8.62 C
3339 08-07-2019 14:10:00 17.2 C 58 % 8.87 C
3340 08-07-2019 14:15:00 17.3 C 57 % 8.71 C
3341 08-07-2019 14:20:00 17.5 C 58 % 9.15 C
3342 08-07-2019 14:25:00 17.6 C 57 % 8.99 C
3343 08-07-2019 14:30:00 17.6 C 57 % 8.99 C
3344 08-07-2019 14:35:00 17.4 C 57 % 8.8 C
3345 08-07-2019 14:40:00 17.3 C 56 % 8.45 C
3346 08-07-2019 14:45:00 17.3 C 58 % 8.97 C
3347 08-07-2019 14:50:00 17.2 C 59 % 9.13 C
3348 08-07-2019 14:55:00 17.3 C 59 % 9.22 C
3349 08-07-2019 15:00:00 17.2 C 59 % 9.13 C
3350 08-07-2019 15:05:00 17.2 C 59 % 9.13 C
Sensor: Nr:Datum:Temp:Feuchte:Taupunkt:
Aussen-T/F 3351 08-07-2019 15:10:00 17.2 C 59 % 9.13 C
3352 08-07-2019 15:15:00 17.3 C 60 % 9.47 C
3353 08-07-2019 15:20:00 17.5 C 59 % 9.41 C
3354 08-07-2019 15:25:00 17.7 C 58 % 9.34 C
3355 08-07-2019 15:30:00 17.7 C 57 % 9.08 C
3356 08-07-2019 15:35:00 17.7 C 57 % 9.08 C
3357 08-07-2019 15:40:00 17.6 C 57 % 8.99 C
3358 08-07-2019 15:45:00 17.6 C 57 % 8.99 C
3359 08-07-2019 15:50:00 17.6 C 56 % 8.73 C
3360 08-07-2019 15:55:00 17.6 C 56 % 8.73 C
3361 08-07-2019 16:00:00 17.6 C 56 % 8.73 C
3362 08-07-2019 16:05:00 17.7 C 58 % 9.34 C
3363 08-07-2019 16:10:00 17.8 C 58 % 9.43 C
3364 08-07-2019 16:15:00 17.9 C 58 % 9.53 C
3365 08-07-2019 16:20:00 17.9 C 58 % 9.53 C
3366 08-07-2019 16:25:00 18 C 57 % 9.36 C
3367 08-07-2019 16:30:00 18 C 57 % 9.36 C
3368 08-07-2019 16:35:00 18.2 C 57 % 9.55 C
3369 08-07-2019 16:40:00 18.4 C 57 % 9.74 C
3370 08-07-2019 16:45:00 18.3 C 55 % 9.11 C
3371 08-07-2019 16:50:00 18.3 C 56 % 9.38 C
3372 08-07-2019 16:55:00 18.2 C 57 % 9.55 C
3373 08-07-2019 17:00:00 18.2 C 56 % 9.29 C
3374 08-07-2019 17:05:00 18.2 C 57 % 9.55 C
3375 08-07-2019 17:10:00 18.2 C 56 % 9.29 C
Sensor: Nr:Datum:Temp:Feuchte:Taupunkt:
Aussen-T/F 3376 08-07-2019 17:15:00 18.2 C 57 % 9.55 C
3377 08-07-2019 17:20:00 18.2 C 57 % 9.55 C
3378 08-07-2019 17:25:00 18.2 C 57 % 9.55 C
3379 08-07-2019 17:30:00 18.2 C 57 % 9.55 C
3380 08-07-2019 17:35:00 18.1 C 57 % 9.46 C
3381 08-07-2019 17:40:00 18 C 58 % 9.62 C
3382 08-07-2019 17:45:00 18.1 C 60 % 10.22 C
3383 08-07-2019 17:50:00 18.2 C 57 % 9.55 C
3384 08-07-2019 17:55:00 18.2 C 57 % 9.55 C
3385 08-07-2019 18:00:00 18.2 C 56 % 9.29 C
3386 08-07-2019 18:05:00 18.2 C 55 % 9.02 C
3387 08-07-2019 18:10:00 18.2 C 57 % 9.55 C
3388 08-07-2019 18:15:00 18.2 C 56 % 9.29 C
3389 08-07-2019 18:20:00 18.2 C 57 % 9.55 C
3390 08-07-2019 18:25:00 18.1 C 58 % 9.71 C
3391 08-07-2019 18:30:00 18 C 58 % 9.62 C
3392 08-07-2019 18:35:00 17.9 C 58 % 9.53 C
3393 08-07-2019 18:40:00 17.9 C 58 % 9.53 C
3394 08-07-2019 18:45:00 17.8 C 58 % 9.43 C
3395 08-07-2019 18:50:00 17.9 C 58 % 9.53 C
3396 08-07-2019 18:55:00 17.9 C 58 % 9.53 C
3397 08-07-2019 19:00:00 17.8 C 58 % 9.43 C
3398 08-07-2019 19:05:00 17.8 C 57 % 9.18 C
3399 08-07-2019 19:10:00 17.7 C 57 % 9.08 C
3400 08-07-2019 19:15:00 17.6 C 58 % 9.25 C
Sensor: Nr:Datum:Temp:Feuchte:Taupunkt:
Aussen-T/F 3401 08-07-2019 19:20:00 17.6 C 58 % 9.25 C
3402 08-07-2019 19:25:00 17.6 C 58 % 9.25 C
3403 08-07-2019 19:30:00 17.7 C 58 % 9.34 C
3404 08-07-2019 19:35:00 17.8 C 58 % 9.43 C
3405 08-07-2019 19:40:00 17.8 C 58 % 9.43 C
3406 08-07-2019 19:45:00 17.9 C 59 % 9.78 C
3407 08-07-2019 19:50:00 17.9 C 59 % 9.78 C
3408 08-07-2019 19:55:00 17.9 C 59 % 9.78 C
3409 08-07-2019 20:00:00 17.9 C 59 % 9.78 C
3410 08-07-2019 20:05:00 18 C 57 % 9.36 C
3411 08-07-2019 20:10:00 18.1 C 57 % 9.46 C
3412 08-07-2019 20:15:00 18.1 C 57 % 9.46 C
3413 08-07-2019 20:20:00 17.9 C 58 % 9.53 C
3414 08-07-2019 20:25:00 17.8 C 58 % 9.43 C
3415 08-07-2019 20:30:00 17.6 C 59 % 9.5 C
3416 08-07-2019 20:35:00 17.4 C 59 % 9.31 C
3417 08-07-2019 20:40:00 17.3 C 59 % 9.22 C
3418 08-07-2019 20:45:00 17.4 C 60 % 9.56 C
3419 08-07-2019 20:50:00 17.4 C 59 % 9.31 C
3420 08-07-2019 20:55:00 17.4 C 60 % 9.56 C
3421 08-07-2019 21:00:00 17.3 C 60 % 9.47 C
3422 08-07-2019 21:05:00 17.2 C 61 % 9.62 C
3423 08-07-2019 21:10:00 17.1 C 61 % 9.53 C
3424 08-07-2019 21:15:00 16.9 C 62 % 9.58 C
3425 08-07-2019 21:20:00 16.8 C 62 % 9.49 C
Sensor: Nr:Datum:Temp:Feuchte:Taupunkt:
Aussen-T/F 3426 08-07-2019 21:25:00 16.7 C 64 % 9.86 C
3427 08-07-2019 21:30:00 16.4 C 64 % 9.58 C
3428 08-07-2019 21:35:00 16.1 C 67 % 9.98 C
3429 08-07-2019 21:40:00 15.7 C 68 % 9.82 C
3430 08-07-2019 21:45:00 15.3 C 69 % 9.65 C
3431 08-07-2019 21:50:00 15 C 71 % 9.79 C
3432 08-07-2019 21:55:00 14.7 C 72 % 9.71 C
3433 08-07-2019 22:00:00 14.4 C 73 % 9.63 C
3434 08-07-2019 22:05:00 14.2 C 73 % 9.43 C
3435 08-07-2019 22:10:00 14.1 C 74 % 9.54 C
3436 08-07-2019 22:15:00 13.9 C 74 % 9.35 C
3437 08-07-2019 22:20:00 13.8 C 75 % 9.45 C
3438 08-07-2019 22:25:00 13.8 C 75 % 9.45 C
3439 08-07-2019 22:30:00 13.8 C 76 % 9.65 C
3440 08-07-2019 22:35:00 13.8 C 76 % 9.65 C
3441 08-07-2019 22:40:00 13.9 C 76 % 9.74 C
3442 08-07-2019 22:45:00 13.9 C 76 % 9.74 C
3443 08-07-2019 22:50:00 14 C 75 % 9.64 C
3444 08-07-2019 22:55:00 14.1 C 75 % 9.74 C
3445 08-07-2019 23:00:00 14.2 C 75 % 9.84 C
3446 08-07-2019 23:05:00 14.3 C 76 % 10.13 C
3447 08-07-2019 23:10:00 14.3 C 75 % 9.93 C
3448 08-07-2019 23:15:00 14.3 C 75 % 9.93 C
3449 08-07-2019 23:20:00 14.3 C 75 % 9.93 C
3450 08-07-2019 23:25:00 14.3 C 75 % 9.93 C
Sensor: Nr:Datum:Temp:Feuchte:Taupunkt:
Aussen-T/F 3451 08-07-2019 23:30:00 14.2 C 75 % 9.84 C
3452 08-07-2019 23:35:00 14.1 C 75 % 9.74 C
3453 08-07-2019 23:40:00 14 C 75 % 9.64 C
3454 08-07-2019 23:45:00 13.9 C 76 % 9.74 C
3455 08-07-2019 23:50:00 13.8 C 76 % 9.65 C
3456 08-07-2019 23:55:00 13.7 C 77 % 9.75 C
3457 09-07-2019 00:00:00 13.6 C 77 % 9.65 C
3458 09-07-2019 00:05:00 13.5 C 78 % 9.74 C
3459 09-07-2019 00:10:00 13.4 C 78 % 9.65 C
3460 09-07-2019 00:15:00 13.3 C 78 % 9.55 C
3461 09-07-2019 00:20:00 13.3 C 79 % 9.74 C
3462 09-07-2019 00:25:00 13.2 C 79 % 9.64 C
3463 09-07-2019 00:30:00 13.2 C 80 % 9.83 C
3464 09-07-2019 00:35:00 13.2 C 80 % 9.83 C
3465 09-07-2019 00:40:00 13.2 C 81 % 10.01 C
3466 09-07-2019 00:45:00 13.2 C 81 % 10.01 C
3467 09-07-2019 00:50:00 13.2 C 81 % 10.01 C
3468 09-07-2019 00:55:00 13.2 C 80 % 9.83 C
3469 09-07-2019 01:00:00 13.1 C 80 % 9.73 C
3470 09-07-2019 01:05:00 13 C 80 % 9.63 C
3471 09-07-2019 01:10:00 12.9 C 80 % 9.54 C
3472 09-07-2019 01:15:00 12.8 C 81 % 9.62 C
3473 09-07-2019 01:20:00 12.7 C 81 % 9.53 C
3474 09-07-2019 01:25:00 12.7 C 81 % 9.53 C
3475 09-07-2019 01:30:00 12.7 C 82 % 9.71 C
Sensor: Nr:Datum:Temp:Feuchte:Taupunkt:
Aussen-T/F 3476 09-07-2019 01:35:00 12.6 C 82 % 9.61 C
3477 09-07-2019 01:40:00 12.6 C 82 % 9.61 C
3478 09-07-2019 01:45:00 12.5 C 82 % 9.51 C
3479 09-07-2019 01:50:00 12.4 C 83 % 9.6 C
3480 09-07-2019 01:55:00 12.4 C 83 % 9.6 C
3481 09-07-2019 02:00:00 12.3 C 83 % 9.5 C
3482 09-07-2019 02:05:00 12.3 C 83 % 9.5 C
3483 09-07-2019 02:10:00 12.2 C 83 % 9.4 C
3484 09-07-2019 02:15:00 12.2 C 83 % 9.4 C
3485 09-07-2019 02:20:00 12 C 83 % 9.21 C
3486 09-07-2019 02:25:00 11.9 C 83 % 9.11 C
3487 09-07-2019 02:30:00 11.8 C 84 % 9.19 C
3488 09-07-2019 02:35:00 11.8 C 84 % 9.19 C
3489 09-07-2019 02:40:00 11.8 C 85 % 9.36 C
3490 09-07-2019 02:45:00 11.6 C 84 % 8.99 C
3491 09-07-2019 02:50:00 11.4 C 85 % 8.97 C
3492 09-07-2019 02:55:00 11.3 C 86 % 9.05 C
3493 09-07-2019 03:00:00 11.3 C 86 % 9.05 C
3494 09-07-2019 03:05:00 11.3 C 87 % 9.22 C
3495 09-07-2019 03:10:00 11.3 C 87 % 9.22 C
3496 09-07-2019 03:15:00 11.2 C 87 % 9.12 C
3497 09-07-2019 03:20:00 11.2 C 87 % 9.12 C
3498 09-07-2019 03:25:00 11.2 C 87 % 9.12 C
3499 09-07-2019 03:30:00 11.1 C 87 % 9.02 C
3500 09-07-2019 03:35:00 11.1 C 87 % 9.02 C
Sensor: Nr:Datum:Temp:Feuchte:Taupunkt:
Aussen-T/F 3501 09-07-2019 03:40:00 11 C 87 % 8.92 C
3502 09-07-2019 03:45:00 10.9 C 88 % 8.99 C
3503 09-07-2019 03:50:00 10.9 C 88 % 8.99 C
3504 09-07-2019 03:55:00 10.9 C 88 % 8.99 C
3505 09-07-2019 04:00:00 10.8 C 88 % 8.89 C
3506 09-07-2019 04:05:00 10.8 C 88 % 8.89 C
3507 09-07-2019 04:10:00 10.7 C 88 % 8.8 C
3508 09-07-2019 04:15:00 10.7 C 88 % 8.8 C
3509 09-07-2019 04:20:00 10.6 C 88 % 8.7 C
3510 09-07-2019 04:25:00 10.5 C 88 % 8.6 C
3511 09-07-2019 04:30:00 10.4 C 88 % 8.5 C
3512 09-07-2019 04:35:00 10.3 C 88 % 8.4 C
3513 09-07-2019 04:40:00 10.2 C 89 % 8.47 C
3514 09-07-2019 04:45:00 10.2 C 89 % 8.47 C
3515 09-07-2019 04:50:00 10.1 C 89 % 8.37 C
3516 09-07-2019 04:55:00 9.9 C 89 % 8.17 C
3517 09-07-2019 05:00:00 9.9 C 89 % 8.17 C
3518 09-07-2019 05:05:00 9.8 C 90 % 8.24 C
3519 09-07-2019 05:10:00 9.9 C 90 % 8.34 C
3520 09-07-2019 05:15:00 9.9 C 90 % 8.34 C
3521 09-07-2019 05:20:00 9.9 C 90 % 8.34 C
3522 09-07-2019 05:25:00 9.8 C 90 % 8.24 C
3523 09-07-2019 05:30:00 9.8 C 90 % 8.24 C
3524 09-07-2019 05:35:00 9.8 C 90 % 8.24 C
3525 09-07-2019 05:40:00 9.8 C 90 % 8.24 C
Sensor: Nr:Datum:Temp:Feuchte:Taupunkt:
Aussen-T/F 3526 09-07-2019 05:45:00 9.7 C 91 % 8.3 C
3527 09-07-2019 05:50:00 9.7 C 91 % 8.3 C
3528 09-07-2019 05:55:00 9.7 C 91 % 8.3 C
3529 09-07-2019 06:00:00 9.7 C 91 % 8.3 C
3530 09-07-2019 06:05:00 9.7 C 91 % 8.3 C
3531 09-07-2019 06:10:00 9.7 C 91 % 8.3 C
3532 09-07-2019 06:15:00 9.7 C 91 % 8.3 C
3533 09-07-2019 06:20:00 9.7 C 91 % 8.3 C
3534 09-07-2019 06:25:00 9.7 C 91 % 8.3 C
3535 09-07-2019 06:30:00 9.7 C 91 % 8.3 C
3536 09-07-2019 06:35:00 9.7 C 91 % 8.3 C
3537 09-07-2019 06:40:00 9.7 C 91 % 8.3 C
3538 09-07-2019 06:45:00 9.7 C 92 % 8.46 C
3539 09-07-2019 06:50:00 9.8 C 92 % 8.56 C
3540 09-07-2019 06:55:00 9.9 C 92 % 8.66 C
3541 09-07-2019 07:00:00 10.1 C 92 % 8.86 C
3542 09-07-2019 07:05:00 10.2 C 92 % 8.96 C
3543 09-07-2019 07:10:00 10.3 C 92 % 9.06 C
3544 09-07-2019 07:15:00 10.4 C 92 % 9.16 C
3545 09-07-2019 07:20:00 10.5 C 92 % 9.26 C
3546 09-07-2019 07:25:00 10.6 C 92 % 9.36 C
3547 09-07-2019 07:30:00 10.8 C 92 % 9.55 C
3548 09-07-2019 07:35:00 11.1 C 92 % 9.85 C
3549 09-07-2019 07:40:00 11.4 C 91 % 9.98 C
3550 09-07-2019 07:45:00 11.7 C 88 % 9.78 C
Sensor: Nr:Datum:Temp:Feuchte:Taupunkt:
Aussen-T/F 3551 09-07-2019 07:50:00 11.8 C 87 % 9.71 C
3552 09-07-2019 07:55:00 12.1 C 86 % 9.83 C
3553 09-07-2019 08:00:00 12.3 C 85 % 9.85 C
3554 09-07-2019 08:05:00 12.4 C 84 % 9.78 C
3555 09-07-2019 08:10:00 12.6 C 83 % 9.79 C
3556 09-07-2019 08:15:00 12.7 C 83 % 9.89 C
3557 09-07-2019 08:20:00 12.8 C 82 % 9.81 C
3558 09-07-2019 08:25:00 12.9 C 81 % 9.72 C
3559 09-07-2019 08:30:00 13.1 C 81 % 9.92 C
3560 09-07-2019 08:35:00 13.2 C 80 % 9.83 C
3561 09-07-2019 08:40:00 13.3 C 80 % 9.93 C
3562 09-07-2019 08:45:00 13.4 C 80 % 10.02 C
3563 09-07-2019 08:50:00 13.5 C 79 % 9.93 C
3564 09-07-2019 08:55:00 13.6 C 79 % 10.03 C
3565 09-07-2019 09:00:00 13.8 C 78 % 10.03 C
3566 09-07-2019 09:05:00 13.9 C 78 % 10.13 C
3567 09-07-2019 09:10:00 14 C 76 % 9.84 C
3568 09-07-2019 09:15:00 14 C 76 % 9.84 C
3569 09-07-2019 09:20:00 14 C 76 % 9.84 C
3570 09-07-2019 09:25:00 14 C 76 % 9.84 C
3571 09-07-2019 09:30:00 14.1 C 77 % 10.13 C
3572 09-07-2019 09:35:00 14.2 C 76 % 10.03 C
3573 09-07-2019 09:40:00 14.4 C 75 % 10.03 C
3574 09-07-2019 09:45:00 14.6 C 75 % 10.22 C
3575 09-07-2019 09:50:00 14.7 C 75 % 10.32 C
Sensor: Nr:Datum:Temp:Feuchte:Taupunkt:
Aussen-T/F 3576 09-07-2019 09:55:00 14.7 C 72 % 9.71 C
3577 09-07-2019 10:00:00 14.7 C 72 % 9.71 C
3578 09-07-2019 10:05:00 14.7 C 72 % 9.71 C
3579 09-07-2019 10:10:00 14.7 C 71 % 9.5 C
3580 09-07-2019 10:15:00 14.8 C 71 % 9.6 C
3581 09-07-2019 10:20:00 14.8 C 72 % 9.81 C
3582 09-07-2019 10:25:00 14.8 C 70 % 9.39 C
3583 09-07-2019 10:30:00 14.8 C 71 % 9.6 C
3584 09-07-2019 10:35:00 14.9 C 72 % 9.9 C
3585 09-07-2019 10:40:00 14.9 C 70 % 9.48 C
3586 09-07-2019 10:45:00 15.1 C 70 % 9.67 C
3587 09-07-2019 10:50:00 15.2 C 69 % 9.56 C
3588 09-07-2019 10:55:00 15.4 C 68 % 9.53 C
3589 09-07-2019 11:00:00 15.6 C 66 % 9.28 C
3590 09-07-2019 11:05:00 15.6 C 64 % 8.82 C
3591 09-07-2019 11:10:00 15.7 C 63 % 8.68 C
3592 09-07-2019 11:15:00 15.8 C 61 % 8.3 C
3593 09-07-2019 11:20:00 15.8 C 62 % 8.54 C
3594 09-07-2019 11:25:00 15.9 C 60 % 8.15 C
3595 09-07-2019 11:30:00 16.1 C 59 % 8.09 C
3596 09-07-2019 11:35:00 16.3 C 59 % 8.28 C
3597 09-07-2019 11:40:00 16.5 C 58 % 8.22 C
3598 09-07-2019 11:45:00 16.6 C 57 % 8.06 C
3599 09-07-2019 11:50:00 16.6 C 58 % 8.31 C
3600 09-07-2019 11:55:00 16.6 C 58 % 8.31 C
Sensor: Nr:Datum:Temp:Feuchte:Taupunkt:
Aussen-T/F 3601 09-07-2019 12:00:00 16.6 C 58 % 8.31 C
3602 09-07-2019 12:05:00 16.6 C 58 % 8.31 C
3603 09-07-2019 12:10:00 16.7 C 58 % 8.4 C
3604 09-07-2019 12:15:00 16.8 C 56 % 7.98 C
3605 09-07-2019 12:20:00 16.8 C 57 % 8.24 C
3606 09-07-2019 12:25:00 16.8 C 56 % 7.98 C
3607 09-07-2019 12:30:00 16.9 C 57 % 8.34 C
3608 09-07-2019 12:35:00 16.9 C 56 % 8.07 C
3609 09-07-2019 12:40:00 16.9 C 56 % 8.07 C
3610 09-07-2019 12:45:00 16.9 C 57 % 8.34 C
3611 09-07-2019 12:50:00 17.2 C 56 % 8.35 C
3612 09-07-2019 12:55:00 17.3 C 55 % 8.18 C
3613 09-07-2019 13:00:00 17.3 C 54 % 7.91 C
3614 09-07-2019 13:05:00 17.3 C 54 % 7.91 C
3615 09-07-2019 13:10:00 17.2 C 54 % 7.82 C
3616 09-07-2019 13:15:00 17.3 C 54 % 7.91 C
3617 09-07-2019 13:20:00 17.5 C 52 % 7.54 C
3618 09-07-2019 13:25:00 17.7 C 54 % 8.28 C
3619 09-07-2019 13:30:00 17.8 C 52 % 7.82 C
3620 09-07-2019 13:35:00 17.8 C 53 % 8.1 C
3621 09-07-2019 13:40:00 17.9 C 51 % 7.63 C
3622 09-07-2019 13:45:00 17.9 C 51 % 7.63 C
3623 09-07-2019 13:50:00 18.2 C 50 % 7.62 C
3624 09-07-2019 13:55:00 18.3 C 50 % 7.71 C
3625 09-07-2019 14:00:00 18.4 C 50 % 7.8 C
Sensor: Nr:Datum:Temp:Feuchte:Taupunkt:
Aussen-T/F 3626 09-07-2019 14:05:00 18.5 C 50 % 7.89 C
3627 09-07-2019 14:10:00 18.4 C 50 % 7.8 C
3628 09-07-2019 14:15:00 18.4 C 50 % 7.8 C
3629 09-07-2019 14:20:00 18.4 C 50 % 7.8 C
3630 09-07-2019 14:25:00 18.4 C 50 % 7.8 C
3631 09-07-2019 14:30:00 18.7 C 48 % 7.48 C
3632 09-07-2019 14:35:00 18.9 C 49 % 7.96 C
3633 09-07-2019 14:40:00 18.9 C 48 % 7.66 C
3634 09-07-2019 14:45:00 18.8 C 49 % 7.87 C
3635 09-07-2019 14:50:00 18.7 C 48 % 7.48 C
3636 09-07-2019 14:55:00 18.7 C 48 % 7.48 C
3637 09-07-2019 15:00:00 18.8 C 49 % 7.87 C
3638 09-07-2019 15:05:00 19.2 C 48 % 7.93 C
3639 09-07-2019 15:10:00 19.7 C 45 % 7.44 C
3640 09-07-2019 15:15:00 19.4 C 45 % 7.17 C
3641 09-07-2019 15:20:00 19.3 C 46 % 7.4 C
3642 09-07-2019 15:25:00 19.5 C 47 % 7.9 C
3643 09-07-2019 15:30:00 19.9 C 47 % 8.26 C
3644 09-07-2019 15:35:00 20 C 44 % 7.39 C
3645 09-07-2019 15:40:00 20.1 C 45 % 7.81 C
3646 09-07-2019 15:45:00 20.3 C 45 % 7.99 C
3647 09-07-2019 15:50:00 20.4 C 44 % 7.75 C
3648 09-07-2019 15:55:00 20.2 C 46 % 8.22 C
3649 09-07-2019 16:00:00 20.2 C 45 % 7.9 C
3650 09-07-2019 16:05:00 20.1 C 45 % 7.81 C
Sensor: Nr:Datum:Temp:Feuchte:Taupunkt:
Aussen-T/F 3651 09-07-2019 16:10:00 20.3 C 44 % 7.66 C
3652 09-07-2019 16:15:00 20.3 C 45 % 7.99 C
3653 09-07-2019 16:20:00 20.4 C 44 % 7.75 C
3654 09-07-2019 16:25:00 20.3 C 44 % 7.66 C
3655 09-07-2019 16:30:00 20 C 45 % 7.72 C
3656 09-07-2019 16:35:00 20.1 C 45 % 7.81 C
3657 09-07-2019 16:40:00 20.7 C 44 % 8.02 C
3658 09-07-2019 16:45:00 20.9 C 42 % 7.52 C
3659 09-07-2019 16:50:00 21.1 C 41 % 7.35 C
3660 09-07-2019 16:55:00 21.3 C 41 % 7.53 C
3661 09-07-2019 17:00:00 21.4 C 41 % 7.62 C
3662 09-07-2019 17:05:00 21.4 C 40 % 7.25 C
3663 09-07-2019 17:10:00 21.3 C 40 % 7.16 C
3664 09-07-2019 17:15:00 21.3 C 40 % 7.16 C
3665 09-07-2019 17:20:00 21.3 C 41 % 7.53 C
3666 09-07-2019 17:25:00 21.7 C 40 % 7.52 C
3667 09-07-2019 17:30:00 22 C 39 % 7.42 C
3668 09-07-2019 17:35:00 22 C 38 % 7.04 C
3669 09-07-2019 17:40:00 21.9 C 39 % 7.33 C
3670 09-07-2019 17:45:00 21.9 C 39 % 7.33 C
3671 09-07-2019 17:50:00 22.3 C 38 % 7.31 C
3672 09-07-2019 17:55:00 22.2 C 39 % 7.6 C
3673 09-07-2019 18:00:00 21.9 C 39 % 7.33 C
3674 09-07-2019 18:05:00 21.7 C 38 % 6.77 C
3675 09-07-2019 18:10:00 21.5 C 39 % 6.97 C
Sensor: Nr:Datum:Temp:Feuchte:Taupunkt:
Aussen-T/F 3676 09-07-2019 18:15:00 21 C 40 % 6.9 C
3677 09-07-2019 18:20:00 20.7 C 40 % 6.63 C
3678 09-07-2019 18:25:00 20.4 C 40 % 6.36 C
3679 09-07-2019 18:30:00 20.2 C 41 % 6.54 C
3680 09-07-2019 18:35:00 20.5 C 42 % 7.16 C
3681 09-07-2019 18:40:00 20.9 C 40 % 6.81 C
3682 09-07-2019 18:45:00 21.2 C 40 % 7.08 C
3683 09-07-2019 18:50:00 21.4 C 39 % 6.89 C
3684 09-07-2019 18:55:00 21.4 C 39 % 6.89 C
3685 09-07-2019 19:00:00 21.2 C 40 % 7.08 C
3686 09-07-2019 19:05:00 21.1 C 40 % 6.99 C
3687 09-07-2019 19:10:00 21.2 C 41 % 7.44 C
3688 09-07-2019 19:15:00 21.4 C 40 % 7.25 C
3689 09-07-2019 19:20:00 21.5 C 39 % 6.97 C
3690 09-07-2019 19:25:00 21.5 C 40 % 7.34 C
3691 09-07-2019 19:30:00 21.2 C 41 % 7.44 C
3692 09-07-2019 19:35:00 21 C 41 % 7.26 C
3693 09-07-2019 19:40:00 20.8 C 41 % 7.08 C
3694 09-07-2019 19:45:00 20.5 C 42 % 7.16 C
3695 09-07-2019 19:50:00 20.2 C 42 % 6.89 C
3696 09-07-2019 19:55:00 20.2 C 42 % 6.89 C
3697 09-07-2019 20:00:00 20.2 C 42 % 6.89 C
3698 09-07-2019 20:05:00 19.9 C 43 % 6.96 C
3699 09-07-2019 20:10:00 19.8 C 44 % 7.21 C
3700 09-07-2019 20:15:00 19.6 C 45 % 7.35 C
Sensor: Nr:Datum:Temp:Feuchte:Taupunkt:
Aussen-T/F 3701 09-07-2019 20:20:00 19.6 C 45 % 7.35 C
3702 09-07-2019 20:25:00 19.5 C 47 % 7.9 C
3703 09-07-2019 20:30:00 19.4 C 46 % 7.49 C
3704 09-07-2019 20:35:00 19.4 C 45 % 7.17 C
3705 09-07-2019 20:40:00 19.4 C 48 % 8.12 C
3706 09-07-2019 20:45:00 19.4 C 51 % 9.01 C
3707 09-07-2019 20:50:00 19.2 C 51 % 8.83 C
3708 09-07-2019 20:55:00 18.9 C 51 % 8.55 C
3709 09-07-2019 21:00:00 18.6 C 53 % 8.84 C
3710 09-07-2019 21:05:00 18.2 C 53 % 8.47 C
3711 09-07-2019 21:10:00 17.8 C 54 % 8.38 C
3712 09-07-2019 21:15:00 17.5 C 56 % 8.63 C
3713 09-07-2019 21:20:00 17.3 C 57 % 8.71 C
3714 09-07-2019 21:25:00 17.1 C 58 % 8.78 C
3715 09-07-2019 21:30:00 16.8 C 58 % 8.5 C
3716 09-07-2019 21:35:00 16.6 C 58 % 8.31 C
3717 09-07-2019 21:40:00 16.4 C 58 % 8.12 C
3718 09-07-2019 21:45:00 16.2 C 59 % 8.19 C
3719 09-07-2019 21:50:00 16.1 C 59 % 8.09 C
3720 09-07-2019 21:55:00 15.9 C 59 % 7.91 C
3721 09-07-2019 22:00:00 15.7 C 59 % 7.72 C
3722 09-07-2019 22:05:00 15.6 C 60 % 7.87 C
3723 09-07-2019 22:10:00 15.4 C 59 % 7.44 C
3724 09-07-2019 22:15:00 15.3 C 60 % 7.59 C
3725 09-07-2019 22:20:00 15.2 C 60 % 7.5 C
Sensor: Nr:Datum:Temp:Feuchte:Taupunkt:
Aussen-T/F 3726 09-07-2019 22:25:00 15.1 C 62 % 7.88 C
3727 09-07-2019 22:30:00 14.9 C 63 % 7.93 C
3728 09-07-2019 22:35:00 14.8 C 64 % 8.06 C
3729 09-07-2019 22:40:00 14.6 C 65 % 8.1 C
3730 09-07-2019 22:45:00 14.4 C 65 % 7.91 C
3731 09-07-2019 22:50:00 14.3 C 66 % 8.04 C
3732 09-07-2019 22:55:00 14.1 C 67 % 8.07 C
3733 09-07-2019 23:00:00 13.9 C 68 % 8.1 C
3734 09-07-2019 23:05:00 13.7 C 69 % 8.12 C
3735 09-07-2019 23:10:00 13.4 C 70 % 8.05 C
3736 09-07-2019 23:15:00 13.3 C 71 % 8.16 C
3737 09-07-2019 23:20:00 13.1 C 72 % 8.17 C
3738 09-07-2019 23:25:00 12.9 C 73 % 8.18 C
3739 09-07-2019 23:30:00 12.8 C 73 % 8.09 C
3740 09-07-2019 23:35:00 12.8 C 73 % 8.09 C
3741 09-07-2019 23:40:00 12.8 C 73 % 8.09 C
3742 09-07-2019 23:45:00 12.9 C 73 % 8.18 C
3743 09-07-2019 23:50:00 12.9 C 73 % 8.18 C
3744 09-07-2019 23:55:00 12.8 C 74 % 8.29 C
3745 10-07-2019 00:00:00 12.7 C 74 % 8.19 C
3746 10-07-2019 00:05:00 12.6 C 74 % 8.09 C
3747 10-07-2019 00:10:00 12.5 C 74 % 8 C
3748 10-07-2019 00:15:00 12.4 C 74 % 7.9 C
3749 10-07-2019 00:20:00 12.3 C 75 % 8 C
3750 10-07-2019 00:25:00 12.2 C 75 % 7.91 C
Sensor: Nr:Datum:Temp:Feuchte:Taupunkt:
Aussen-T/F 3751 10-07-2019 00:30:00 11.9 C 75 % 7.62 C
3752 10-07-2019 00:35:00 11.8 C 75 % 7.52 C
3753 10-07-2019 00:40:00 11.7 C 76 % 7.62 C
3754 10-07-2019 00:45:00 11.6 C 76 % 7.52 C
3755 10-07-2019 00:50:00 11.5 C 76 % 7.42 C
3756 10-07-2019 00:55:00 11.4 C 77 % 7.52 C
3757 10-07-2019 01:00:00 11.3 C 77 % 7.42 C
3758 10-07-2019 01:05:00 11.3 C 77 % 7.42 C
3759 10-07-2019 01:10:00 11.2 C 77 % 7.32 C
3760 10-07-2019 01:15:00 11.2 C 77 % 7.32 C
3761 10-07-2019 01:20:00 11.2 C 78 % 7.51 C
3762 10-07-2019 01:25:00 11.1 C 78 % 7.41 C
3763 10-07-2019 01:30:00 11 C 78 % 7.32 C
3764 10-07-2019 01:35:00 10.9 C 78 % 7.22 C
3765 10-07-2019 01:40:00 10.9 C 79 % 7.41 C
3766 10-07-2019 01:45:00 10.8 C 79 % 7.31 C
3767 10-07-2019 01:50:00 10.7 C 79 % 7.21 C
3768 10-07-2019 01:55:00 10.6 C 79 % 7.11 C
3769 10-07-2019 02:00:00 10.6 C 79 % 7.11 C
3770 10-07-2019 02:05:00 10.4 C 80 % 7.1 C
3771 10-07-2019 02:10:00 10.3 C 80 % 7.01 C
3772 10-07-2019 02:15:00 10.3 C 80 % 7.01 C
3773 10-07-2019 02:20:00 10.2 C 81 % 7.09 C
3774 10-07-2019 02:25:00 10.1 C 81 % 6.99 C
3775 10-07-2019 02:30:00 9.9 C 81 % 6.8 C
Sensor: Nr:Datum:Temp:Feuchte:Taupunkt:
Aussen-T/F 3776 10-07-2019 02:35:00 9.8 C 82 % 6.88 C
3777 10-07-2019 02:40:00 9.8 C 82 % 6.88 C
3778 10-07-2019 02:45:00 9.7 C 82 % 6.78 C
3779 10-07-2019 02:50:00 9.6 C 83 % 6.86 C
3780 10-07-2019 02:55:00 9.5 C 83 % 6.76 C
3781 10-07-2019 03:00:00 9.4 C 83 % 6.66 C
3782 10-07-2019 03:05:00 9.3 C 83 % 6.57 C
3783 10-07-2019 03:10:00 9.3 C 84 % 6.74 C
3784 10-07-2019 03:15:00 9.2 C 84 % 6.64 C
3785 10-07-2019 03:20:00 9.1 C 84 % 6.54 C
3786 10-07-2019 03:25:00 9.1 C 85 % 6.72 C
3787 10-07-2019 03:30:00 9 C 85 % 6.62 C
3788 10-07-2019 03:35:00 8.9 C 85 % 6.52 C
3789 10-07-2019 03:40:00 8.9 C 85 % 6.52 C
3790 10-07-2019 03:45:00 8.8 C 86 % 6.59 C
3791 10-07-2019 03:50:00 8.8 C 86 % 6.59 C
3792 10-07-2019 03:55:00 8.8 C 86 % 6.59 C
3793 10-07-2019 04:00:00 8.7 C 86 % 6.49 C
3794 10-07-2019 04:05:00 8.7 C 86 % 6.49 C
3795 10-07-2019 04:10:00 8.6 C 86 % 6.39 C
3796 10-07-2019 04:15:00 8.5 C 86 % 6.3 C
3797 10-07-2019 04:20:00 8.5 C 87 % 6.46 C
3798 10-07-2019 04:25:00 8.5 C 87 % 6.46 C
3799 10-07-2019 04:30:00 8.5 C 87 % 6.46 C
3800 10-07-2019 04:35:00 8.4 C 87 % 6.37 C
Sensor: Nr:Datum:Temp:Feuchte:Taupunkt:
Aussen-T/F 3801 10-07-2019 04:40:00 8.4 C 88 % 6.53 C
3802 10-07-2019 04:45:00 8.4 C 88 % 6.53 C
3803 10-07-2019 04:50:00 8.4 C 88 % 6.53 C
3804 10-07-2019 04:55:00 8.4 C 88 % 6.53 C
3805 10-07-2019 05:00:00 8.4 C 88 % 6.53 C
3806 10-07-2019 05:05:00 8.3 C 88 % 6.43 C
3807 10-07-2019 05:10:00 8.3 C 88 % 6.43 C
3808 10-07-2019 05:15:00 8.3 C 88 % 6.43 C
3809 10-07-2019 05:20:00 8.3 C 88 % 6.43 C
3810 10-07-2019 05:25:00 8.2 C 89 % 6.5 C
3811 10-07-2019 05:30:00 8.2 C 89 % 6.5 C
3812 10-07-2019 05:35:00 8.2 C 89 % 6.5 C
3813 10-07-2019 05:40:00 8.2 C 89 % 6.5 C
3814 10-07-2019 05:45:00 8.2 C 89 % 6.5 C
3815 10-07-2019 05:50:00 8.1 C 89 % 6.4 C
3816 10-07-2019 05:55:00 8.1 C 89 % 6.4 C
3817 10-07-2019 06:00:00 8.1 C 89 % 6.4 C
3818 10-07-2019 06:05:00 8.1 C 89 % 6.4 C
3819 10-07-2019 06:10:00 8.1 C 89 % 6.4 C
3820 10-07-2019 06:15:00 8.1 C 90 % 6.56 C
3821 10-07-2019 06:20:00 8.1 C 90 % 6.56 C
3822 10-07-2019 06:25:00 8.1 C 90 % 6.56 C
3823 10-07-2019 06:30:00 8.1 C 90 % 6.56 C
3824 10-07-2019 06:35:00 8.1 C 90 % 6.56 C
3825 10-07-2019 06:40:00 8.1 C 90 % 6.56 C
Sensor: Nr:Datum:Temp:Feuchte:Taupunkt:
Aussen-T/F 3826 10-07-2019 06:45:00 8.1 C 90 % 6.56 C
3827 10-07-2019 06:50:00 8.1 C 90 % 6.56 C
3828 10-07-2019 06:55:00 8.2 C 90 % 6.66 C
3829 10-07-2019 07:00:00 8.2 C 90 % 6.66 C
3830 10-07-2019 07:05:00 8.2 C 90 % 6.66 C
3831 10-07-2019 07:10:00 8.3 C 90 % 6.76 C
3832 10-07-2019 07:15:00 8.3 C 90 % 6.76 C
3833 10-07-2019 07:20:00 8.3 C 90 % 6.76 C
3834 10-07-2019 07:25:00 8.4 C 91 % 7.02 C
3835 10-07-2019 07:30:00 8.4 C 91 % 7.02 C
3836 10-07-2019 07:35:00 8.5 C 91 % 7.12 C
3837 10-07-2019 07:40:00 8.6 C 91 % 7.22 C
3838 10-07-2019 07:45:00 8.7 C 91 % 7.32 C
3839 10-07-2019 07:50:00 8.8 C 91 % 7.41 C
3840 10-07-2019 07:55:00 8.9 C 91 % 7.51 C
3841 10-07-2019 08:00:00 9.1 C 91 % 7.71 C
3842 10-07-2019 08:05:00 9.2 C 91 % 7.81 C
3843 10-07-2019 08:10:00 9.3 C 91 % 7.91 C
3844 10-07-2019 08:15:00 9.6 C 91 % 8.21 C
3845 10-07-2019 08:20:00 9.7 C 91 % 8.3 C
3846 10-07-2019 08:25:00 9.9 C 91 % 8.5 C
3847 10-07-2019 08:30:00 10.1 C 90 % 8.54 C
3848 10-07-2019 08:35:00 10.3 C 90 % 8.73 C
3849 10-07-2019 08:40:00 10.4 C 90 % 8.83 C
3850 10-07-2019 08:45:00 10.7 C 89 % 8.96 C
Sensor: Nr:Datum:Temp:Feuchte:Taupunkt:
Aussen-T/F 3851 10-07-2019 08:50:00 10.8 C 89 % 9.06 C
3852 10-07-2019 08:55:00 10.9 C 88 % 8.99 C
3853 10-07-2019 09:00:00 11.1 C 87 % 9.02 C
3854 10-07-2019 09:05:00 11.3 C 87 % 9.22 C
3855 10-07-2019 09:10:00 11.6 C 86 % 9.34 C
3856 10-07-2019 09:15:00 11.7 C 85 % 9.27 C
3857 10-07-2019 09:20:00 11.9 C 83 % 9.11 C
3858 10-07-2019 09:25:00 12.2 C 84 % 9.58 C
3859 10-07-2019 09:30:00 12.4 C 82 % 9.42 C
3860 10-07-2019 09:35:00 12.8 C 81 % 9.62 C
3861 10-07-2019 09:40:00 13.2 C 79 % 9.64 C
3862 10-07-2019 09:45:00 13.6 C 77 % 9.65 C
3863 10-07-2019 09:50:00 13.9 C 75 % 9.55 C
3864 10-07-2019 09:55:00 14.2 C 76 % 10.03 C
3865 10-07-2019 10:00:00 14.4 C 76 % 10.23 C
3866 10-07-2019 10:05:00 14.7 C 75 % 10.32 C
3867 10-07-2019 10:10:00 14.9 C 74 % 10.31 C
3868 10-07-2019 10:15:00 15.2 C 71 % 9.98 C
3869 10-07-2019 10:20:00 15.5 C 71 % 10.27 C
3870 10-07-2019 10:25:00 15.9 C 68 % 10.01 C
3871 10-07-2019 10:30:00 16.3 C 67 % 10.17 C
3872 10-07-2019 10:35:00 16.7 C 67 % 10.55 C
3873 10-07-2019 10:40:00 16.9 C 66 % 10.51 C
3874 10-07-2019 10:45:00 17.3 C 65 % 10.66 C
3875 10-07-2019 10:50:00 17.6 C 62 % 10.24 C
Sensor: Nr:Datum:Temp:Feuchte:Taupunkt:
Aussen-T/F 3876 10-07-2019 10:55:00 17.7 C 60 % 9.84 C
3877 10-07-2019 11:00:00 17.8 C 61 % 10.18 C
3878 10-07-2019 11:05:00 17.9 C 59 % 9.78 C
3879 10-07-2019 11:10:00 18 C 59 % 9.88 C
3880 10-07-2019 11:15:00 18.2 C 57 % 9.55 C
3881 10-07-2019 11:20:00 18.3 C 56 % 9.38 C
3882 10-07-2019 11:25:00 18.4 C 56 % 9.47 C
388